     2              OBSERVATION DATA    GPS                 RINEX VERSION / TYPE
ASRINEXO V2.4.4 UX USGS 24-FEB-96 16:16                     PGM / RUN BY / DATE
                                                            COMMENT
Contact: kwendt@isdmnl.wr.usgs.gov (Ph: 415-329-4866)       COMMENT
Contact: kwendt@isdmnl.wr.usgs.gov (Ph: 415-329-4866)       COMMENT
Contact: kwendt@isdmnl.wr.usgs.gov (Ph: 415-329-4866)       COMMENT
Contact: kwendt@isdmnl.wr.usgs.gov (Ph: 415-329-4866)       COMMENT
Contact: kwendt@isdmnl.wr.usgs.gov (Ph: 415-329-4866)       COMMENT
Contact: kwendt@isdmnl.wr.usgs.gov (Ph: 415-329-4866)       COMMENT
Original Marker Name: p16x P_16_Reset_1978_NGS              COMMENT
Campaign Name: USGS Yucca Profile                           COMMENT
4-Character Station Name: P16X                              COMMENT
6-Character Antenna Code: ASHL12                            COMMENT
Vertical Measurement Point: BBE                             COMMENT
Vertical Offset to Rinex Ref. Point: 0.0595                 COMMENT
Radial Measurement Point: EGP                               COMMENT
Radial Offset to Rinex Ref. Point: 0.1424                   COMMENT
Antenna Height from Field Measurement: 1.3090 m             COMMENT
Additional Antenna Identification Info.:                    COMMENT
Original Ashtech L1/L2 (700228ABC)                          COMMENT
Original XYZ: -2300307.3000 -4565076.4400 3802979.0800      COMMENT
New XYZ position is based on association with SCEC monument COMMENT
E1G0F5Y1+0011. Position of that monument is believed to be  COMMENT
valid to within 1 m horizontally; vertical accuracy         COMMENT
should be no worse than 3-times this value.                 COMMENT
                                                            COMMENT
Revised Rinex header created by UCSD GPS archive for        COMMENT
GSAC on 08-Aug-2000 (2000:221) 00:29:28 GMT                 COMMENT
For assistance contact dagnew@ucsd.edu                      COMMENT
or anderson@python.ucsd.edu                                 COMMENT
                                                            COMMENT
P16 RESET 1978                                              MARKER NAME
GDH US GEOLOGICAL SURVEY                                    OBSERVER / AGENCY
O4597 ASHTECH Z-XII3 1F00                                   REC # / TYPE / VERS
0598 ASHTECH GEODETIC L                                     ANT # / TYPE
 -2300654.7377 -4565209.2776  3802677.1232                  APPROX POSITION XYZ
        1.2417        0.0000        0.0000                  ANTENNA: DELTA H/E/N
     1     1     0                                          WAVELENGTH FACT L1/2
     5    C1    L1    L2    P1    P2                        # / TYPES OF OBSERV
    30                                                      INTERVAL
  1996     2    12    16    57   30.000000                  TIME OF FIRST OBS
  1996     2    12    23    30   30.000000                  TIME OF LAST OBS
                                                            END OF HEADER
 96  2 12 16 57 30.0000000  0  5 29  4 22 18 14
  19793452.413      -21900.83319
  23454474.891      -12383.59319
  19949834.952      -13390.72619
  21740305.694      -34793.76819
  19095514.592       -9443.06119     -4490.34259                  19095517.5394
 96  2 12 16 58  0.0000000  0  6 29 25  4 22 18 14
  19778774.368      -99034.64959    -64730.36359                  19778770.7934
  19778774.7944   22690727.002       58025.94419
  23442953.265      -72923.537 9
  19941406.050      -57684.00159    -37169.53159  19941401.9194   19941406.9504
  21717263.378     -155872.75559   -101607.53559  21717260.5914   21717265.5824
  19091271.772      -31744.65859    -21868.24349  19091268.4424   19091274.2594
 96  2 12 16 58 30.0000000  0  5 29  4 22 18 14
  20963010.863     -177508.29949   -125878.66049  20963007.7574   20963012.0324
  24630419.117     -134456.563 9
  21131974.670     -102887.96649    -72393.39149  21131969.9334   21131975.1324
  22893113.381     -278420.72549   -197099.45449  22893109.7834   22893115.8344
  20286018.756      -54987.32349    -39979.42949  20286015.4404   20286020.9574
 96  2 12 16 59  0.0000000  0  7 29 25  4 22 19 18 14
  20947815.183     -257358.32359   -188099.46059  20947812.9324   20947816.9454
  23907721.729      151677.80659    106461.15859  23907714.8894   23907720.5744
  24618516.385     -197002.052 9   -147470.50859                  24618519.2344
  21123195.392     -149020.49659   -108340.80159                  21123191.0984
  21123196.2474   24629578.784     -441608.90019                  22869509.086
                   -402467.11359   -293758.95059  22869505.0824   22869510.0534
  20281418.306      -79166.87659    -58820.66059  20281414.2464   20281419.8394
 96  2 12 16 59 30.0000000  0  7 29 25  4 22 19 18 14
  20932367.136     -338539.48749   -251357.50849  20932364.5444   20932369.0804
  23916198.950      196256.70459    141197.93159  23916198.2974   23916203.8904
  24606428.252     -260522.41459   -196966.88959  24606426.9314   24606431.7044
  21114248.363     -196035.17349   -144975.59049                  21114244.3364
  21114249.9714   24603328.432     -579553.353 9                  22845630.723
                   -527949.46149   -391537.38949  22845625.6184   22845631.9074
  20276644.205     -104249.83749    -78365.83449  20276640.9254   20276646.4924
 96  2 12 16 59 59.9990000  0  7 29 25  4 22 19 18 14
  20916689.047     -420930.81949   -315558.54749  20916686.2594   20916690.2444
  23924422.542      239466.40949    174867.80149  23924420.8704   23924425.7394
  24594177.687     -324915.56559   -247143.36749  24594172.3494   24594178.8924
  21105157.470     -243811.28449   -182203.71249  21105153.1474   21105158.3384
  24576832.110     -718787.994 9   -216936.15259  24576834.9244   22821500.372
                   -654748.70149   -490341.96149  22821497.6034   22821502.4884
  20271721.508     -130118.19249    -98523.00849  20271718.5494   20271724.2034
 96  2 12 17  0 29.9990000  0  7 29 25  4 22 19 18 14
  20900792.700     -504466.69149   -380651.43249  20900789.9364   20900794.3734
  23932400.582      281375.46449    207524.18249  23932396.1844   23932401.0034
  24581762.862     -390147.23349   -297973.24149  24581759.8234   24581765.7704
  21095931.422     -292287.64649   -219977.50349  21095928.3624   21095933.4314
  24550103.917     -859248.73059   -326386.00949  24550097.9504   24550107.1194
  22797133.852     -782797.30049   -590120.08549  22797130.4414   22797136.2104
  20266659.134     -156721.70949   -119253.03349  20266655.9714   20266661.4024
 96  2 12 17  0 59.9990000  0  7 29 25  4 22 19 18 14
  20884694.667     -589062.36749   -446570.13549  20884691.7654   20884695.9004
  23940142.083      322063.05749    239228.75149  23940137.9784   23940143.5634
  24569204.991     -456136.63749   -349393.56149  24569202.2754   24569207.9234
  21086590.088     -341376.71549   -258228.69249  21086586.8664   21086592.0314
  24523159.574    -1000837.92959   -436715.22959  24523156.3614   24523162.1954
  22772545.601     -912014.60449   -690808.85449  22772541.5654   22772546.7654
  20261467.575     -184004.19849   -140512.12849  20261464.4554   20261469.9324
 96  2 12 17  1 29.9990000  0  7 29 25  4 22 19 18 14
  20868409.460     -674641.26749   -513254.99049  20868406.5944   20868410.8624
  23947661.180      361603.00849    270039.07949  23947662.7024   23947667.6264
  24556514.470     -522817.36949   -401352.58549  24556512.7234   24556518.9564
  21077145.475     -391010.12249   -296904.05649  21077141.7654   21077147.2294
  24496017.023    -1143473.02849   -547859.45449  24496013.2164   24496020.4104
  22747745.859    -1042333.54049   -792356.03549  22747742.6424   22747748.3544
  20256155.538     -211920.51249   -162265.11849  20256152.4224   20256157.9214
 96  2 12 17  1 59.9990000  0  7 29 25  4 22 19 18 14
  20851952.594     -761123.02149   -580643.36649  20851949.8524   20851954.0154
  23954987.942      400071.27549    300014.31749  23954983.3614   23954988.5994
  24543706.773     -590120.17249   -453796.33349  24543704.8024   24543711.8444
  21067608.728     -441129.15349   -335957.82549  21067604.7514   21067610.0164
  24468687.955    -1287080.76749   -659761.56249  24468685.3794   24468691.4504
  22722752.393    -1173674.44349   -894699.57449  22722749.1324   22722754.6204
  20250736.061     -240400.53049   -184457.35349  20250733.1184   20250738.5464
 96  2 12 17  2 29.9990000  0  7 29 25  4 22 19 18 14
  20835335.908     -848444.31049   -648685.92849  20835333.2294   20835337.3054
  23962111.243      437528.72249    329201.90549  23962110.4134   23962115.8964
  24530796.974     -657970.78049   -506666.95449  24530794.4174   24530800.5374
  21057988.395     -491684.62849   -375351.67749  21057984.1914   21057989.7824
  24441188.400    -1431600.24849   -772374.16449  24441184.3574   24441191.8184
  22697577.988    -1305972.11049   -997788.64749  22697574.2644   22697579.1074
  20245215.244     -269410.82849   -207062.79049  20245212.4154   20245217.9854
 96  2 12 17  2 59.9990000  0  7 29 25  4 22 19 18 14
  20818567.356     -936562.14949   -717349.17549  20818564.7074   20818569.1384
  23969056.339      474022.98749    357638.97949  23969056.3664   23969060.0814
  24517794.683     -726303.77949   -559913.44449  24517791.4274   24517795.8614
  21048294.213     -542625.19649   -415045.61549  21048290.5614   21048295.8994
  24413524.119    -1576987.40749   -885662.84049  24413517.1674   24413525.7194
  22672227.566    -1439183.40749  -1101589.62849  22672224.6924   22672230.2814
  20239601.703     -298908.82049   -230048.25649  20239599.1574   20239604.4634
 96  2 12 17  3 29.9990000  0  7 29 25  4 22 19 18 14
  20801657.394    -1025426.19849   -786593.88749  20801654.7684   20801659.1824
  23975832.549      509604.77549    385365.06749  23975828.1994   23975831.0634
  24504704.452     -795075.67249   -613501.94449  24504703.7044   24504711.0974
  21038535.914     -593905.41249   -455004.20549  21038532.2314   21038537.8564
  24385699.308    -1723191.80949   -999588.33149  24385696.7414   24385704.3854
  22646714.395    -1573258.83049  -1206063.96249  22646710.8744   22646716.3824
  20233907.826     -328830.94949   -253364.21249  20233905.0434   20233910.4784
 96  2 12 17  3 59.9990000  0  7 29 25  4 22 19 18 14
  20784610.308    -1115008.95349   -856398.62749  20784607.7234   20784611.6704
  23982432.575      544308.70149    412407.12649  23982430.9514   23982435.9404
  24491544.782     -864257.84049   -667410.14549  24491540.3084   24491545.4834
  21028718.723     -645492.17149   -495201.66449  21028715.5774   21028721.1314
  24357724.930    -1870175.54049  -1114121.11549  24357726.1084   24357733.8954
  22621040.607    -1708179.46949  -1311196.91349  22621036.3634   22621042.6124
  20228143.095     -359122.71249   -276968.20049  20228140.8254   20228146.2284
 96  2 12 17  4 29.9990000  0  7 29 25  4 22 19 18 14
  20767431.220    -1205285.06949   -926743.65049  20767429.0424   20767432.8994
  23988876.640      578159.05749    438784.04049  23988870.9064   23988877.6234
  24478304.767     -933817.18049   -721612.23049  24478302.7584   24478308.3424
  21018852.618     -697341.49749   -535603.71349  21018848.8704   21018854.8614
  24329618.287    -2017900.98649  -1229231.84549  24329615.1474   24329623.2074
  22595209.216    -1843919.12049  -1416968.05949  22595205.5054   22595211.6324
  20222318.246     -389737.39249   -300823.81249  20222315.2204   20222320.8284
 96  2 12 17  4 59.9990000  0  7 29 25  4 22 19 18 14
  20750126.138    -1296225.45449   -997606.28649  20750123.6184   20750127.4674
  23995157.427      611168.94949    464506.01949  23995152.9274   23995159.3514
  24465003.356    -1003728.99849   -776088.97649  24464999.1854   24465005.0814
  21008941.367     -749424.01549   -576187.48849  21008938.2414   21008943.3924
  24301374.067    -2166327.86849  -1344889.15849  24301370.0344   24301377.5304
  22569229.442    -1980445.23349  -1523352.02349  22569226.6354   22569231.7624
  20216441.995     -420613.49249   -324883.13349  20216439.7684   20216445.1264
 96  2 12 17  5 29.9990000  0  7 29 25  4 22 19 18 14
  20732697.713    -1387809.98549  -1068970.85149  20732695.3574   20732699.4154
  24001278.538      643350.71349    489582.67149  24001277.5474   24001283.4854
  24451633.888    -1073968.87749   -830821.36649  24451633.2724   24451639.2214
  20998989.636     -801720.35549   -616937.87349  20998986.4854   20998991.7734
  24273000.390    -2315436.92149  -1461078.00349  24272997.1554   24273003.8154
  22543104.569    -2117730.66049  -1630327.67249  22543100.7264   22543106.8164
  20210523.440     -451719.17249   -349121.34049  20210520.4134   20210525.9374
 96  2 12 17  5 59.9990000  0  7 29 25  4 22 19 18 14
  20715153.213    -1480008.88649  -1140814.14749  20715150.6054   20715154.7014
  24007251.848      674731.98349    514035.57449  24007249.1684   24007255.6394
  24438213.220    -1144501.15149   -885781.58449  24438210.4874   24438217.1224
  20989004.672     -854198.11749   -657829.62449  20989000.5594   20989005.7174
  24244499.146    -2465197.39149  -1577774.45049  24244498.6454   24244505.4584
  22516842.859    -2255739.16349  -1737866.75249  22516839.1994   22516845.0674
  20204563.664     -483037.29349   -373525.08049  20204561.0314   20204566.3064
 96  2 12 17  6 29.9990000  0  7 29 25  4 22 19 18 14
  20697495.727    -1572799.51949  -1213118.53949  20697493.2334   20697496.9594
  24013076.027      705322.91549    537872.62049  24013070.7314   24013076.3344
  24424737.311    -1215305.54649   -940953.86549  24424736.5004   24424743.6094
  20978985.416     -906846.42349   -698854.27049  20978982.2644   20978987.0554
  24215881.725    -2615593.16449  -1694965.95449  24215878.4134   24215885.8084
  22490447.846    -2394445.42449  -1845949.54849  22490444.5514   22490449.7214
  20198561.275     -514579.51749   -398103.44549  20198558.8284   20198564.0974
 96  2 12 17  6 59.9990000  0  7 29 25  4 22 19 18 14
  20679730.099    -1666157.92149  -1285865.34249  20679727.6074   20679731.4854
  24018748.786      735154.97849    561118.36549  24018747.8664   24018753.1284
  24411220.405    -1286350.59649   -996313.64449  24411217.3074   24411224.3954
  20968937.732     -959647.01549   -739997.58349  20968934.5564   20968939.5034
  24187144.682    -2766594.95649  -1812629.68449  24187143.5034   24187151.2854
  22463922.634    -2533833.82949  -1954563.88349  22463919.7074   22463924.4914
  20192518.094     -546335.71049   -422848.54249  20192515.7674   20192521.1004
 96  2 12 17  7 29.9990000  0  7 29 25  4 22 19 18 14
  20661860.537    -1760063.34749  -1359038.40449  20661858.0554   20661862.1974
  24024287.494      764261.33149    583798.62549  24024286.6934   24024292.1864
  24397656.341    -1357619.02949  -1051847.50549  24397655.8614   24397662.0664
  20958865.984    -1012573.84549   -781239.26549  20958862.7984   20958868.0444
  24158299.522    -2918190.96049  -1930756.41049  24158296.9164   24158303.0464
  22437270.902    -2673890.29449  -2063698.76649  22437267.6574   22437273.2094
  20186435.738     -578297.52049   -447753.86249  20186433.5324   20186438.9914
 96  2 12 17  7 59.9990000  0  7 29 25  4 22 19 18 14
  20643891.288    -1854489.28749  -1432617.05249  20643889.3414   20643893.5594
  24029695.141      792658.89949    605926.58649  24029690.9704   24029696.5594
  24384055.231    -1429100.18849  -1107547.11949  24384053.7144   24384058.7194
  20948772.274    -1065611.64749   -822567.42649  20948769.5724   20948775.1524
  24129339.947    -3070362.54649  -2049331.64549  24129339.6374   24129345.0244
  22410493.587    -2814604.82049  -2173346.44749  22410490.7124   22410496.3194
  20180318.416     -610445.43449   -472804.19849  20180315.8104   20180321.7314
 96  2 12 17  8 29.9990000  0  7 29 25  4 22 19 18 14
  20625826.896    -1949416.58949  -1506586.37749  20625825.0814   20625829.5454
  24034964.288      820363.50349    627514.58349  24034962.2254   24034967.4284
  24370419.086    -1500772.07249  -1163395.36149  24370414.6794   24370421.0394
  20938664.002    -1118735.44349   -863962.59749  20938660.6544   20938666.2204
  24100276.803    -3223101.13349  -2168348.70049  24100274.4524   24100280.7534
  22383594.224    -2955963.25249  -2283495.87149  22383591.3974   22383596.4984
  20174172.718     -642739.61449   -497968.50949  20174170.4034   20174176.2244
 96  2 12 17  8 59.9990000  0  7 29 25  4 22 19 18 14
  20607671.562    -2044827.83049  -1580932.79549  20607669.1724   20607673.2814
  24040106.693      847385.97349    648571.04049  24040106.0684   24040109.6204
  24356744.448    -1572620.35249  -1219381.04549  24356742.7714   24356748.1374
  20928543.885    -1171917.89049   -905403.46749  20928540.4694   20928546.2164
  24071103.546    -3376403.84549  -2287805.36549  24071101.8004   24071108.1274
  22356576.820    -3097940.04449  -2394127.11549  22356573.4414   22356578.3334
  20168006.169     -675147.25949   -523221.22749  20168003.7744   20168009.2034
 96  2 12 17  9 29.9990000  0  7 29 25  4 22 19 18 14
  20589426.340    -2140706.86649  -1655643.72849  20589424.0874   20589428.2624
  24045124.587      873740.06649    669106.71149  24045120.2694   24045123.3864
  24343038.604    -1644640.18149  -1275500.41449  24343037.9404   24343042.8544
  20918414.390    -1225146.47649   -946880.28649  20918411.5034   20918416.9174
  24041825.125    -3530258.18149  -2407691.82449  24041823.7464   24041830.5664
  22329447.600    -3240505.21449  -2505216.84049  22329443.8674   22329449.6794
  20161821.852     -707645.98549   -548544.92449  20161819.4134   20161824.7784
 96  2 12 17  9 59.9990000  0  7 29 25  4 22 19 18 14
  20571096.332    -2237030.60449  -1730701.18849  20571094.2254   20571098.3584
  24050012.766      899442.61249    689134.66049  24050010.4154   24050015.4814
  24329302.657    -1716824.18749  -1331747.70149  24329301.8324   24329307.9634
  20908279.055    -1278410.35649   -988384.61349  20908275.7504   20908281.2324
  24012446.596    -3684652.57049  -2527999.11849  24012443.2864   24012450.0124
  22302211.587    -3383632.43549  -2616744.52849  22302208.1804   22302212.9364
  20155622.760     -740220.94949   -573928.02749  20155620.6834   20155626.0114
 96  2 12 17 10 29.9990000  0  7 29 25  4 22 19 18 14
  20552683.717    -2333792.24949  -1806099.87149  20552681.4034   20552685.4574
  24054785.847      924526.75549    708680.73549  24054782.7154   24054789.5024
  24315538.330    -1789159.44249  -1388112.85449  24315535.8764   24315542.7044
  20898139.038    -1331696.44349  -1029906.24849  20898135.9254   20898141.1254
  23982968.442    -3839566.63549  -2648711.34349  23982965.2694   23982971.2894
  22274873.296    -3527293.99949  -2728688.58349  22274870.7604   22274874.4224
  20149412.200     -772861.43649   -599362.18749  20149409.5314   20149414.8894
 96  2 12 17 10 59.9990000  0  7 29 25  4 22 19 18 14
  20534190.586    -2430974.49949  -1881826.29849  20534188.1274   20534192.0824
  24059445.429      949010.22749    727758.75249  24059442.6644   24059448.8824
  24301748.787    -1861635.90949  -1444588.03849  24301745.4984   24301751.3454
  20887994.431    -1385005.59949  -1071445.85349  20887991.5784   20887996.4414
  23953393.898    -3994975.79949  -2769809.37349  23953391.9434   23953397.1904
  22247437.552    -3671469.85949  -2841033.39349  22247433.7324   22247438.8624
  20143190.150     -805559.39649   -624841.13249  20143187.3414   20143192.7904
 96  2 12 17 11 29.9990000  0  7 29 25  4 22 19 18 14
  20515619.220    -2528565.79349  -1957871.46949  20515617.2724   20515621.2154
  24063992.247      972908.74249    746380.94149  24063991.2574   24063996.7024
  24287927.292    -1934244.51049  -1501166.19449  24287927.5304   24287934.0654
  20877846.649    -1438337.73549  -1113003.37249  20877842.7664   20877847.9454
  23923727.367    -4150869.27949  -2891284.78649  23923725.4624   23923732.2274
  22219903.847    -3816162.76149  -2953781.10149  22219900.3144   22219904.3384
  20136958.422     -838304.59649   -650356.88949  20136956.1174   20136961.3574
 96  2 12 17 11 59.9990000  0  7 29 25  4 22 19 18 14
  20496974.669    -2626546.54749  -2034220.10249  20496972.2024   20496976.0694
  24068429.932      996220.44949    764545.85749  24068426.5754   24068433.9734
  24274088.723    -2006964.25549  -1557830.92449  24274090.2494   24274096.4254
  20867694.899    -1491678.13749  -1154567.33249  20867692.3784   20867697.6144
  23893971.336    -4307247.49249  -3013137.89149  23893967.3064   23893974.6764
  22192272.229    -3961364.80949  -3066925.52449  22192269.4034   22192273.8354
  20130716.662     -871105.19649   -675915.81449  20130714.5144   20130719.8884
 96  2 12 17 12 29.9990000  0  7 29 25  4 22 19 18 14
  20478254.650    -2724917.54149  -2110872.82549  20478252.6224   20478257.0414
  24072754.060     1018945.69949    782253.82649  24072752.3944   24072757.1944
  24260236.070    -2079779.92449  -1614570.42949  24260233.6314   24260239.7694
  20857546.818    -1545013.49849  -1196127.36249  20857543.1394   20857548.5494
  23864124.705    -4464087.30849  -3135350.68449  23864122.1634   23864128.1754
  22164542.945    -4107083.61749  -3180472.63149  22164540.5194   22164544.7834
  20124466.632     -903952.09249   -701510.81449  20124464.1354   20124469.4444
 96  2 12 17 12 59.9990000  0  7 29 25  4 22 19 18 14
  20459468.329    -2823642.16049  -2187801.10249  20459466.1274   20459470.0344
  24076967.941     1041081.32349    799502.34849  24076964.2104   24076969.4454
  24246364.835    -2152673.34849  -1671370.51749  24246362.7614   24246368.3814
  20847403.417    -1598316.72749  -1237662.35549  20847399.6514   20847405.2154
  23834195.781    -4621366.75449  -3257906.04149  23834191.9584   23834199.7564
  22136717.973    -4253308.22749  -3294413.87149  22136714.8604   22136718.5664
  20118211.279     -936821.08249   -727123.02749  20118209.2804   20118214.6644
 96  2 12 17 13 29.9980000  0  7 29 25  4 22 19 18 14
  20440618.479    -2922698.24949  -2264987.66849  20440616.3624   20440620.5234
  24081069.530     1062636.61449    816298.65249  24081066.7204   24081071.1374
  24232481.399    -2225621.63249  -1728213.36149  24232481.4644   24232486.7594
  20837271.680    -1651556.06249  -1279147.56049  20837268.7574   20837274.0654
  23804185.258    -4779056.25249  -3380780.94049  23804184.4264   23804191.7644
  22108800.160    -4400016.70349  -3408732.14549  22108797.3014   22108800.8964
  20111953.635     -969705.17049   -752747.00749  20111951.4994   20111957.0734
 96  2 12 17 13 59.9980000  0  7 29 25  4 22 19 18 14
  20421704.170    -3022093.83149  -2342438.77249  20421702.1224   20421705.9924
  24085059.128     1083610.10949    832641.64149  24085057.1744   24085062.2274
  24218591.940    -2298620.70749  -1785095.77249  24218590.3014   24218595.8094
  20827153.503    -1704725.57049  -1320578.35649  20827150.9794   20827156.0734
  23774104.657    -4937133.30949  -3503957.81949  23774102.1574   23774110.0954
  22080792.235    -4547197.83949  -3523418.72949  22080789.1864   22080793.4204
  20105694.256    -1002600.39749   -778379.66449  20105691.8754   20105697.3564
 96  2 12 17 14 29.9980000  0  7 29 25  4 22 19 18 14
  20402725.030    -3121828.70849  -2420154.26649  20402722.8714   20402726.9254
  24088943.519     1104014.06449    848540.78749  24088939.8334   24088946.5164
  24204694.631    -2371663.62449  -1842012.36349  24204690.5374   24204695.2064
  20817048.423    -1757830.52549  -1361958.85649  20817045.5304   20817050.3824
  23743955.797    -5095572.15049  -3627416.55349  23743954.1124   23743961.2884
  22052695.224    -4694847.10249  -3638470.08949  22052692.6534   22052696.9214
  20099436.838    -1035483.92849   -804003.21249  20099434.4894   20099439.5784
 96  2 12 17 14 59.9980000  0  7 29 25  4 22 19 18 14
  20383682.075    -3221901.50449  -2498133.06849  20383679.9884   20383684.0254
  24092717.261     1123851.53949    863998.54949  24092715.7494   24092717.6734
  24190786.079    -2444739.57849  -1898954.67749  24190784.7534   24190789.5864
  20806953.350    -1810877.82349  -1403294.43049  20806950.8684   20806955.9864
  23713736.701    -5254374.37549  -3751158.47549  23713734.5034   23713741.3684
  22024514.964    -4842935.42849  -3753863.56749  22024512.1734   22024517.0084
  20093180.963    -1068355.21549   -829617.21049  20093179.2074   20093184.4404
 96  2 12 17 15 29.9980000  0  7 29 25  4 22 19 18 14
  20364575.246    -3322306.92849  -2576371.06449  20364573.3564   20364577.4414
  24096394.722     1143151.00849    879037.05249  24096388.7234   24096392.6534
  24176878.034    -2517828.39749  -1955907.01849  24176876.1924   24176880.6994
  20796870.918    -1863861.43049  -1444580.36949  20796868.3014   20796873.3094
  23683452.397    -5413526.20849  -3875172.84949  23683450.0864   23683456.0124
  21996258.195    -4991426.10549  -3869570.57649  21996255.5974   21996260.0714
  20086929.057    -1101209.49049   -855217.96249  20086927.1884   20086932.4774
 96  2 12 17 15 59.9980000  0  7 29 25  4 22 19 18 14
  20345409.246    -3423026.08449  -2654853.52449  20345407.1554   20345411.2874
  24099963.173     1161931.72349    893671.35349  24099958.9094   24099967.8274
  24162967.235    -2590929.81849  -2012869.16349  24162964.7734   24162971.4794
  20786802.360    -1916773.55849  -1485810.60949  20786799.2454   20786804.7354
  23653100.852    -5573023.33349  -3999456.27349  23653097.6144   23653104.9614
  21967926.887    -5140305.91449  -3985580.79549  21967924.8994   21967929.6984
  20080684.748    -1134025.43549   -880788.84449  20080682.4634   20080687.4854
 96  2 12 17 16 29.9980000  0  7 29 25  4 22 19 18 14
  20326186.923    -3524039.82949  -2733565.53649  20326184.7884   20326188.8374
  24103441.013     1180211.52249    907915.33849  24103438.2724   24103445.4744
  24149054.656    -2664042.36649  -2069840.01249  24149052.5634   24149057.5474
  20776750.947    -1969595.41749  -1526970.50649  20776747.8534   20776753.0314
  23622680.045    -5732871.23449  -4124013.04449  23622680.4484   23622687.2214
  21939524.604    -5289564.92549  -4101886.49349  21939521.1674   21939526.4464
  20074450.534    -1166787.61849   -906317.83849  20074448.2644   20074453.6424
 96  2 12 17 16 59.9980000  0  7 29 25  4 22 19 18 14
  20306912.536    -3625327.79249  -2812491.22549  20306910.5394   20306914.6854
  24106826.133     1197992.50449    921770.57949  24106823.7364   24106829.1044
  24135137.141    -2737168.61249  -2126821.51949  24135136.9794   24135142.7304
  20766722.132    -2022296.53849  -1568036.32049  20766719.3234   20766724.2924
  23592199.833    -5893056.40949  -4248832.61549  23592198.4974   23592204.3424
  21911054.454    -5439175.70349  -4218466.30449  21911051.7294   21911056.6354
  20068225.704    -1199495.61549   -931804.60549  20068224.1774   20068229.4704
 96  2 12 17 17 29.9980000  0  7 29 25  4 22 19 18 14
  20287590.401    -3726863.99449  -2891610.34349  20287588.7444   20287593.0904
  24110112.969     1215275.33849    935237.67649  24110112.1274   24110117.2484
  24121223.906    -2810300.98649  -2183807.80949  24121221.2434   24121226.1484
  20756721.496    -2074850.37949  -1608987.37349  20756718.5824   20756723.8214
  23561657.210    -6053560.87049  -4373900.97549  23561654.7404   23561661.4014
  21882515.494    -5589145.44349  -4335325.83049  21882513.8214   21882518.6254
  20062013.951    -1232140.36349   -957242.08649  20062011.8714   20062017.4664
 96  2 12 17 17 59.9980000  0  7 29 25  4 22 19 18 14
  20268221.709    -3828647.73549  -2970922.35449  20268219.9394   20268224.0754
  24113309.889     1232056.44949    948313.82649  24113306.3864   24113310.8604
  24107305.425    -2883438.72449  -2240798.25949  24107304.1884   24107308.9224
  20746750.051    -2127253.06449  -1649820.64149  20746746.7834   20746751.8134
  23531053.560    -6214382.19149  -4499216.23649  23531051.7814   23531058.2454
  21853905.150    -5739494.94849  -4452481.26549  21853902.8674   21853908.0454
  20055814.674    -1264717.69149   -982627.03149  20055812.7604   20055818.0094
 96  2 12 17 18 29.9980000  0  7 29 25  4 22 19 18 14
  20248806.305    -3930676.31349  -3050425.14949  20248804.3974   20248808.8064
  24116408.867     1248344.77449    961005.97849  24116405.9594   24116410.4684
  24093390.962    -2956557.21449  -2297773.73249  24093389.4064   24093395.5264
  20736806.566    -2179501.14749  -1690533.43549  20736804.3954   20736809.5834
  23500393.532    -6375507.34049  -4624768.23849  23500390.2404   23500397.7354
  21825224.499    -5890216.24549  -4569926.41049  21825221.8154   21825226.6824
  20049627.778    -1297230.80049  -1007961.93749  20049625.8764   20049631.1194
 96  2 12 17 18 59.9980000  0  7 29 25  4 22 19 18 14
  20229349.693    -4032922.60749  -3130097.58949  20229347.7974   20229351.8634
  24119415.146     1264150.16149    973321.77949  24119414.5424   24119418.3764
  24079486.516    -3029626.00849  -2354710.47349  24079485.5404   24079490.5654
  20726895.757    -2231584.03849  -1731117.51549  20726893.1544   20726898.3324
  23469676.090    -6536916.24049  -4750541.34549  23469675.1974   23469682.2874
  21796472.681    -6041306.28849  -4687658.88749  21796470.6164   21796475.3304
  20043453.820    -1329672.40549  -1033241.12549  20043452.2364   20043457.5364
 96  2 12 17 19 29.9980000  0  7 29 25  4 22 19 18 14
  20209852.621    -4135379.06449  -3209933.79149  20209851.0814   20209855.1804
  24122336.646     1279494.82349    985278.64849  24122331.6744   24122339.5644
  24065597.301    -3102620.59349  -2411589.38749  24065594.1854   24065599.9044
  20717015.947    -2283506.75449  -1771576.76949  20717012.6774   20717018.1444
  23438906.452    -6698618.84049  -4876543.31749  23438904.1484   23438911.5144
  21767649.528    -6192773.07749  -4805684.93049  21767647.2514   21767651.8374
  20037298.489    -1362021.11049  -1058447.92549  20037296.8004   20037301.8794
 96  2 12 17 19 59.9980000  0  6 29  4 22 19 18 14
  20190317.088    -4238039.42249  -3289928.87649  20190315.4904   20190319.4374
  24051719.954    -3175529.81749  -2468401.79749  24051720.5404   24051725.5574
  20707164.915    -2335267.83349  -1811910.07849  20707162.9234   20707168.1684
  23408079.679    -6860606.50349  -5002767.40149  23408078.6124   23408086.0134
  21738759.798    -6344590.88249  -4923984.49649  21738757.6554   21738762.0284
  20031163.851    -1394258.97049  -1083568.35049  20031162.0634   20031167.1334
 96  2 12 17 20 29.9980000  0  6 29  4 22 19 18 14
  20170746.838    -4340883.48049  -3370067.10549  20170744.7804   20170748.8474
  24037866.765    -3248343.10049  -2525139.44849  24037863.8764   24037869.8234
  20697349.087    -2386853.04849  -1852106.35049  20697346.2604   20697351.9934
  23377203.667    -7022860.19849  -5129198.77949  23377201.9134   23377210.2714
  21709809.380    -6496727.74349  -5042532.68249  21709806.7914   21709811.3954
  20025054.244    -1426367.16849  -1108587.74449  20025052.1764   20025057.2364
 96  2 12 17 20 59.9980000  0  6 29  4 22 19 18 14
  20151143.327    -4443898.69449  -3450338.69849  20151141.7114   20151145.7694
  24024029.538    -3321048.84049  -2581793.28349  24024027.9924   24024034.1524
  20687569.495    -2438244.44349  -1892151.59349  20687567.0654   20687572.4694
  23346277.934    -7185374.86649  -5255833.53649  23346277.3844   23346284.2424
  21680802.213    -6649158.98849  -5161310.25149  21680799.6264   21680804.5444
  20018973.694    -1458319.10949  -1133485.37649  20018971.9144   20018977.2904
 96  2 12 17 21 29.9980000  0  6 29  4 22 19 18 14
  20131507.384    -4547086.97949  -3530745.15649  20131505.7184   20131509.8554
  24010214.483    -3393658.66749  -2638372.40649  24010211.6204   24010215.9544
  20677827.253    -2489439.57049  -1932043.89749  20677824.8394   20677830.2014
  23315306.840    -7348131.86749  -5382657.11149  23315305.5084   23315312.7804
  21651745.843    -6801851.61049  -5280291.50149  21651743.2784   21651747.9344
  20012926.294    -1490097.67249  -1158247.91549  20012924.7244   20012930.0994
 96  2 12 17 21 59.9980000  0  6 29  4 22 19 18 14
  20111841.935    -4650427.91049  -3611270.55149  20111840.5714   20111844.6744
  23996415.671    -3466171.35049  -2694875.81149  23996412.3774   23996417.5134
  20668126.441    -2540415.29149  -1971765.24149  20668124.6224   20668129.8154
  23284295.476    -7511098.56849  -5509644.08449  23284293.7234   23284300.2194
  21622645.075    -6954774.24149  -5399451.98749  21622642.8924   21622647.8904
  20006914.020    -1521694.35849  -1182868.72949  20006912.1804   20006917.5154
 96  2 12 17 22 29.9980000  0  6 29  4 22 19 18 14
  20092151.822    -4753905.96849  -3691902.80849  20092149.4944   20092153.3084
  23982636.874    -3538573.81749  -2751293.34449  23982636.3164   23982639.9584
  20658470.264    -2591159.76249  -2011306.39349  20658468.2304   20658473.5334
  23253244.887    -7674272.54849  -5636792.58049  23253243.1874   23253249.1324
  21593501.100    -7107930.38749  -5518794.41349  21593498.0414   21593503.7714
  20000937.722    -1553100.20449  -1207340.83849  20000935.7384   20000940.8634
 96  2 12 17 22 59.9980000  0  6 29  4 22 19 18 14
  20072437.187    -4857503.48149  -3772628.14049  20072435.5734   20072439.4844
  23968884.150    -3610847.80449  -2807610.74049  23968882.1334   23968886.5044
  20648861.762    -2641657.88249  -2050655.58049  20648858.7424   20648864.0514
  23222155.420    -7837643.11049  -5764094.26049  23222155.4264   23222161.0704
  21564312.343    -7261315.60249  -5638315.34349  21564310.4424   21564315.3084
  19994999.916    -1584301.25149  -1231653.36549  19994998.5254   19995003.6944
 96  2 12 17 23 29.9980000  0  6 29  4 22 19 18 14
  20052704.945    -4961197.21249  -3853428.45149  20052703.2534   20052707.1414
  23955156.274    -3682991.52249  -2863826.62149  23955154.0194   23955159.6684
  20639299.836    -2691902.60349  -2089807.31749  20639297.5264   20639302.9134
  23191035.908    -8001191.83549  -5891534.77549  23191032.7784   23191038.4164
  21535078.584    -7414938.55549  -5758021.52149  21535076.4324   21535081.9804
  19989101.032    -1615301.84249  -1255809.69149  19989099.3444   19989104.7544
 96  2 12 17 23 59.9970000  0  6 29  4 22 19 18 14
  20032957.690    -5064968.51149  -3934289.20649  20032956.2494   20032960.0094
  23941459.840    -3754972.17249  -2919915.44749  23941456.0594   23941461.4374
  20629791.021    -2741874.23749  -2128746.25849  20629788.2804   20629793.8384
  23159880.175    -8164915.97449  -6019111.97249  23159877.0184   23159883.7534
  21505801.155    -7568794.56249  -5877909.30249  21505798.6174   21505804.1074
  19983240.445    -1646100.29449  -1279808.50549  19983238.6084   19983243.8744
 96  2 12 17 24 29.9970000  0  6 29  4 22 19 18 14
  20013195.335    -5168819.23949  -4015211.85149  20013194.0424   20013198.0924
  23927793.958    -3826778.02349  -2975868.07549  23927792.8554   23927798.3354
  20620333.264    -2791575.04949  -2167474.16549  20620330.5364   20620336.1174
  23128690.240    -8328812.29349  -6146823.34349  23128689.2874   23128694.9744
  21476478.419    -7722881.67549  -5997977.16549  21476476.4504   21476481.9544
  19977417.660    -1676696.61349  -1303649.81049  19977415.9744   19977421.5584
 96  2 12 17 24 59.9970000  0  6 29  4 22 19 18 14
  19993420.828    -5272736.59049  -4096186.40749  19993419.1774   19993423.2314
  23914162.965    -3898407.78549  -3031683.49649  23914161.8384   23914167.8714
  20610928.956    -2840993.11449  -2205981.75549  20610926.6944   20610931.9264
  23097475.318    -8492844.89049  -6274640.92949  23097474.7244   23097480.2774
  21447120.037    -7877161.64149  -6118195.30249  21447118.2514   21447123.5214
  19971633.997    -1707091.08549  -1327333.83749  19971632.1534   19971637.8034
 96  2 12 17 25 29.9970000  0  6 29  4 22 19 18 14
  19973632.908    -5376720.11449  -4177212.53649  19973631.8504   19973635.6244
  23900567.934    -3969854.22249  -3087356.07949  23900566.5744   23900571.7774
  20601580.550    -2890117.49849  -2244260.50049  20601578.6564   20601584.1374
  23066238.554    -8657001.05049  -6402554.78149  23066235.8334   23066243.3654
  21417730.281    -8031607.64449  -6238542.82249  21417727.9804   21417733.1934
  19965888.098    -1737287.09449  -1350863.21449  19965886.3084   19965891.5574
 96  2 12 17 25 59.9970000  0  6 29  4 22 19 18 14
  19953833.806    -5480769.16949  -4258289.72549  19953832.1464   19953836.1044
  23887008.349    -4041107.80649  -3142878.37849  23887006.5804   23887012.7824
  20592291.272    -2938937.91749  -2282302.39349  20592288.5964   20592293.6254
  23034979.526    -8821262.21449  -6530550.46149  23034978.0804   23034985.5274
  21388313.915    -8186190.70149  -6358997.13949  21388311.8534   21388316.9914
  19960182.552    -1767267.62249  -1374224.68849  19960180.9004   19960186.4404
 96  2 12 17 26 29.9970000  0  6 29  4 22 19 18 14
  19934021.255    -5584880.63149  -4339415.53749  19934020.2264   19934024.1944
  23873485.389    -4112175.83149  -3198256.08349  23873483.4054   23873488.5984
  20583060.261    -2987450.51249  -2320104.42249  20583057.0414   20583062.1104
  23003704.206    -8985615.03049  -6658617.57749  23003703.1454   23003710.2344
  21358873.096    -8340903.98849  -6479552.92749  21358871.1694   21358876.3144
  19954519.982    -1797025.41949  -1397412.60249  19954518.6384   19954524.0314
 96  2 12 17 26 59.9970000  0  6 29  4 22 19 18 14
  19914200.426    -5689041.08749  -4420579.53249  19914199.0444   19914203.1534
  23859996.080    -4183054.39149  -3253486.15649  23859995.0604   23859999.6294
  20573887.169    -3035647.97349  -2357660.89949  20573885.2594   20573890.5444
  22972409.571    -9150063.34549  -6786759.09949  22972408.8984   22972415.9234
  21329405.152    -8495757.51249  -6600218.00149  21329403.3694   21329408.1524
  19948903.127    -1826543.99549  -1420414.11449  19948901.6494   19948907.1194
 96  2 12 17 27 29.9970000  0  6 29  4 22 19 18 14
  19894376.303    -5793219.77449  -4501757.73049  19894374.8894   19894378.8314
  23846547.437    -4253724.03549  -3308553.42249  23846547.1904   23846552.4034
  20564778.703    -3083513.06649  -2394958.38749  20564776.7404   20564782.0534
  22941098.769    -9314605.51449  -6914973.76849  22941098.2214   22941104.2224
  21299912.740    -8650741.79849  -6720984.96949  21299911.0524   21299915.6224
  19943338.091    -1855787.63349  -1443201.39149  19943336.4904   19943341.9264
 96  2 12 17 27 59.9970000  0  6 29  4 22 19 18 14
  19874552.916    -5897390.31549  -4582929.58349  19874551.5544   19874555.8184
  23833140.818    -4324178.57549  -3363453.09349  23833140.2614   23833144.4534
  20555734.638    -3131041.82949  -2431993.79949  20555732.1244   20555737.8744
  22909773.390    -9479231.98049  -7043254.14249  22909770.8534   22909777.5584
  21270395.995    -8805856.56049  -6841853.60649  21270393.3894   21270398.5034
  19937830.049    -1884733.52549  -1465756.65949  19937828.2984   19937833.6484
 96  2 12 17 28 29.9970000  0  6 29  4 22 19 18 14
  19854736.772    -6001525.80949  -4664074.12349  19854735.4884   19854739.5524
  23819777.259    -4394401.59349  -3418172.33449  23819777.0854   23819781.4484
  20546756.652    -3178222.91049  -2468758.28849  20546753.8234   20546759.4054
  22878428.337    -9643939.96749  -7171598.01349  22878427.0784   22878434.7814
  21240855.546    -8961089.33449  -6962814.19749  21240853.2794   21240858.2904
  19932380.232    -1913371.75849  -1488072.19049  19932378.6874   19932384.1884
 96  2 12 17 28 59.9970000  0  6 29  4 22 19 18 14
  19834934.546    -6105585.50149  -4745159.59449  19834933.1704   19834937.3474
  23806463.953    -4464366.99849  -3472690.83549  23806463.9614   23806467.8784
  20537848.722    -3225030.22049  -2505231.53349  20537846.5584   20537852.3264
  22847077.838    -9808693.65549  -7299977.50649  22847076.0664   22847082.4724
  21211302.149    -9116394.57549  -7083831.26149  21211299.8354   21211304.9084
  19926994.619    -1941671.91949  -1510124.29249  19926993.1184   19926998.7794
 96  2 12 17 29 29.9970000  0  6 29  4 22 19 18 14
  19815142.222    -6209598.23249  -4826208.47549  19815140.6784   19815144.8524
  23793195.652    -4534096.13349  -3527025.24949  23793193.6544   23793198.9144
  20529010.376    -3271477.79949  -2541424.46849  20529007.9784   20529013.1664
  22815713.224    -9973508.92049  -7428404.98149  22815712.6614   22815718.6064
  21181732.767    -9271778.21949  -7204909.40649  21181731.5694   21181736.5244
  19921668.873    -1969660.96749  -1531933.96049  19921667.2254   19921672.6444
 96  2 12 17 29 59.9970000  0  6 29  4 22 19 18 14
  19795360.331    -6313550.27149  -4907210.06549  19795359.1994   19795363.0244
  23779977.801    -4603557.01249  -3581150.63449  23779976.7094   23779981.9644
  20520246.665    -3317532.54049  -2577311.29449  20520244.0754   20520249.6084
  22784345.538   -10138341.93449  -7556846.25549  22784344.8994   22784352.1514
  21152154.457    -9427219.34649  -7326032.35949  21152152.3404   21152156.9614
  19916403.389    -1997329.29449  -1553493.71749  19916402.0724   19916407.6234
 96  2 12 17 30 29.9970000  0  6 29  4 22 19 18 14
  19775585.675    -6417469.10749  -4988185.78349  19775584.0894   19775588.0904
  23766807.374    -4672763.33949  -3635077.66349  23766806.0554   23766813.2834
  20511555.637    -3363204.89549  -2612900.15549  20511553.2804   20511558.3804
  22752975.040   -10303203.44549  -7685309.74849  22752973.8114   22752980.6394
  21122560.763    -9582732.99549  -7447211.81449  21122558.7504   21122563.4714
  19911196.190    -2024694.02549  -1574816.90849  19911194.8124   19911200.4434
 96  2 12 17 30 59.9970000  0  6 29  4 22 19 18 14
  19755815.479    -6521359.18649  -5069139.08549  19755814.3994   19755818.4264
  23753690.650    -4741696.58249  -3688791.88849  23753688.9844   23753694.5694
  20502939.292    -3408481.41049  -2648180.56449  20502937.5684   20502942.8704
  22721600.260   -10468079.42049  -7813784.50949  22721599.1814   22721605.8924
  21092954.626    -9738311.88049  -7568442.10449  21092953.1864   21092958.0494
  19906049.454    -2051742.09149  -1595893.34449  19906048.0094   19906053.3954
 96  2 12 17 31 29.9970000  0  6 29  4 22 19 18 14
  19736049.087    -6625232.47649  -5150079.31649  19736048.0874   19736052.1384
  23740627.100    -4810345.14649  -3742284.30849  23740625.5114   23740632.3984
  20494398.526    -3453367.32249  -2683156.61549  20494395.9614   20494401.2764
  22690218.853   -10632985.20849  -7942282.50849  22690218.6024   22690224.8684
  21063331.763    -9893982.69549  -7689744.03049  21063329.8084   21063334.1244
  19900960.408    -2078485.50249  -1616732.39649  19900958.8314   19900964.4064
 96  2 12 17 31 59.9970000  0  6 29  4 22 19 18 14
  19716290.722    -6729065.36049  -5230988.05849  19716289.4394   19716293.4784
  23727619.185    -4878695.14549  -3795544.08149  23727619.5214   23727626.4534
  20485930.017    -3497867.04949  -2717831.74549  20485928.1854   20485933.3884
  22658835.983   -10797906.11749  -8070792.27949  22658835.3824   22658842.1884
  21033693.178   -10049736.37749  -7811110.52449  21033691.0784   21033696.0564
  19895929.690    -2104921.18149  -1637331.65749  19895928.4404   19895933.8174
 96  2 12 17 32 29.9970000  0  6 29  4 22 19 18 14
  19696541.770    -6832844.76949  -5311855.13049  19696540.6094   19696544.8604
  23714674.599    -4946738.56449  -3848564.96149  23714670.7014   23714676.0034
  20477532.337    -3541998.49249  -2752219.89649  20477530.0724   20477535.3774
  22627448.286   -10962854.61149  -8199323.54549  22627447.0244   22627453.4784
  21004041.289   -10205556.62049  -7932528.87249  21004039.2914   21004043.8504
  19890959.040    -2131042.73549  -1657686.14749  19890957.6134   19890962.9974
 96  2 12 17 32 59.9970000  0  6 29  4 22 19 18 14
  19676803.493    -6936570.23149  -5392680.17249  19676802.3594   19676806.4534
  23701781.443    -5014482.20849  -3901352.23549  23701780.2154   23701784.5644
  20469200.502    -3585785.94949  -2786340.00849  20469197.5224   20469202.7354
  22596051.061   -11127846.26049  -8327888.42949  22596049.2164   22596056.3894
  20974375.535   -10361449.88749  -8054004.13449  20974373.7254   20974378.4314
  19886043.491    -2156872.69749  -1677813.41949  19886042.1334   19886047.4894
 96  2 12 17 33 29.9960000  0  6 29  4 22 19 18 14
  19657083.821    -7040198.36049  -5473429.36249  19657082.6564   19657086.7964
  23688949.367    -5081915.23849  -3953897.48549  23688948.3724   23688952.9414
  20460937.297    -3629204.57549  -2820172.72349  20460935.4354   20460940.4254
  22564652.361   -11292848.82249  -8456461.83449  22564651.4584   22564657.5114
  20944703.688   -10517374.28949  -8175503.65549  20944701.8084   20944706.8324
  19881186.951    -2182392.90849  -1697699.32749  19881186.0044   19881191.2944
 96  2 12 17 33 59.9960000  0  6 29  4 22 19 18 14
  19637385.692    -7143709.97049  -5554087.76749  19637385.0424   19637389.3154
  23676172.831    -5149047.76449  -4006208.59249  23676172.4164   23676176.2024
  20452747.904    -3672241.48449  -2853708.00149  20452745.5984   20452750.6884
  22533254.133   -11457846.88349  -8585031.72649  22533252.9004   22533259.2914
  20915032.079   -10673302.46849  -8297006.11849  20915030.3234   20915034.8644
  19876393.661    -2207581.64049  -1717326.93849  19876392.6334   19876398.2684
 96  2 12 17 34 29.9960000  0  6 29  4 22 19 18 14
  19617711.696    -7247099.32349  -5634650.89949  19617710.6104   19617714.9084
  23663451.964    -5215885.18849  -4058289.70549  23663452.6454   23663458.8904
  20444634.671    -3714874.30649  -2886928.40249  20444633.0764   20444638.1744
  22501857.606   -11622837.29549  -8713595.65649  22501856.5074   22501862.8574
  20885361.900   -10829218.14849  -8418498.84149  20885360.2434   20885364.7534
  19871665.727    -2232426.96549  -1736686.95749  19871664.7954   19871670.1154
 96  2 12 17 34 59.9960000  0  6 29  4 22 19 18 14
  19598060.456    -7350368.03549  -5715120.02649  19598059.4024   19598063.3114
  23650788.004    -5282441.99549  -4110152.18949  23650789.5034   23650794.2914
  20436603.534    -3757077.73949  -2919814.20849  20436601.6654   20436607.1904
  22470463.669   -11787812.98649  -8842148.11349  22470462.3164   22470468.8414
  20855694.190   -10985124.59349  -8539984.36749  20855692.3844   20855697.0334
  19867004.615    -2256922.79249  -1755774.63649  19867003.4054   19867008.8164
 96  2 12 17 35 29.9960000  0  6 29  4 22 19 18 14
  19578436.888    -7453488.39849  -5795473.55449  19578436.0184   19578440.1794
  23638180.368    -5348703.09349  -4161784.22849  23638179.2464   23638184.7734
  20428662.872    -3798812.22249  -2952334.60649  20428660.2874   20428665.5504
  22439079.267   -11952736.81049  -8970660.16249  22439078.4824   22439085.0504
  20826033.197   -11140991.73849  -8661439.27249  20826031.5344   20826036.3174
  19862416.592    -2281032.21449  -1774561.23149  19862415.4724   19862421.1504
 96  2 12 17 35 59.9960000  0  6 29  4 22 19 18 14
  19558835.993    -7556493.71649  -5875737.43649  19558835.0544   19558839.0304
  23625624.921    -5414678.81049  -4213193.89849  23625625.2834   23625631.2754
  20420802.994    -3840114.77149  -2984518.42849  20420800.5224   20420806.0634
  22407702.737   -12117627.08849  -9099146.05349  22407700.8724   22407707.5234
  20796374.616   -11296849.36649  -8782886.76349  20796372.8614   20796377.7244
  19857899.868    -2304768.45649  -1793057.04049  19857898.9684   19857904.2434
 96  2 12 17 36 29.9960000  0  6 29  4 22 19 18 14
  19539257.359    -7659379.46149  -5955908.15149  19539256.5644   19539260.4844
  23613132.685    -5480334.32749  -4264354.08149  23613131.4334   23613138.0254
  20413026.320    -3880978.72349  -3016360.48449  20413024.4674   20413029.8314
  22376333.786   -12282467.98149  -9227593.47649  22376332.6884   22376338.6024
  20766718.493   -11452693.63749  -8904323.84749  20766716.6724   20766721.4094
  19853457.911    -2328112.80049  -1811247.46549  19853456.5894   19853461.9464
 96  2 12 17 36 59.9960000  0  6 29  4 22 19 18 14
  19519701.751    -7762145.27949  -6035985.41249  19519700.7494   19519704.7614
  23600702.562    -5545646.44849  -4315246.69549  23600703.6374   23600708.5504
  20405331.152    -3921419.86049  -3047873.07049  20405328.3774   20405334.0814
  22344979.063   -12447235.73449  -9355983.91349  22344978.0124   22344984.7584
  20737064.509   -11608524.61149  -9025750.56649  20737063.0284   20737067.7564
  19849091.510    -2351057.73749  -1829126.66849  19849090.4284   19849095.5044
 96  2 12 17 37 29.9960000  0  6 29  4 22 19 18 14
  19500168.676    -7864792.60049  -6115970.33949  19500167.6604   19500171.7634
  23588339.232    -5610618.91749  -4365874.61749  23588339.6094   23588346.0554
  20397709.930    -3961463.92449  -3079076.25149  20397708.6004   20397714.0074
  22313638.703   -12611930.14549  -9484317.19049  22313638.1934   22313644.1704
  20707412.396   -11764347.17349  -9147170.73349  20707410.9874   20707415.7984
  19844798.339    -2373616.77749  -1846705.17449  19844797.2484   19844802.7884
 96  2 12 17 37 59.9960000  0  6 29  4 22 19 18 14
  19480659.045    -7967317.10349  -6195859.56649  19480657.7704   19480662.0194
  23576041.364    -5675243.97749  -4416231.86549  23576040.6604   23576046.8204
  20390165.852    -4001111.20149  -3109970.24549  20390163.9594   20390169.2084
  22282311.990   -12776554.24749  -9612595.67949  22282311.3074   22282317.3694
  20677764.114   -11920150.45549  -9268575.88349  20677762.3084   20677766.9064
  19840579.539    -2395787.74349  -1863981.28949  19840578.4174   19840583.9874
 96  2 12 17 38 29.9960000  0  6 29  4 22 19 18 14
  19461178.007    -8069691.50449  -6275631.82749  19461176.6494   19461180.6144
  23563809.317    -5739520.71349  -4466317.66249  23563809.7134   23563814.5224
  20382701.285    -4040333.94849  -3140533.43349  20382700.0154   20382705.6354
  22250999.663   -12941100.19349  -9740813.28449  22250999.5314   22251005.4714
  20648123.484   -12075913.70849  -9389949.83749  20648121.6704   20648126.3244
  19836434.734    -2417568.84049  -1880953.59849  19836433.7614   19836439.2094
 96  2 12 17 38 59.9960000  0  6 29  4 22 19 18 14
  19441727.487    -8171900.84449  -6355275.47149  19441726.8064   19441731.2304
  23551642.060    -5803466.79349  -4516145.79249  23551640.0594   23551647.1294
  20375320.074    -4079127.20349  -3170761.94449  20375318.1654   20375323.8114
  22219701.608   -13105577.19749  -9868977.15249  22219700.2334   22219706.0574
  20618491.800   -12231627.96849  -9511285.61749  20618490.4454   20618495.1754
  19832360.844    -2438976.54249  -1897634.95849  19832359.8014   19832365.4424
 96  2 12 17 39 29.9960000  0  6 29  4 22 19 18 14
  19422313.750    -8273921.09049  -6434771.77749  19422313.0254   19422317.2214
  23539538.126    -5867080.96349  -4565715.31049  23539535.8164   23539541.1544
  20368026.842    -4117455.46049  -3200628.12749  20368024.5794   20368029.9554
  22188412.067   -13269991.75049  -9997092.35549  22188412.7394   22188419.6874
  20588875.614   -12387263.60949  -9632560.13649  20588874.1404   20588878.6104
  19828360.166    -2460001.86449  -1914018.36249  19828359.0104   19828364.5814
 96  2 12 17 39 59.9960000  0  6 29  4 22 19 18 14
  19402937.910    -8375741.17049  -6514112.09849  19402937.2984   19402941.6124
  23527496.317    -5930345.76949  -4615012.55949  23527496.6674   23527500.7164
  20360823.026    -4155307.66649  -3230123.35649  20360821.4204   20360827.0364
  22157137.440   -13434342.40449 -10125157.76349  22157137.7094   22157145.1004
  20559275.981   -12542807.89649  -9753763.47449  20559274.9054   20559279.0894
  19824431.766    -2480646.18549  -1930104.87149  19824430.7684   19824436.1424
 96  2 12 17 40 29.9960000  0  6 29  4 22 19 18 14
  19383601.769    -8477355.40249  -6593292.01849  19383600.8704   19383604.9154
  23515524.801    -5993263.23249  -4664039.16649  23515524.4974   23515530.3194
  20353708.781    -4192695.54449  -3259256.76349  20353706.7164   20353712.0154
  22125874.533   -13598633.67149 -10253176.90949  22125873.5634   22125881.1274
  20529692.210   -12698275.45949  -9874907.02249  20529690.4774   20529695.0714
  19820573.252    -2500923.18349  -1945905.16149  19820572.2064   19820577.8084
 96  2 12 17 40 59.9960000  0  6 29  4 22 19 18 14
  19364301.013    -8578780.23549  -6672324.35749  19364300.2184   19364304.1524
  23503616.665    -6055847.48749  -4712806.14249  23503614.8314   23503620.8614
  20346679.413    -4229635.29349  -3288040.98249  20346677.6244   20346682.4874
  22094620.339   -13762876.38549 -10381158.23749  22094619.5794   22094627.3394
  20500120.333   -12853674.44549  -9995997.13249  20500118.9034   20500123.7074
  19816783.147    -2520842.34849  -1961426.61349  19816781.6084   19816787.0314
 96  2 12 17 41 29.9960000  0  6 29  4 22 19 18 14
  19345035.485    -8680022.41849  -6751214.38249  19345034.5964   19345038.6924
  23491767.590    -6118107.75749  -4761320.64549  23491766.8834   23491773.8944
  20339733.578    -4266137.33649  -3316484.13849  20339731.4284   20339736.4024
  22063375.701   -13927070.73449 -10509101.85949  22063374.7984   22063381.6954
  20470562.003   -13009008.91749 -10117036.97949  20470560.1424   20470564.5134
  19813059.100    -2540405.58149  -1976670.71849  19813058.7044   19813064.3094
 96  2 12 17 41 59.9960000  0  6 29  4 22 19 18 14
  19325808.680    -8781060.19549  -6829945.12449  19325807.7234   19325812.0044
  23479984.351    -6180032.18449  -4809573.48249  23479983.0654   23479989.9234
  20332869.341    -4302208.45349  -3344591.50549  20332867.4164   20332872.5174
  22032146.481   -14091176.25649 -10636976.29149  22032146.6184   22032152.7064
  20441016.721   -13164268.33049 -10238018.33049  20441015.2594   20441019.3134
  19809410.574    -2559585.28449  -1991615.97149  19809409.1304   19809414.7674
 96  2 12 17 42 29.9960000  0  6 29  4 22 19 18 14
  19306618.458    -8881905.21649  -6908525.67049  19306617.7244   19306621.7384
  23468261.099    -6241632.76449  -4857573.97449  23468260.3624   23468268.3994
  20326086.436    -4337849.14849  -3372363.47549  20326084.7084   20326090.1774
  22000936.561   -14255189.63649 -10764778.92949  22000935.8754   22000940.9594
  20411485.401   -13319457.71849 -10358945.12249  20411483.6504   20411488.1374
  19805836.207    -2578367.72849  -2006251.67149  19805835.1604   19805840.7284
 96  2 12 17 42 59.9950000  0  6 29  4 22 19 18 14
  19287469.921    -8982531.26249  -6986935.57949  19287469.1054   19287473.1224
  23456605.778    -6302880.40949  -4905299.44349  23456605.9944   23456610.9334
  20319394.807    -4373015.02649  -3399765.45549  20319392.8244   20319397.9564
  21969753.254   -14419063.35149 -10892472.71649  21969751.6464   21969758.0454
  20381975.622   -13474531.03049 -10479781.45749  20381973.7544   20381978.2444
  19802344.685    -2596715.06249  -2020548.32049  19802343.9134   19802349.0094
 96  2 12 17 43 29.9950000  0  6 29  4 22 19 18 14
  19268363.461    -9082937.38949  -7065174.12649  19268362.3864   19268366.7264
  23445020.735    -6363765.12249  -4952742.09349  23445020.8374   23445026.1614
  20312790.696    -4407721.63749  -3426809.56349  20312788.5254   20312793.7124
  21938595.047   -14582799.06049 -11020058.96749  21938593.8954   21938600.6034
  20352485.739   -13629503.24049 -10600539.01949  20352483.9494   20352488.1784
  19798936.213    -2614628.39049  -2034506.78149  19798934.9824   19798940.5254
 96  2 12 17 43 59.9950000  0  6 29  4 22 19 18 14
  19249292.368    -9183154.25349  -7143265.19849  19249291.9764   19249296.0504
  23433502.272    -6424295.46849  -4999908.62949  23433501.2014   23433508.0584
  20306270.296    -4441990.13449  -3453512.28649  20306268.0324   20306272.9224
  21907459.469   -14746416.12349 -11147552.78649  21907459.1784   21907465.2874
  20323009.473   -13784400.99549 -10721238.56149  20323008.0764   20323012.5554
  19795604.202    -2632138.21649  -2048150.83349  19795602.8894   19795608.4034
 96  2 12 17 44 29.9950000  0  6 29  4 22 19 18 14
  19230262.343    -9283159.03849  -7221191.01249  19230261.6134   19230265.8364
  23422056.515    -6484437.85349  -5046772.84749  23422056.5694   23422060.6624
  20299839.586    -4475781.56049  -3479843.27149  20299837.6034   20299842.8494
  21876350.530   -14909899.85949 -11274942.68249  21876348.7974   21876354.8274
  20293552.856   -13939198.01049 -10841859.60049  20293551.1284   20293555.4954
  19792349.446    -2649240.34149  -2061477.19449  19792348.5394   19792354.0754
 96  2 12 17 44 59.9950000  0  6 29  4 22 19 18 14
  19211274.729    -9382938.90149  -7298941.56949  19211273.9354   19211278.0874
  23410686.948    -6544194.71849  -5093336.65749  23410685.9874   23410691.6394
  20293497.999    -4509104.50649  -3505809.21249  20293496.6804   20293501.4204
  21845265.060   -15073245.96249 -11402225.33549  21845265.3334   21845271.3494
  20264116.467   -14093886.39349 -10962395.99649  20264114.4254   20264119.1954
  19789169.172    -2665953.58449  -2074500.53249  19789167.8174   19789173.7664
 96  2 12 17 45 29.9950000  0  6 29  4 22 19 18 14
  19192331.709    -9482487.73249  -7376512.09649  19192330.7294   19192334.8744
  23399389.821    -6603556.54149  -5139592.65649  23399389.2814   23399394.9984
  20287245.171    -4541959.70849  -3531410.68649  20287243.9874   20287249.3824
  21814206.948   -15236455.24149 -11529401.37349  21814207.6714   21814213.8734
  20234700.493   -14248467.88549 -11082849.10249  20234698.6254   20234703.4684
  19786063.228    -2682276.55249  -2087219.76149  19786061.8034   19786067.7844
 96  2 12 17 45 59.9950000  0  6 29  4 22 19 18 14
  19173431.057    -9581810.34849  -7453906.34949  19173430.2454   19173434.3084
  23388167.366    -6662538.15649  -5185552.37649  23388165.6094   23388170.3164
  20281086.264    -4574334.86149  -3556638.08949  20281083.6304   20281088.4514
  21783176.717   -15399524.01049 -11656467.92149  21783176.2734   21783182.8274
  20205305.679   -14402937.18549 -11203214.78949  20205304.5414   20205308.7534
  19783031.224    -2698207.61049  -2099633.60549  19783030.3854   19783036.2314
 96  2 12 17 46 29.9950000  0  6 29  4 22 19 18 14
  19154569.474    -9680930.13849  -7531142.55749  19154568.4434   19154572.5904
  23377005.810    -6721182.86549  -5231249.57549  23377006.3744   23377012.6424
  20275010.342    -4606260.98449  -3581515.60749  20275007.8504   20275013.3604
  21752166.663   -15562483.31849 -11783449.16649  21752165.9344   21752172.2614
  20175929.136   -14557312.89649 -11323507.54649  20175927.1834   20175932.2684
  19780068.728    -2713775.57249  -2111764.50749  19780067.9714   19780073.5274
 96  2 12 17 46 59.9950000  0  6 29  4 22 19 18 14
  19135751.354    -9779817.87749  -7608197.94649  19135750.8284   19135754.8454
  23365917.953    -6779456.48749  -5276657.65149  23365918.3904   23365923.3864
  20269025.666    -4637702.01449  -3606015.13149  20269024.9164   20269030.6284
  21721184.097   -15725304.12349 -11910322.50849  21721183.5134   21721188.9794
  20146577.777   -14711554.34449 -11443695.68049  20146576.3724   20146580.9584
  19777184.245    -2728934.42949  -2123576.62649  19777183.2034   19777189.0684
 96  2 12 17 47 29.9950000  0  6 29  4 22 19 18 14
  19116975.076    -9878489.44549  -7685084.88949  19116974.0214   19116978.1764
  23354895.983    -6837380.23649  -5321793.05949  23354894.7804   23354900.8994
  20263132.396    -4668676.91949  -3630151.43849  20263130.8104   20263136.1094
  21690221.350   -15888007.51049 -12037104.34249  21690221.0144   21690227.5054
  20117248.503   -14865679.01449 -11563792.81849  20117247.4604   20117252.3464
  19774377.181    -2743687.68849  -2135072.70949  19774375.8734   19774381.5064
 96  2 12 17 47 59.9950000  0  6 29  4 22 19 18 14
  19098241.923    -9976932.34849  -7761793.65149  19098240.8834   19098245.1684
  23343942.765    -6894948.43149  -5366651.42849  23343939.8044   23343946.1844
  20257328.191    -4699185.38349  -3653924.28649  20257325.2504   20257330.3964
  21659284.525   -16050585.47649 -12163788.43149  21659283.2034   21659289.4994
  20087948.177   -15019655.77249 -11683774.69549  20087947.1084   20087951.5604
  19771647.838    -2758030.50349  -2146248.95849  19771646.7844   19771652.5724
 96  2 12 17 48 29.9950000  0  6 29  4 22 19 18 14
  19079553.119   -10075142.25849  -7838320.86149  19079552.3424   19079556.5094
  23333054.350    -6952152.80049  -5411226.30649  23333055.0824   23333060.5744
  20251610.392    -4729227.46849  -3677333.72549  20251608.2844   20251613.9074
  21628368.386   -16213042.59549 -12290378.37649  21628368.7594   21628374.8664
  20058676.113   -15173480.22949 -11803637.90949  20058674.7134   20058679.7374
  19768996.308    -2771963.59149  -2157105.94449  19768995.0454   19769000.8694
 96  2 12 17 48 59.9950000  0  6 29  4 22 19 18 14
  19060908.674   -10173117.56149  -7914665.26549  19060908.0484   19060912.0014
  23322235.648    -7009002.60449  -5455524.89449  23322234.8594   23322240.8684
  20245979.620    -4758818.53949  -3700391.72649  20245977.5614   20245983.0614
  21597477.798   -16375371.37949 -12416868.29549  21597478.1954   21597485.5114
  20029431.481   -15327164.04049 -11923391.52049  20029429.5864   20029434.5514
  19766421.287    -2785494.28349  -2167649.37449  19766420.6324   19766426.3514
 96  2 12 17 49 29.9950000  0  6 29  4 22 19 18 14
  19042309.479   -10270855.66849  -7990824.83849  19042309.2094   19042313.2194
  23311484.294    -7065503.98749  -5499551.98449  23311484.0764   23311489.6824
  20240432.871    -4787967.88049  -3723105.51749  20240430.4854   20240435.8244
  21566615.778   -16537559.38249 -12543248.52549  21566615.2774   21566622.6264
  20000211.606   -15480713.36649 -12043040.34549  20000210.1764   20000214.8294
  19763923.152    -2798623.98549  -2177880.34549  19763921.8574   19763928.0394
 96  2 12 17 49 59.9950000  0  6 29  4 22 19 18 14
  19023755.319   -10368363.03949  -8066804.61349  19023754.3354   19023758.3964
  23300799.257    -7121654.81249  -5543305.91349  23300798.4334   23300804.6794
  20234968.480    -4816675.79649  -3745475.33449  20234967.5974   20234972.8934
  21535778.458   -16699610.03049 -12669521.72549  21535777.6504   21535784.3914
  19971017.051   -15634130.12049 -12162585.85949  19971016.2654   19971021.1824
  19761498.247    -2811366.72149  -2187809.78249  19761497.0514   19761502.9154
 96  2 12 17 50 29.9950000  0  6 29  4 22 19 18 14
  19005245.400   -10465629.46549  -8142596.63949  19005244.9564   19005249.2764
  23290179.268    -7177462.95049  -5586792.81649  23290179.2414   23290183.7594
  20229591.719    -4844935.48149  -3767495.88249  20229590.0854   20229595.6244
  21504968.468   -16861518.65549 -12795684.26549  21504967.8804   21504974.5334
  19941844.651   -15787434.00349 -12282043.42749  19941843.1484   19941848.1194
  19759146.668    -2823721.96449  -2197437.27549  19759145.8214   19759151.6114
 96  2 12 17 50 59.9950000  0  6 29  4 22 19 18 14
  18986782.570   -10562655.87149  -8218201.63849  18986781.5624   18986785.7924
  23279623.710    -7232931.81449  -5630015.31649  23279622.6354   23279628.5474
  20224298.104    -4872756.15849  -3789174.34249  20224295.8694   20224301.5004
  21474184.316   -17023292.78949 -12921742.00949  21474183.7324   21474189.9394
  19912692.728   -15940629.55349 -12401416.57649  19912691.1384   19912695.9744
  19756867.628    -2835701.03549  -2206771.64849  19756866.7224   19756871.9374
 96  2 12 17 51 29.9950000  0  6 29  4 22 19 18 14
  18968363.825   -10659446.37049  -8293622.81449  18968362.8804   18968367.3474
  23269131.398    -7288065.62949  -5672976.75849  23269131.8144   23269139.1114
  20219086.234    -4900142.10349  -3810514.04649  20219084.8224   20219089.6314
  21443420.027   -17184958.69249 -13047715.41049  21443419.2884   21443425.6924
  19883562.509   -16093709.68849 -12520699.78749  19883561.0334   19883565.8254
  19754658.063    -2847311.07549  -2215818.46149  19754656.7474   19754663.3644
 96  2 12 17 51 59.9940000  0  6 29  4 22 19 18 14
  18949997.715   -10755961.06749  -8368829.08149  18949996.8084   18950001.2814
  23258711.002    -7342842.51249  -5715660.08149  23258708.6234   23258714.1654
  20213962.362    -4927065.55549  -3831493.37649  20213961.0554   20213966.3844
  21412679.768   -17346497.13549 -13173589.50749  21412679.5354   21412685.9304
  19854462.170   -16246631.93949 -12639859.98149  19854461.0414   19854465.5664
  19752522.460    -2858535.29449  -2224564.63949  19752521.4104   19752526.9724
 96  2 12 17 52 29.9940000  0  6 29  4 22 19 18 14
  18931682.678   -10852207.22149  -8443826.08849  18931681.6594   18931686.1214
  23248351.502    -7397267.07649  -5758068.84649  23248351.4104   23248357.3674
  20208927.152    -4953531.45749  -3852116.16949  20208924.8044   20208930.0514
  21381962.122   -17507918.93649 -13299372.70449  21381961.3804   21381968.6524
  19825392.220   -16399396.23949 -12758897.09249  19825390.8584   19825395.4394
  19750460.085    -2869371.53049  -2233008.48249  19750459.2304   19750464.9164
 96  2 12 17 52 59.9940000  0  5 29 22 19 18 14
  18913413.959   -10948207.83249  -8518631.76149  18913413.4604   18913417.7094
  20203973.652    -4979566.53849  -3872403.25449  20203970.6624   20203975.7734
  21351265.777   -17669234.43349 -13425073.08949  21351264.8204   21351270.1504
  19796354.069   -16551991.95249 -12877802.83949  19796352.9914   19796357.4994
  19748468.753    -2879834.51949  -2241161.49849  19748468.3374   19748474.1304
 96  2 12 17 53 29.9940000  0  5 29 22 19 18 14
  18895196.348   -11043947.46849  -8593234.08549  18895194.9804   18895199.0224
  20199100.731    -5005167.51349  -3892352.07349  20199098.8704   20199104.2734
  21320590.402   -17830428.00949 -13550678.46949  21320589.7424   21320595.7454
  19767350.491   -16704406.88049 -12996567.71749  19767349.1634   19767353.7944
  19746551.388    -2889915.09149  -2249016.52749  19746550.3624   19746556.2204
 96  2 12 17 53 59.9940000  0  5 29 22 19 18 14
  18877022.825   -11139442.96549  -8667646.16649  18877022.5424   18877026.9174
  20194307.580    -5030350.93349  -3911975.52549  20194306.3944   20194311.9844
  21289940.862   -17991493.23649 -13676183.83549  21289940.5304   21289946.2274
  19738378.391   -16856657.59549 -13115204.63449  19738376.8264   19738381.2984
  19744703.216    -2899623.79449  -2256581.77649  19744702.7304   19744708.4304
 96  2 12 17 54 29.9940000  0  5 29 22 19 18 14
  18858899.592   -11234685.92249  -8741861.46549  18858898.5444   18858902.6984
  20189596.458    -5055117.19249  -3931273.92449  20189593.5404   20189598.8364
  21259320.624   -18152405.30649 -13801569.84549  21259319.7074   21259325.6424
  19709436.794   -17008747.62749 -13233716.34049  19709435.1074   19709439.9214
  19742928.638    -2908952.94549  -2263851.28349  19742927.7624   19742933.2934
 96  2 12 17 54 59.9940000  0  5 29 22 19 18 14
  18840825.715   -11329661.62849  -8815868.50949  18840825.3294   18840829.5104
  20184964.108    -5079455.32749  -3950238.71549  20184962.1754   20184967.5534
  21228731.739   -18313154.44549 -13926828.89849  21228729.6494   21228737.0844
  19680523.837   -17160686.74849 -13352110.45849  19680521.9314   19680526.8254
  19741225.651    -2917900.34849  -2270823.31749  19741224.6444   19741230.9014
 96  2 12 17 55 29.9940000  0  5 29 22 19 18 14
  18822805.296   -11424359.90349  -8889659.37849  18822804.9934   18822809.1414
  20180416.265    -5103354.72849  -3968861.64349  20180414.6854   20180420.0594
  21198174.362   -18473738.40849 -14051959.23749  21198173.0564   21198178.6244
  19651636.494   -17312486.20149 -13470395.74749  19651635.7924   19651640.3704
  19739596.073    -2926466.34049  -2277498.15549  19739595.1214   19739600.2884
 96  2 12 17 55 59.9940000  0  5 29 22 19 18 14
  18804839.166   -11518777.77849  -8963231.75349  18804837.7294   18804841.9834
  20175953.673    -5126803.33449  -3987133.29249  20175952.8094   20175958.0744
  21167646.972   -18634154.84149 -14176959.03449  21167645.9854   21167652.2844
  19622778.607   -17464137.87149 -13588565.87549  19622777.2454   19622781.9504
  19738039.325    -2934647.88949  -2283873.41749  19738038.1724   19738043.6504
 96  2 12 17 56 29.9940000  0  5 29 22 19 18 14
  18786925.431   -11612908.67349  -9036580.51149  18786924.9724   18786929.5274
  20171579.288    -5149794.31749  -4005048.35649  20171577.5364   20171582.6714
  21137151.294   -18794405.78049 -14301829.87749  21137151.0344   21137157.7774
  19593948.845   -17615638.11149 -13706618.00549  19593947.9464   19593952.5904
  19736554.397    -2942446.69449  -2289950.44549  19736553.6344   19736559.7224
 96  2 12 17 56 59.9940000  0  6 29 28 22 19 18 14
  18769069.951   -11706743.40749  -9109698.50049  18769068.9954   18769073.2374
  23064748.876   -11667350.77319  -9054032.29919  23064745.758    23064751.486
  20167295.680    -5172308.92349  -4022592.21549  20167293.2564   20167298.5334
  21106688.863   -18954491.19949 -14426571.74149  21106688.5684   21106694.5754
  19565154.779   -17766952.01949 -13824524.94649  19565153.8384   19565158.2214
  19735145.760    -2949853.48249  -2295722.00149  19735144.4994   19735149.6714
 96  2 12 17 57 29.9940000  0  6 29 28 22 19 18 14
  18751270.171   -11800279.47549  -9182583.76349  18751269.7194   18751273.9044
  23033899.099   -11829447.898 9  -9180341.564 9  23033898.294    23033906.340
  20163098.094    -5194361.28449  -4039775.88449  20163096.8934   20163101.9724
  21076256.811   -19114415.00849 -14551187.67149  21076255.9694   21076261.5904
  19536399.249   -17918065.58649 -13942275.77849  19536397.8294   19536402.3514
  19733809.833    -2956870.08149  -2301189.52149  19733809.0324   19733815.3484
 96  2 12 17 57 59.9940000  0  6 29 28 22 19 18 14
  18733524.382   -11893531.28649  -9255247.52049  18733524.2064   18733528.6574
  23003066.283   -11991477.062 9  -9306597.893 9  23003064.957    23003073.212
  20158984.793    -5215974.33349  -4056617.23149  20158983.8234   20158989.4464
  21045853.838   -19274187.67949 -14675685.82949  21045852.7054   21045858.4814
  19507681.214   -18068980.20349 -14059871.57349  19507679.7704   19507684.4864
  19732546.838    -2963507.76349  -2306361.76749  19732546.0134   19732552.0184
 96  2 12 17 58 29.9940000  0  6 29 28 22 19 18 14
  18715833.694   -11986503.24449  -9327693.21049  18715832.5584   18715836.6624
  22972248.827   -12153435.002 9  -9432798.751 9  22972246.250    22972253.334
  20154954.636    -5237163.29049  -4073128.12149  20154951.6794   20154957.1724
  21015478.340   -19433807.11549 -14800064.59049  21015478.0334   21015482.9484
  19479000.874   -18219695.13949 -14177311.78449  19478999.7054   19479004.3414
  19731354.911    -2969771.50049  -2311242.63849  19731353.7344   19731359.8004
 96  2 12 17 58 59.9940000  0  6 29 28 22 19 18 14
  18698192.890   -12079203.45549  -9399927.15549  18698192.4144   18698196.4894
  22941441.923   -12315316.418 9  -9558940.005 9  22941442.052    22941448.662
  20151003.425    -5257926.27749  -4089307.09649  20151000.5214   20151006.1304
  20985130.687   -19593285.08549 -14924333.12049  20985129.6834   20985135.6104
  19450358.125   -18370212.89349 -14294598.34349  19450356.9644   19450361.6934
  19730233.577    -2975666.27749  -2315836.01549  19730232.6704   19730238.7284
 96  2 12 17 59 29.9940000  0  6 29 28 22 19 18 14
  18680602.281   -12171641.73849  -9471956.98949  18680601.8734   18680606.0404
  22910651.982   -12477119.970 9  -9685020.578 9  22910651.197    22910658.461
  20147129.010    -5278278.17349  -4105165.72749  20147127.7124   20147133.3814
  20954810.718   -19752615.43249 -15048486.61449  20954809.9184   20954815.4344
  19421749.703   -18520551.27249 -14411745.12349  19421748.4784   19421753.3954
  19729181.203    -2981195.08449  -2320144.20749  19729180.1434   19729186.7724
 96  2 12 17 59 59.9940000  0  6 29 28 22 19 18 14
  18663060.319   -12263827.33649  -9543789.93949  18663059.6674   18663063.7274
  22879879.680   -12638842.714 9  -9811038.217 9  22879875.945    22879883.389
  20143334.938    -5298213.49549  -4120699.76749  20143334.5274   20143340.0144
  20924520.202   -19911792.49849 -15172520.66249  20924519.6904   20924525.2994
  19393175.241   -18670711.73449 -14528753.27849  19393173.8734   19393178.8464
  19728197.861    -2986362.98249  -2324171.18449  19728196.9784   19728203.2174
 96  2 12 18  0 29.9940000  0  6 29 28 22 19 18 14
  18645568.920   -12355744.01349  -9615413.33849  18645568.2594   18645572.7484
  22849122.817   -12800467.872 9  -9936979.843 9  22849119.976    22849127.521
  20139627.201    -5317702.33749  -4135885.89449  20139625.9254   20139631.3454
  20894261.879   -20070799.22849 -15296421.99049  20894262.1034   20894266.9684
  19364638.098   -18820675.82249 -14645608.41249  19364636.6504   19364641.5214
  19727285.003    -2991159.86949  -2327909.06149  19727284.5934   19727290.1534
 96  2 12 18  0 59.9930000  0  6 29 28 22 19 18 14
  18628129.595   -12447389.44349  -9686825.36749  18628128.8704   18628133.2584
  22818383.921   -12961988.783 9 -10062840.209 9  22818383.367    22818390.577
  20136004.730    -5336742.46649  -4150722.38049  20136002.3644   20136008.5654
  20864038.629   -20229623.49449 -15420181.12249  20864038.2814   20864044.3384
  19336137.892   -18970445.26249 -14762311.86849  19336136.5024   19336141.6784
  19726441.200    -2995593.92049  -2331364.20149  19726440.5264   19726446.3784
 96  2 12 18  1 29.9930000  0  6 29 28 22 19 18 14
  18610744.334   -12538748.99149  -9758014.63849  18610743.7924   18610748.0914
  22787665.955   -13123407.453 9 -10188620.927 9  22787666.352    22787673.095
  20132465.285    -5355342.42349  -4165215.87149  20132462.9994   20132468.5294
  20833852.474   -20388251.68549 -15543787.48549  20833852.1104   20833858.2554
  19307676.420   -19120008.84049 -14878854.91449  19307675.7194   19307680.1784
  19725668.127    -2999658.66349  -2334531.56749  19725667.5514   19725672.7534
 96  2 12 18  1 59.9930000  0  6 29 28 22 19 18 14
  18593415.719   -12629809.86849  -9828971.18549  18593415.3934   18593419.7274
  22756968.312   -13284723.706 9 -10314321.816 9  22756968.743    22756975.637
  20129008.656    -5373503.11349  -4179367.08149  20129007.4784   20129012.8844
  20803703.295   -20546690.81149 -15667246.52549  20803703.2804   20803707.8514
  19279256.736   -19269357.69949 -14995230.64949  19279255.4984   19279260.4064
  19724961.584    -3003369.65049  -2337423.28349  19724961.2954   19724966.9624
 96  2 12 18  2 29.9930000  0  6 29 28 22 19 18 14
  18576145.995   -12720566.36649  -9899690.55649  18576145.2544   18576149.4494
  22726291.449   -13445951.487 9 -10439953.752 9  22726288.189    22726293.873
  20125630.585    -5391252.92149  -4193198.10949  20125629.8784   20125635.0514
  20773586.639   -20704957.21249 -15790570.95749  20773585.9334   20773591.1824
  19250876.357   -19418498.48449 -15111444.25049  19250874.7434   19250879.6744
  19724318.843    -3006748.24349  -2340055.98449  19724317.8944   19724324.0924
 96  2 12 18  2 59.9930000  0  6 29 28 22 19 18 14
  18558941.550   -12810974.98149  -9970138.84649  18558940.7784   18558945.1244
  22695632.437   -13607054.400 9 -10565488.418 9  22695631.605    22695636.681
  20122335.943    -5408576.25549  -4206696.83049  20122333.2564   20122338.5604
  20743508.491   -20863018.40249 -15913735.49249  20743507.8904   20743512.2814
  19222541.673   -19567397.39649 -15227469.38049  19222540.1574   19222545.1194
  19723745.606    -3009760.58149  -2342403.29649  19723745.2804   19723750.9074
 96  2 12 18  3 29.9930000  0  6 29 28 22 19 18 14
  18541799.992   -12901050.97549 -10040327.94449  18541799.8934   18541804.3684
  22664997.592   -13768048.647 9 -10690938.379 9  22664994.706    22665000.957
  20119117.262    -5425495.37449  -4219880.57549  20119113.7014   20119118.7844
  20713460.863   -21020916.52749 -16036772.95949  20713460.5294   20713466.0394
  19194250.840   -19716066.81849 -15343315.68049  19194249.3474   19194254.6474
  19723240.093    -3012418.16149  -2344474.16649  19723239.3004   19723245.1754
 96  2 12 18  3 59.9930000  0  6 29 28 22 19 18 14
  18524725.799   -12990782.00849 -10110248.24949  18524724.6554   18524729.1344
  22634383.479   -13928916.314 9 -10816289.704 9  22634382.428    22634389.172
  20115975.366    -5441997.59049  -4232739.47049  20115973.5554   20115978.6214
  20683444.137   -21178653.93349 -16159685.19249  20683443.3774   20683449.7224
  19166004.022   -19864505.99249 -15458982.57649  19166002.7334   19166007.5824
  19722803.186    -3014711.13149  -2346260.93449  19722803.0514   19722808.9324
 96  2 12 18  4 29.9930000  0  6 29 28 22 19 18 14
  18507712.871   -13080183.77049 -10179911.97549  18507712.3814   18507716.6264
  22603795.935   -14089655.982 9 -10941541.273 9  22603794.805    22603801.516
  20112911.936    -5458086.13549  -4245276.02249  20112911.8704   20112917.2754
  20653458.553   -21336228.43749 -16282470.49049  20653458.5504   20653463.8564
  19137798.911   -20012723.41749 -15574476.68249  19137797.7714   19137802.5544
  19722438.493    -3016630.32449  -2347756.44449  19722437.5894   19722443.8414
 96  2 12 18  4 59.9930000  0  6 29 28 22 19 18 14
  18490760.584   -13169267.19649 -10249327.64649  18490760.1244   18490764.5134
  22573235.820   -14250252.927 9 -11066681.657 9  22573234.324    22573240.067
  20109935.098    -5473737.56549  -4257471.96249  20109933.4654   20109938.4974
  20623507.879   -21493624.57349 -16405116.78749  20623507.0944   20623512.3774
  19109636.783   -20160714.52349 -15689794.42849  19109635.8244   19109640.6574
  19722147.093    -3018160.95949  -2348949.18749  19722146.3564   19722152.1294
 96  2 12 18  5 29.9930000  0  6 29 28 22 19 18 14
  18473864.861   -13258060.07749 -10318516.92549  18473863.6334   18473867.9094
  22542698.244   -14410733.501 9 -11191731.338 9  22542695.340    22542700.801
  20107035.482    -5488979.80549  -4269349.05449  20107032.8364   20107038.1694
  20593584.652   -21650867.56149 -16527643.75649  20593584.5704   20593590.6194
  19081513.227   -20308507.76249 -15804958.00049  19081511.9704   19081516.6174
  19721923.609    -3019339.50449  -2349867.57049  19721922.4734   19721927.7514
 96  2 12 18  5 59.9930000  0  6 29 28 22 19 18 14
  18457024.741   -13346552.95549 -10387472.42549  18457024.0714   18457028.2604
  22512185.743   -14571082.615 9 -11316678.589 9  22512181.081    22512186.971
  20104213.171    -5503805.96149  -4280901.92449  20104211.7454   20104217.1324
  20563698.622   -21807921.81749 -16650023.65249  20563697.6814   20563704.6214
  19053428.650   -20456090.41249 -15919957.46949  19053427.7244   19053432.4964
  19721766.373    -3020162.76349  -2350509.09849  19721765.7054   19721771.7714
 96  2 12 18  6 29.9930000  0  6 29 28 22 19 18 14
  18440244.149   -13434734.36749 -10456185.23349  18440243.4054   18440247.7654
  22481699.350   -14731281.942 9 -11441509.129 9  22481696.937    22481702.062
  20101475.051    -5518196.15049  -4292115.08849  20101472.7224   20101478.4154
  20533852.801   -21964762.42949 -16772237.08049  20533851.7364   20533857.9084
  19025388.649   -20603445.07049 -16034779.28949  19025387.2004   19025391.9274
  19721680.672    -3020615.05849  -2350861.57549  19721679.7204   19721685.4644
 96  2 12 18  6 59.9930000  0  6 29 28 22 19 18 14
  18423526.466   -13522585.79449 -10524640.90849  18423526.0284   18423530.2354
  22451243.761   -14891325.650 9 -11566218.430 9  22451240.989    22451247.559
  20098817.205    -5532156.79449  -4302993.54149  20098816.1294   20098822.2924
  20504045.166   -22121399.12749 -16894291.60949  20504045.2444   20504051.1624
  18997392.736   -20750563.72349 -16149417.20949  18997391.3964   18997396.1574
  19721665.299    -3020698.10949  -2350926.32049  19721663.9624   19721669.9094
 96  2 12 18  7 29.9930000  0  6 29 28 22 19 18 14
  18406873.787   -13610094.40849 -10592829.45749  18406873.7364   18406877.7814
  22420818.132   -15051215.335 9 -11690807.713 9  22420815.678    22420821.747
  20096239.536    -5545705.33949  -4313550.87649  20096238.5264   20096243.8434
  20474273.903   -22277852.87249 -17016203.58249  20474273.2324   20474278.9854
  18969441.977   -20897445.30649 -16263870.40149  18969440.8904   18969445.6054
  19721718.096    -3020412.05749  -2350703.46549  19721718.5154   19721724.5044
 96  2 12 18  7 59.9930000  0  6 29 28 22 19 18 14
  18390286.153   -13697264.42549 -10660754.15849  18390285.4404   18390289.8334
  22390417.421   -15210948.538 9 -11815275.048 9  22390418.198    22390426.131
  20093740.052    -5558845.62749  -4323790.08149  20093737.8174   20093743.1714
  20444533.407   -22434140.48749 -17137986.09849  20444532.6944   20444538.4414
  18941534.692   -21044097.76949 -16378145.05149  18941533.9024   18941538.5494
  19721843.456    -3019759.30549  -2350194.86749  19721842.9474   19721848.5284
 96  2 12 18  8 29.9930000  0  6 29 28 22 19 18 14
  18373761.513   -13784100.82849 -10728418.89849  18373761.1354   18373765.8404
  22360052.936   -15370537.961 9 -11939630.362 9  22360050.111    22360057.426
  20091313.825    -5571599.36849  -4333728.08249  20091310.7184   20091316.3404
  20414818.552   -22590289.94349 -17259660.97549  20414817.8074   20414823.9724
  18913669.350   -21190534.49849 -16492251.60249  18913667.7944   18913672.5514
  19722034.281    -3018760.89649  -2349416.92549  19722032.4884   19722038.7524
 96  2 12 18  8 59.9930000  0  6 29 28 22 19 18 14
  18357306.274   -13870577.94549 -10795803.67249  18357305.5234   18357309.8494
  22329710.601   -15529960.666 9 -12063855.785 9  22329713.737    22329719.973
  20088961.239    -5583955.77249  -4343356.47049  20088959.3474   20088965.4024
  20385135.017   -22746279.42249 -17381211.18149  20385134.3424   20385139.8954
  18885851.459   -21336716.38849 -16606159.57149  18885850.5354   18885855.3094
  19722290.720    -3017409.59049  -2348363.99149  19722289.8494   19722295.5414
 96  2 12 18  9 29.9930000  0  6 29 28 22 19 18 14
  18340914.029   -13956717.12349 -10862925.13149  18340913.7584   18340917.9384
  22299409.879   -15689220.196 9 -12187954.059 9  22299407.292    22299413.890
  20086683.216    -5595924.65049  -4352682.89949  20086682.1924   20086687.3714
  20355483.220   -22902101.80449 -17502631.19949  20355482.0244   20355487.8324
  18858081.940   -21482643.26049 -16719868.82549  18858081.2564   18858086.1344
  19722609.731    -3015732.34049  -2347057.08749  19722609.3854   19722614.5484
 96  2 12 18  9 59.9920000  0  6 29 28 22 19 18 14
  18324585.908   -14042523.63049 -10929787.35949  18324585.1724   18324589.3004
  22269137.025   -15848306.433 9 -12311917.330 9  22269133.897    22269140.711
  20084480.822    -5607497.90649  -4361701.03849  20084479.6864   20084485.2224
  20325868.332   -23057727.09949 -17623897.63749  20325868.1924   20325873.9574
  18830364.476   -21628303.32749 -16833370.18349  18830363.1944   18830367.8794
  19722988.319    -3013741.37949  -2345505.72949  19722987.6134   19722993.3944
 96  2 12 18 10 29.9920000  0  6 29 28 22 19 18 14
  18308317.995   -14128008.57049 -10996399.01149  18308318.0164   18308322.3904
  22238894.980   -16007225.707 9 -12435750.510 9  22238892.373    22238899.169
  20082355.010    -5618669.04849  -4370405.84349  20082353.9044   20082359.5664
  20296291.713   -23213151.42649 -17745007.48149  20296291.5384   20296297.6234
  18802698.980   -21773684.31549 -16946654.07849  18802698.0394   18802702.7734
  19723428.992    -3011430.54349  -2343705.11849  19723427.8324   19723433.4464
 96  2 12 18 10 59.9920000  0  6 29 28 22 19 18 14
  18292111.244   -14213178.93949 -11062765.54049  18292110.5764   18292114.8894
  22208685.380   -16165975.561 9 -12559451.680 9  22208683.692    22208690.231
  20080307.749    -5629434.79649  -4378794.75949  20080305.4254   20080311.2494
  20266754.699   -23368374.53349 -17865960.53449  20266753.3654   20266758.7084
  18775086.738   -21918788.65749 -17059722.40049  18775085.8734   18775090.5484
  19723928.620    -3008796.81949  -2341652.89349  19723928.5484   19723934.2944
 96  2 12 18 11 29.9920000  0  6 29 28 22 19 18 14
  18275965.604   -14298023.16649 -11128877.93649  18275965.2514   18275969.7184
  22178512.313   -16324540.214 9 -12683008.550 9  22178510.307    22178516.493
  20078338.857    -5639781.89249  -4386857.45749  20078336.6104   20078341.9454
  20237255.046   -23523394.53449 -17986755.32249  20237253.9584   20237260.3114
  18747527.602   -22063615.54549 -17172574.52649  18747526.3074   18747530.8524
  19724496.878    -3005816.07949  -2339330.27949  19724496.0324   19724502.2804
 96  2 12 18 11 59.9920000  0  6 29 28 22 19 18 14
  18259884.677   -14382530.80149 -11194728.05949  18259884.0794   18259888.2834
  22148370.979   -16482918.563 9 -12806420.243 9  22148371.377    22148377.651
  20076449.080    -5649709.23449  -4394593.07649  20076446.8704   20076452.7174
  20207792.206   -23678217.57849 -18107396.63949  20207792.4814   20207798.5714
  18720019.178   -22208171.50149 -17285215.53449  18720017.9084   18720022.4874
  19725131.896    -3002481.25149  -2336731.74549  19725130.3644   19725137.2254
 96  2 12 18 12 29.9920000  0  6 29 28 22 19 18 14
  18243866.639   -14466704.47049 -11260317.94849  18243866.5274   18243870.6514
  22118269.042   -16641116.241 9 -12929691.156 9  22118268.138    22118273.265
  20074635.509    -5659235.90249  -4402016.48249  20074634.6634   20074640.1914
  20178364.873   -23832862.19149 -18227898.92949  20178364.4114   20178370.6964
  18692559.728   -22352473.23949 -17397658.45349  18692558.3294   18692562.7404
  19725830.430    -2998806.24049  -2333868.13249  19725829.8534   19725835.8074
 96  2 12 18 12 59.9920000  0  6 29 28 22 19 18 14
  18227914.016   -14550538.35049 -11325643.06149  18227913.5314   18227917.5694
  22088200.302   -16799129.583 9 -13052818.429 9  22088197.963    22088204.384
  20072895.818    -5668376.99649  -4409139.44249  20072895.0374   20072900.3834
  20148973.300   -23987321.81249 -18348257.04549  20148971.9704   20148978.3114
  18665145.833   -22496531.25849 -17509911.45749  18665144.8684   18665149.7984
  19726593.306    -2994798.47649  -2330745.23049  19726592.6204   19726598.7294
 96  2 12 18 13 29.9920000  0  6 29 28 22 19 18 14
  18212024.693   -14634036.61249 -11390706.65649  18212024.3684   18212028.6334
  22058167.534   -16956953.986 9 -13175798.469 9  22058164.743    22058172.553
  20071228.602    -5677138.94149  -4415966.96549  20071227.8154   20071233.2574
  20119616.763   -24141586.36949 -18468463.17949  20119616.3624   20119622.8084
  18637780.873   -22640337.67049 -17621968.40949  18637779.2714   18637784.0804
  19727417.274    -2990470.65549  -2327372.93949  19727416.4134   19727422.2054
 96  2 12 18 13 59.9920000  0  6 29 28 22 19 18 14
  18196198.684   -14717203.02549 -11455511.65849  18196197.8514   18196202.3144
  22028173.305   -17114581.148 9 -13298624.769 9  22028169.297    22028177.044
  20069634.738    -5685518.88649  -4422496.82549  20069632.6674   20069638.5464
  20090302.203   -24295636.62849 -18588502.32149  20090301.7924   20090307.5154
  18610464.266   -22783884.83949 -17733823.34749  18610463.3614   18610468.2354
  19728301.485    -2985820.51449  -2323749.49249  19728301.2404   19728306.9084
 96  2 12 18 14 29.9920000  0  6 29 28 22 19 18 14
  18180434.640   -14800043.81049 -11520062.93349  18180433.9894   18180438.5414
  21998212.906   -17272011.683 9 -13421297.906 9  21998211.328    21998219.229
  20068109.754    -5693532.36649  -4428741.12849  20068108.0984   20068113.8834
  20061025.331   -24449483.43549 -18708382.92449  20061025.5244   20061031.5114
  18583196.769   -22927177.32549 -17845479.83749  18583195.6144   18583200.3814
  19729247.916    -2980846.92949  -2319874.01149  19729247.9134   19729253.7154
 96  2 12 18 14 59.9920000  0  6 29 28 22 19 18 14
  18164717.854   -14882632.63849 -11584417.87749  18164717.8914   18164722.1834
  21968277.318   -17429320.046 9 -13543875.855 9  21968277.067    21968284.554
  20066639.959    -5701258.44649  -4434761.47249  20066638.1174   20066644.0324
  20031772.334   -24603210.49749 -18828170.23449  20031771.8794   20031777.6654
  18555964.011   -23070287.45549 -17956994.22449  18555962.8764   18555967.7164
  19730244.131    -2975616.52649  -2315798.41149  19730243.3444   19730249.5784
 96  2 12 18 15 29.9920000  0  6 29 28 22 19 18 14
  18149063.402   -14964901.02749 -11648523.12449  18149062.8754   18149066.9744
  21938380.014   -17586442.996 9 -13666309.318 9  21938377.613    21938384.398
  20065236.849    -5708629.26849  -4440505.00249  20065235.3004   20065240.9164
  20002551.358   -24756768.11249 -18947825.49149  20002550.5524   20002557.0074
  18528776.358   -23213160.66549 -18068324.00049  18528774.9324   18528779.6904
  19731298.458    -2970073.32749  -2311479.07549  19731298.5024   19731304.0344
 96  2 12 18 15 59.9920000  0  6 29 28 22 19 18 14
  18133477.728   -15046801.17649 -11712341.44149  18133477.7754   18133482.0544
  21908521.161   -17743343.986 9 -13788569.822 9  21908520.757    21908527.175
  20063906.777    -5715619.99549  -4445952.35249  20063905.6194   20063911.4564
  19973366.761   -24910132.83749 -19067330.45749  19973366.8544   19973372.3764
  18501638.852   -23355766.30249 -18179445.28249  18501637.9544   18501642.7684
  19732418.734    -2964187.70449  -2306892.91849  19732418.1174   19732424.2374
 96  2 12 18 16 29.9920000  0  6 29 28 22 19 18 14
  18117972.033   -15128288.34649 -11775837.95449  18117971.3974   18117975.7184
  21878712.013   -17899997.726 9 -13910637.650 9  21878710.391    21878716.657
  20062652.096    -5722215.08149  -4451091.40749  20062650.4714   20062655.4264
  19944223.903   -25063284.78849 -19186669.61149  19944222.8244   19944228.7184
  18474559.743   -23498070.90349 -18290331.98649  18474558.3904   18474563.2334
  19733603.479    -2957960.05249  -2302040.23649  19733603.0764   19733609.2084
 96  2 12 18 16 59.9920000  0  6 29 28 22 19 18 14
  18102520.856   -15209480.77449 -11839104.79949  18102520.8314   18102525.2664
  21848927.077   -18056517.750 9 -14032601.282 9  21848925.278    21848931.343
  20061451.076    -5728527.90449  -4456010.52449  20061449.4314   20061454.2674
  19915100.896   -25216322.81249 -19305919.99949  19915100.4014   19915105.7784
  18447518.247   -23640174.28449 -18401061.89049  18447516.9724   18447521.5694
  19734828.981    -2951526.72149  -2297027.29149  19734827.5324   19734833.8984
 96  2 12 18 17 29.9920000  0  6 29 28 22 19 18 14
  18087142.520   -15290294.51149 -11902076.56349  18087142.4534   18087147.0324
  21819183.138   -18212816.575 9 -14154392.557 9  21819182.087    21819189.151
  20060317.806    -5734483.51149  -4460651.28649  20060315.8184   20060321.2394
  19886017.740   -25369154.19749 -19425009.37649  19886018.1904   19886022.5564
  18420533.536   -23781977.89349 -18511558.20649  18420532.4824   18420537.3834
  19736103.988    -2944817.89849  -2291799.67249  19736104.2904   19736110.3444
 96  2 12 18 17 59.9920000  0  6 29 28 22 19 18 14
  18071838.668   -15370721.06149 -11964746.61849  18071837.8354   18071842.2304
  21789483.817   -18368883.529 9 -14276003.154 9  21789484.102    21789490.356
  20059253.983    -5740073.54349  -4465007.18849  20059252.2334   20059257.3614
  19856978.320   -25521756.27749 -19543920.06749  19856978.2004   19856984.0424
  18393611.230   -23923456.15049 -18621801.00149  18393609.9994   18393614.6854
  19737435.708    -2937829.42549  -2286354.14849  19737433.8294   19737439.9784
 96  2 12 18 18 29.9910000  0  6 29 28 22 19 18 14
  18056594.337   -15450829.57249 -12027168.85449  18056593.8884   18056598.2194
  21759819.258   -18524778.810 9 -14397479.972 9  21759817.878    21759824.578
  20058247.785    -5745359.50849  -4469126.14949  20058246.0704   20058250.9064
  19827973.255   -25674183.39649 -19662694.42149  19827972.6734   19827977.8114
  18366738.168   -24064675.49049 -18731842.04349  18366736.9704   18366741.5914
  19738806.062    -2930621.39449  -2280737.53849  19738805.5794   19738811.7244
 96  2 12 18 18 59.9910000  0  6 29 28 22 19 18 14
  18041414.800   -15530600.06949 -12089327.69349  18041414.0834   18041418.2124
  21730192.382   -18680468.386 9 -14518796.453 9  21730191.420    21730197.814
  20057308.453    -5750291.77049  -4472969.49149  20057307.1324   20057312.9364
  19799004.330   -25826412.97049 -19781314.85249  19799004.1024   19799009.1464
  18339917.159   -24205620.99949 -18841669.71049  18339916.1194   18339920.6624
  19740232.211    -2923125.74649  -2274896.80649  19740232.1614   19740237.8184
 96  2 12 18 19 29.9910000  0  6 29 28 22 19 18 14
  18026303.156   -15610007.56549 -12151203.68449  18026303.4084   18026307.5904
  21700609.666   -18835922.476 9 -14639929.480 9  21700608.877    21700616.143
  20056442.760    -5754844.32349  -4476516.97649  20056440.8304   20056447.1034
  19770076.449   -25978433.61149 -19899772.48149  19770075.6884   19770081.0934
  18313149.265   -24346286.33249 -18951279.06149  18313148.1574   18313153.0044
  19741718.958    -2915315.54749  -2268810.96049  19741718.0674   19741724.4884
 96  2 12 18 19 59.9910000  0  6 29 28 22 19 18 14
  18011253.082   -15689097.03549 -12212831.84549  18011252.8824   18011257.2344
  21671065.463   -18991175.298 9 -14760905.665 9  21671065.373    21671072.362
  20055642.547    -5759051.15149  -4479795.05949  20055640.4454   20055646.2494
  19741176.632   -26130301.00849 -20018110.69049  19741176.3314   19741181.9954
  18286424.516   -24486726.24249 -19060712.75149  18286423.4914   18286428.1264
  19743258.979    -2907221.13949  -2262503.64849  19743258.2814   19743264.6854
 96  2 12 18 20 29.9910000  0  6 29 28 22 19 18 14
  17996266.694   -15767852.31649 -12274199.61249  17996266.4114   17996270.8784
  21641567.754   -19146198.017 9 -14881702.548 9  21641566.457    21641572.329
  20054908.025    -5762910.73549  -4482802.57149  20054905.9674   20054912.1124
  19712305.441   -26282021.76349 -20136334.64649  19712304.7014   19712310.2444
  18259746.272   -24626920.14449 -19169954.74749  18259745.3854   18259749.9214
  19744859.284    -2898811.21449  -2255950.49749  19744858.4974   19744864.8134
 96  2 12 18 20 59.9910000  0  6 29 28 22 19 18 14
  17981347.743   -15846250.42449 -12335289.06849  17981347.7794   17981352.2314
  21612116.121   -19300958.826 9 -15002295.356 9  21612115.789    21612122.620
  20054242.846    -5766405.99949  -4485526.19449  20054241.1744   20054247.1854
  19683464.232   -26433578.39549 -20254430.70549  19683464.2244   19683470.3884
  18233123.515   -24766826.24149 -19278972.48449  18233122.1094   18233126.9444
  19746523.178    -2890070.35149  -2249139.45649  19746522.2704   19746528.0014
 96  2 12 18 21 29.9910000  0  6 29 28 22 19 18 14
  17966488.553   -15924337.23749 -12396135.94349  17966488.3304   17966492.7014
  21582705.774   -19455502.348 9 -15122718.827 9  21582706.111    21582713.584
  20053634.133    -5769604.12149  -4488018.27649  20053632.6344   20053638.2904
  19654646.349   -26585018.21049 -20372435.73849  19654646.5544   19654652.4184
  18206549.189   -24906472.71349 -19387787.91449  18206548.3424   18206553.0984
  19748235.131    -2881073.19649  -2242128.71249  19748233.9464   19748240.2944
 96  2 12 18 21 59.9910000  0  6 29 28 22 19 18 14
  17951697.704   -16002065.86249 -12456703.72349  17951697.2094   17951701.5634
  21553346.626   -19609799.565 9 -15242950.388 9  21553344.098    21553351.822
  20053084.491    -5772488.12049  -4490265.59449  20053084.0794   20053089.8484
  19625858.725   -26736299.07549 -20490316.90449  19625858.1984   19625864.5364
  18180032.549   -25045816.61549 -19496367.57549  18180032.0774   18180036.8184
  19750000.941    -2871795.39049  -2234899.28349  19749999.8494   19750006.2884
 96  2 12 18 22 29.9910000  0  6 29 28 22 19 18 14
  17936974.027   -16079440.77449 -12516995.87949  17936973.1544   17936977.5424
  21524031.041   -19763863.138 9 -15362999.897 9  21524026.487    21524034.479
  20052593.470    -5775075.13049  -4492281.48649  20052591.7884   20052597.9804
  19597105.237   -26887403.97849 -20608060.96549  19597104.6424   19597110.1494
  18153573.087   -25184863.76749 -19604716.00449  18153572.4364   18153577.0014
  19751813.677    -2862269.78049  -2227476.75449  19751812.3614   19751818.6274
 96  2 12 18 22 59.9910000  0  6 29 28 22 19 18 14
  17922319.281   -16156450.81649 -12577003.71049  17922318.7404   17922322.9574
  21494759.716   -19917685.845 9 -15482861.713 9  21494756.072    21494762.509
  20052161.157    -5777350.10449  -4494054.23649  20052158.6744   20052164.7324
  19568392.748   -27038290.04449 -20725634.50649  19568391.4844   19568397.8974
  18127172.770   -25323601.03849 -19712822.96549  18127171.3684   18127176.3084
  19753670.276    -2852508.05049  -2219870.24449  19753670.1374   19753675.9064
 96  2 12 18 23 29.9910000  0  7 29 28 22 19 18 14 31
  17907751.734   -16233002.09949 -12636654.07149  17907751.4154   17907755.8964
  21465547.112   -20071183.755 9 -15602470.462 9  21465546.834    21465553.179
  20051803.461    -5779226.38349  -4495516.30949  20051801.4764   20051807.5724
  19539738.624   -27188863.77349 -20842964.67049  19539738.3374   19539744.6224
  18100844.740   -25461955.28049 -19820631.46349  18100843.5174   18100848.4054
  19755589.399    -2842423.22249  -2212011.98049  19755589.2554   19755595.7154
  21938417.316   -11129112.08259  -8645846.17759  21938414.1924   21938421.5684
 96  2 12 18 23 59.9910000  0  7 29 28 22 19 18 14 31
  17893265.544   -16309127.33449 -12695972.45249  17893265.2994   17893269.6424
  21436396.250   -20224385.203 9 -15721848.206 9  21436393.760    21436399.707
  20051519.839    -5780719.88249  -4496680.11549  20051517.5144   20051523.4364
  19511140.581   -27339149.16649 -20960070.16949  19511140.4044   19511144.9404
  18074583.032   -25599959.62049 -19928167.31249  18074582.2034   18074587.0204
  19757566.673    -2832036.32449  -2203918.31449  19757565.9314   19757572.4504
  21904356.917   -11308104.49349  -8785320.71549  21904353.1284   21904360.8044
 96  2 12 18 24 29.9910000  0  7 29 28 22 19 18 14 31
  17878851.240   -16384877.23549 -12754998.36449  17878850.4704   17878854.8414
  21407296.326   -20377302.077 9 -15841004.213 9  21407294.693    21407301.048
  20051306.088    -5781838.52749  -4497551.82749  20051304.7654   20051310.7404
  19482590.221   -27489179.73749 -21076977.09849  19482590.0834   19482595.7094
  18048385.387   -25737630.48149 -20035443.31149  18048384.0264   18048389.3184
  19759599.012    -2821359.22349  -2195598.52749  19759597.8624   19759603.7424
  21870296.929   -11487100.70349  -8924798.24149  21870291.1064   21870299.4454
 96  2 12 18 24 59.9910000  0  7 29 28 22 19 18 14 31
  17864505.479   -16460262.92649 -12813740.47849  17864505.1884   17864509.5434
  21378252.740   -20529931.999 9 -15959936.587 9  21378250.154    21378256.523
  20051163.700    -5782583.09949  -4498132.04949  20051162.8114   20051168.8734
  19454084.054   -27638980.56249 -21193705.00649  19454083.6094   19454089.0414
  18022251.893   -25874963.43249 -20142456.00049  18022250.8384   18022255.4054
  19761689.027    -2810374.20949  -2187038.80949  19761688.2174   19761694.7194
  21836234.028   -11666092.38949  -9064272.24149  21836230.1904   21836237.9694
 96  2 12 18 25 29.9910000  0  7 29 28 22 19 18 14 31
  17850227.337   -16535295.14949 -12872207.15649  17850227.0594   17850231.4894
  21349258.605   -20682276.069 9 -16078646.223 9  21349259.822    21349265.879
  20051093.722    -5782952.77149  -4498420.14449  20051092.9634   20051098.5344
  19425617.602   -27788576.56349 -21310273.30349  19425616.4094   19425621.8914
  17996179.604   -26011973.38049 -20249216.99949  17996178.8824   17996183.5044
  19763837.541    -2799084.33349  -2178241.53349  19763836.6264   19763842.5774
  21802173.969   -11845084.18549  -9203746.35949  21802169.5764   21802177.3664
 96  2 12 18 25 59.9910000  0  7 29 28 22 19 18 14 31
  17836013.045   -16609992.47649 -12930412.88249  17836012.5804   17836017.1414
  21320326.921   -20834334.137 9 -16197133.023 9  21320324.102    21320330.163
  20051092.297    -5782962.01549  -4498427.38149  20051090.9964   20051096.2934
  19397186.473   -27937982.50949 -21426693.51049  19397185.9754   19397190.8074
  17970169.570   -26148658.39149 -20355724.80249  17970168.4724   17970173.1474
  19766040.474    -2787505.66649  -2169219.22349  19766040.1564   19766045.7784
  21768109.465   -12024071.46349  -9343216.96649  21768109.4124   21768117.7184
 96  2 12 18 26 29.9910000  0  8 29 27 28 22 19 18 14 31
  17821864.463   -16684344.63649 -12988349.64649  17821864.0224   17821868.2294
  22272683.144    -6344760.81859  -4504268.65559  22272681.8124   22272687.0434
  21291446.246   -20986107.812 9 -16315398.215 9  21291443.070    21291448.071
  20051154.661    -5782637.45849  -4498174.52049  20051153.0904   20051158.1654
  19368789.728   -28087205.47849 -21542971.13249  19368789.4624   19368795.4274
  17944220.647   -26285021.47049 -20461981.75349  17944219.4764   17944224.0694
  19768295.986    -2775657.84349  -2159987.19249  19768294.6624   19768300.4714
  21734050.996   -12203059.33549  -9482688.05449  21734049.4274   21734056.4794
 96  2 12 18 26 59.9910000  0  8 29 27 28 22 19 18 14 31
  17807787.426   -16758320.44249 -13045993.13849  17807786.8534   17807791.2164
  22240134.963    -6515800.40649  -4637546.25549  22240133.8604   22240140.7354
  21262616.074   -21137597.861 9 -16433442.409 9  21262615.380    21262620.637
  20051276.991    -5781992.46549  -4497671.96849  20051275.7944   20051281.5204
  19340429.382   -28236241.55249 -21659103.12849  19340429.1474   19340434.7294
  17918333.156   -26421062.03449 -20567987.39149  17918331.8654   17918336.4644
  19770597.832    -2763560.54649  -2150560.76649  19770597.3634   19770602.3994
  21699991.591   -12382047.35149  -9622159.25549  21699989.1804   21699997.0574
 96  2 12 18 27 29.9900000  0  8 29 27 28 22 19 18 14 31
  17793783.773   -16831908.24449 -13103334.28949  17793783.5274   17793787.7904
  22207597.083    -6686774.90449  -4770773.12749  22207599.1964   22207604.8034
  21233843.404   -21288801.756 9 -16551263.608 9  21233842.019    21233848.446
  20051460.688    -5781033.86349  -4496925.04349  20051458.1184   20051463.4504
  19312103.856   -28385093.63749 -21775091.74949  19312103.6394   19312109.0354
  17892505.236   -26556786.88749 -20673747.02149  17892504.2964   17892508.8674
  19772942.126    -2751241.10149  -2140961.22649  19772940.6394   19772946.7284
  21665926.184   -12561035.55849  -9761630.59149  21665929.0904   21665936.3994
 96  2 12 18 27 59.9900000  0  8 29 27 28 22 19 18 14 31
  17779856.945   -16905095.31849 -13160363.19749  17779856.7844   17779860.8784
  22175075.400    -6857685.30549  -4903950.03549  22175075.5804   22175082.6274
  21205125.639   -21439727.637 9 -16668868.179 9  21205121.853    21205127.497
  20051699.260    -5779781.77449  -4495949.42749  20051696.8864   20051701.7034
  19283811.908   -28533770.99549 -21890944.22349  19283811.2734   19283816.9424
  17866737.990   -26692194.69249 -20779259.59749  17866736.8244   17866741.7544
  19775329.329    -2738690.29449  -2131181.41349  19775328.9794   19775335.4434
  21631866.104   -12740029.22849  -9901106.17849  21631867.2154   21631875.0194
 96  2 12 18 28 29.9900000  0  8 29 27 28 22 19 18 14 31
  17766009.899   -16977858.33149 -13217061.66649  17766010.1094   17766014.5674
  22142565.341    -7028530.79849  -5037076.33849  22142564.3014   22142571.7814
  21176454.944   -21590371.100 9 -16786252.674 9  21176455.075    21176461.486
  20051991.068    -5778240.48649  -4494748.45649  20051990.0184   20051995.6694
  19255553.605   -28682265.48349 -22006654.19449  19255553.4894   19255559.3644
  17841031.224   -26827284.15649 -20884524.11749  17841030.3854   17841035.0904
  19777763.442    -2725903.26849  -2121217.53049  19777762.9114   19777769.2114
  21597806.082   -12919021.99549 -10040581.01149  21597805.7654   21597813.7694
 96  2 12 18 28 59.9900000  0  8 29 27 28 22 19 18 14 31
  17752244.102   -17050199.75149 -13273431.62249  17752244.0054   17752248.6314
  22110067.993    -7199300.05849  -5170143.20149  22110068.7534   22110076.1124
  21147845.616   -21740721.139 9 -16903408.571 9  21147844.679    21147850.821
  20052343.240    -5776390.66449  -4493307.07149  20052341.9674   20052347.4844
  19227332.248   -28830569.87449 -22122216.04949  19227332.4584   19227337.8074
  17815386.493   -26962045.57449 -20989533.01649  17815385.6614   17815390.4474
  19780244.674    -2712865.72949  -2111058.46349  19780243.5534   19780249.3274
  21563747.100   -13097998.88749 -10180043.48749  21563747.3384   21563755.4734
 96  2 12 18 29 29.9900000  0  8 29 27 28 22 19 18 14 31
  17738553.281   -17122146.83449 -13329494.30349  17738553.1734   17738557.5104
  22077588.782    -7369983.14349  -5303142.93349  22077588.2114   22077594.4284
  21119289.577   -21890782.909 9 -17020339.819 9  21119288.152    21119295.029
  20052750.969    -5774250.54949  -4491639.48549  20052749.0244   20052754.6994
  19199147.345   -28978683.31949 -22237629.11149  19199147.0834   19199153.0044
  17789804.143   -27096484.76049 -21094290.82649  17789802.9064   17789807.7874
  19782771.730    -2699582.64349  -2100708.05549  19782771.5434   19782777.4424
  21529692.609   -13276970.59749 -10319501.89349  21529690.5514   21529697.8944
 96  2 12 18 29 59.9900000  0  8 29 27 28 22 19 18 14 31
  17724937.372   -17193701.21349 -13385250.97649  17724936.6544   17724941.0944
  22045123.867    -7540578.35049  -5436074.19049  22045125.1574   22045132.0604
  21090789.261   -22040549.300 9 -17137040.902 9  21090788.245    21090794.967
  20053213.830    -5771820.43649  -4489745.92349  20053211.9834   20053217.5954
  19171003.509   -29126580.11049 -22352873.34149  19171002.9624   19171008.7294
  17764284.067   -27230592.69349 -21198790.51249  17764282.9074   17764287.7264
  19785348.234    -2686044.23349  -2090158.69849  19785347.9224   19785353.9334
  21495635.482   -13455937.28849 -10458956.40049  21495634.6584   21495641.8464
 96  2 12 18 30 29.9900000  0  8 29 27 28 22 19 18 14 31
  17711391.830   -17264881.00549 -13440715.76649  17711391.6194   17711395.9774
  22012677.910    -7711101.23549  -5568949.07649  22012675.6744   22012683.4894
  21062345.657   -22190021.787 9 -17253512.981 9  21062344.725    21062351.679
  20053733.085    -5769085.90249  -4487615.15549  20053732.1784   20053737.7614
  19142902.242   -29274251.45549 -22467941.91149  19142901.9074   19142907.9794
  17738826.047   -27364372.78549 -21303034.74049  17738825.4254   17738830.3854
  19787967.421    -2672275.77149  -2079430.07749  19787967.2654   19787973.8544
  21461581.519   -13634902.17149 -10598409.48349  21461579.0114   21461584.9764
 96  2 12 18 30 59.9900000  0  8 29 27 28 22 19 18 14 31
  17697914.268   -17335707.67749 -13495905.38749  17697913.7234   17697918.2274
  21980239.382    -7881554.66149  -5701769.81649  21980238.7134   21980246.0844
  21033959.125   -22339197.604 9 -17369753.902 9  21033957.962    21033964.535
  20054313.101    -5766040.66449  -4485242.27849  20054311.0624   20054317.2204
  19114845.284   -29421693.29149 -22582831.63549  19114845.1824   19114850.4814
  17713432.970   -27497817.18249 -21407017.38749  17713431.9064   17713436.5844
  19790631.070    -2658287.62649  -2068530.27449  19790629.9944   19790635.4474
  21427525.147   -13813861.73249 -10737858.39049  21427523.7564   21427530.2884
 96  2 12 18 31 29.9900000  0  8 29 27 28 22 19 18 14 31
  17684504.598   -17406176.95549 -13550816.53149  17684503.8514   17684508.3814
  21947815.354    -8051951.67149  -5834546.58349  21947813.4774   21947820.3394
  21005626.859   -22488075.431 9 -17485762.611 9  21005627.249    21005633.725
  20054949.171    -5762697.10349  -4482636.93549  20054948.1394   20054954.1974
  19086831.647   -29568905.83749 -22697542.69449  19086831.5764   19086837.2304
  17688101.429   -27630933.64149 -21510744.49749  17688100.7184   17688105.3394
  19793334.990    -2644076.56449  -2057456.77449  19793334.7124   19793339.4204
  21393471.233   -13992812.86849 -10877300.69149  21393470.1854   21393477.5104
 96  2 12 18 31 59.9900000  0  8 29 27 28 22 19 18 14 31
  17671165.045   -17476274.72649 -13605438.18449  17671164.7464   17671169.2964
  21915396.597    -8222305.78949  -5967290.01049  21915397.3084   21915402.7914
  20977356.383   -22636651.581 9 -17601536.268 9  20977354.844    20977361.279
  20055641.806    -5759056.38749  -4479800.04449  20055640.0604   20055646.6994
  19058860.205   -29715899.24349 -22812082.99649  19058858.8974   19058864.9384
  17662832.942   -27763720.05849 -21614214.43349  17662832.1524   17662837.0154
  19796082.073    -2629635.74749  -2046204.22549  19796082.0334   19796087.7044
  21359419.599   -14171748.11249 -11016730.60149  21359419.7954   21359427.2564
 96  2 12 18 32 29.9900000  0  8 29 27 28 22 19 18 14 31
  17657895.011   -17546009.28449 -13659776.81349  17657894.7674   17657899.1184
  21882989.462    -8392617.90749  -6100000.72949  21882987.3044   21882993.1974
  20949140.121   -22784926.579 9 -17717075.250 9  20949139.373    20949145.139
  20056388.549    -5755133.59349  -4476743.34549  20056386.6924   20056393.3444
  19030924.324   -29862704.41649 -22926476.62249  19030923.6834   19030929.1574
  17637627.158   -27896178.82649 -21717429.05449  17637626.0404   17637630.7214
  19798874.903    -2614970.74649  -2034777.00149  19798872.2264   19798878.6244
  21325374.281   -14350669.36549 -11156149.59949  21325372.6144   21325379.0304
 96  2 12 18 32 59.9900000  0  8 29 27 28 22 19 18 14 31
  17644695.038   -17615377.86749 -13713830.27349  17644694.4204   17644698.6984
  21850586.510    -8562887.49349  -6232678.29849  21850586.4214   21850592.0734
  20920981.539   -22932897.515 9 -17832377.271 9  20920980.811    20920987.300
  20057185.632    -5750949.50549  -4473483.05049  20057183.9054   20057189.4074
  19003019.839   -30009339.03549 -23040737.34349  19003019.4634   19003025.1104
  17612483.909   -28028308.62849 -21820387.34749  17612482.8814   17612487.4354
  19801709.794    -2600069.68049  -2023165.83549  19801708.4434   19801713.8214
  21291328.952   -14529579.66149 -11295560.05649  21291326.5104   21291333.7494
 96  2 12 18 33 29.9900000  0  8 29 27 28 22 19 18 14 31
  17631565.761   -17684370.87849 -13767591.07749  17631565.2804   17631569.8034
  21818194.969    -8733110.77849  -6365319.79249  21818193.9344   21818199.0804
  20892885.326   -23080557.890 9 -17947437.278 9  20892881.707    20892888.440
  20058029.828    -5746509.77449  -4470023.56149  20058028.0924   20058034.5334
  18975147.384   -30155810.17349 -23154870.67749  18975147.2474   18975153.3174
  17587402.780   -28160109.92749 -21923089.65749  17587401.9644   17587406.6504
  19804588.571    -2584936.83449  -2011374.05249  19804588.2434   19804593.8074
  21257283.542   -14708481.47749 -11434963.91649  21257282.2844   21257289.7234
 96  2 12 18 33 59.9900000  0  8 29 27 28 22 19 18 14 31
  17618507.112   -17752996.58449 -13821065.65149  17618506.5314   17618510.8564
  21785810.838    -8903280.53049  -6497919.56449  21785811.7934   21785817.7564
  20864841.219   -23227905.754 9 -18062253.757 9  20864842.242    20864849.081
  20058922.643    -5741813.95649  -4466364.50849  20058922.2254   20058928.0794
  18947305.915   -30302120.72149 -23268878.88549  18947305.4454   18947310.7234
  17562385.779   -28291575.70449 -22025530.51949  17562384.5884   17562389.4294
  19807508.583    -2569594.24049  -1999418.83549  19807507.6384   19807513.6944
  21223240.520   -14887376.10249 -11574362.17349  21223240.1654   21223247.1514
 96  2 12 18 34 29.9900000  0  8 29 27 28 22 19 18 14 31
  17605513.498   -17821276.54149 -13874270.82849  17605513.0384   17605517.4294
  21753441.429    -9073399.78449  -6630479.98549  21753438.9524   21753444.2214
  20836862.835   -23374946.056 9 -18176830.602 9  20836861.256    20836868.105
  20059866.352    -5736863.27249  -4462506.86349  20059863.4974   20059870.2054
  18919494.833   -30448269.35749 -23382760.92949  18919494.0104   18919499.5494
  17537431.744   -28422708.82349 -22127712.17049  17537430.7314   17537435.6504
  19810465.325    -2554060.92249  -1987315.00849  19810463.2354   19810469.8464
  21189199.709   -15066261.64949 -11713753.38349  21189198.8244   21189205.1764
 96  2 12 18 34 59.9900000  0  8 29 27 28 22 19 18 14 31
  17592590.322   -17889189.44049 -13927189.98849  17592589.6694   17592594.1084
  21721079.318    -9243456.03449  -6762991.32449  21721078.6784   21721084.6974
  20808941.776   -23521670.703 9 -18291161.460 9  20808940.896    20808946.800
  20060857.977    -5731648.22149  -4458443.22249  20060856.5184   20060861.9054
  18891719.452   -30594228.41149 -23496495.24949  18891719.3314   18891725.0824
  17512544.111   -28553495.40949 -22229623.79749  17512543.1844   17512548.1054
  19813456.127    -2538337.68549  -1975063.18149  19813455.8464   19813461.9964
  21155167.878   -15245107.53249 -11853113.70649  21155165.8834   21155172.3654
 96  2 12 18 35 29.9900000  0  8 29 27 28 22 19 18 14 31
  17579737.928   -17956727.15949 -13979816.80049  17579737.6144   17579741.9974
  21688732.382    -9413435.61149  -6895442.92549  21688732.3934   21688738.5534
  20781082.063   -23668074.782 9 -18405242.528 9  20781081.164    20781087.183
  20061898.780    -5726172.92349  -4454176.77149  20061898.7924   20061904.3854
  18863982.180   -30739985.98049 -23610072.56549  18863981.8784   18863987.7304
  17487723.295   -28683933.27049 -22331263.69249  17487721.8454   17487726.4324
  19816485.144    -2522423.53449  -1962662.60249  19816484.5174   19816490.6414
  21121144.101   -15423898.48549 -11992431.24349  21121143.0854   21121149.7024
 96  2 12 18 35 59.9900000  0  8 29 27 28 22 19 18 14 31
  17566959.141   -18023882.56049 -14032145.70649  17566958.4324   17566963.0794
  21656401.997    -9583336.08649  -7027832.89549  21656401.1654   21656407.6814
  20753285.059   -23814154.536 9 -18519070.845 9  20753283.063    20753288.363
  20062991.632    -5720436.14149  -4449706.57149  20062989.9114   20062995.9704
  18836285.252   -30885536.13149 -23723488.25949  18836285.2234   18836290.5104
  17462968.676   -28814014.71949 -22432625.86349  17462967.9374   17462972.8414
  19819551.615    -2506310.53449  -1950107.07349  19819550.5214   19819556.8764
  21087137.679   -15602617.63049 -12131692.81849  21087132.9614   21087139.6284
 96  2 12 18 36 29.9890000  0  8 29 27 28 22 19 18 14 31
  17554254.397   -18090646.11549 -14084169.26549  17554253.8844   17554258.3064
  21624088.114    -9753149.20149  -7160154.78749  21624086.6794   21624092.8684
  20725549.762   -23959901.795 9 -18632640.041 9  20725547.771    20725553.929
  20064132.799    -5714439.01249  -4445033.51449  20064130.8644   20064137.2034
  18808628.705   -31030870.70749 -23836735.96849  18808628.2474   18808634.3614
  17438283.184   -28943738.40049 -22533709.24849  17438282.2984   17438287.1674
  19822655.486    -2489995.30649  -1937393.95849  19822654.8434   19822661.0984
  21053143.528   -15781252.05449 -12270888.37749  21053140.2544   21053147.0674
 96  2 12 18 36 59.9890000  0  8 29 27 28 22 19 18 14 31
  17541625.268   -18157012.60449 -14135883.42849  17541624.6744   17541629.3874
  21591785.346    -9922894.21749  -7292423.59649  21591784.8104   21591791.9634
  20697875.440   -24105330.408 9 -18745960.936 9  20697873.450    20697880.573
  20065322.130    -5708189.70949  -4440163.94649  20065320.4154   20065326.4334
  18781009.651   -31176010.63749 -23949832.01249  18781009.4024   18781015.2654
  17413662.151   -29073125.78249 -22634530.58949  17413660.6374   17413665.6934
  19825796.906    -2473488.49649  -1924531.55449  19825795.7124   19825802.0384
  21019158.576   -15959824.17049 -12410035.39049  21019160.4904   21019166.2974
 96  2 12 18 37 29.9890000  0  8 29 27 28 22 19 18 14 31
  17529068.854   -18222995.44549 -14187298.63449  17529068.4784   17529073.1524
  21559495.210   -10092579.60349  -7424645.95549  21559495.0584   21559501.4954
  20670264.196   -24250431.228 9 -18859026.424 9  20670261.578    20670268.161
  20066561.385    -5701676.27549  -4435088.56549  20066559.6974   20066566.1414
  18753426.350   -31320964.71549 -24062783.22749  18753425.8274   18753431.5014
  17389103.255   -29202180.89849 -22735093.01649  17389102.1154   17389107.1324
  19828973.522    -2456800.88849  -1911528.29249  19828971.7224   19828977.6294
  20985190.554   -16138345.01149 -12549142.45849  20985188.5544   20985195.3524
 96  2 12 18 37 59.9890000  0  8 29 27 28 22 19 18 14 31
  17516582.974   -18288608.11049 -14238425.38049  17516582.9704   17516587.2774
  21527213.745   -10262222.20049  -7556834.94049  21527213.8864   21527220.1734
  20642714.399   -24395207.169 9 -18971838.749 9  20642712.061    20642718.571
  20067851.361    -5694890.97149  -4429801.35449  20067850.6054   20067857.1074
  18725876.393   -31465738.22849 -24175593.74249  18725875.9924   18725882.0914
  17364607.143   -29330909.30849 -22835400.87449  17364606.1504   17364611.0394
  19832179.023    -2439951.27549  -1898398.79249  19832178.3854   19832184.0004
  20951227.354   -16316818.09249 -12688212.34649  20951224.4024   20951231.4294
 96  2 12 18 38 29.9890000  0  8 29 27 28 22 19 18 14 31
  17504169.677   -18353842.42549 -14289257.30549  17504169.2334   17504173.9454
  21494941.917   -10431812.11749  -7688982.85949  21494941.5774   21494947.7054
  20615226.120   -24539649.440 9 -19084391.080 9  20615225.596    20615231.900
  20069194.139    -5687833.59249  -4424302.13749  20069194.0024   20069199.8334
  18698362.448   -31610327.24049 -24288260.49049  18698361.8374   18698367.1534
  17340173.765   -29459306.71649 -22935450.79849  17340172.6574   17340177.7634
  19835416.195    -2422937.13549  -1885141.06249  19835416.3074   19835422.4194
  20917272.340   -16495240.11449 -12827242.46149  20917273.2124   20917279.2554
 96  2 12 18 38 59.9890000  0  8 29 27 28 22 19 18 14 31
  17491829.333   -18418692.79649 -14339790.07849  17491828.6734   17491833.0744
  21462677.919   -10601357.30649  -7821095.93249  21462677.2234   21462684.2184
  20587805.728   -24683752.294 9 -19196678.905 9  20587803.695    20587809.201
  20070588.963    -5680505.62149  -4418592.07049  20070588.6134   20070595.0224
  18670881.073   -31754740.60649 -24400790.37649  18670880.3264   18670886.2934
  17315805.518   -29587364.78849 -23035236.31249  17315804.3594   17315809.2444
  19838686.433    -2405757.20749  -1871754.14949  19838685.0634   19838691.7794
  20883330.584   -16673614.13449 -12966235.20449  20883330.1244   20883336.4704
 96  2 12 18 39 29.9890000  0  8 29 27 28 22 19 18 14 31
  17479560.230   -18483165.19549 -14390028.33449  17479559.8074   17479564.6994
  21430427.626   -10770840.54649  -7953160.71949  21430426.4964   21430432.2594
  20560449.348   -24827505.135 9 -19308693.988 9  20560448.188    20560453.651
  20072035.851    -5672913.14949  -4412675.90149  20072033.5294   20072038.9424
  18643434.138   -31898974.49449 -24513180.40549  18643433.6004   18643439.3494
  17291502.975   -29715074.60949 -23134750.45549  17291501.7014   17291506.9034
  19841988.583    -2388401.63249  -1858230.35749  19841988.2594   19841993.5134
  20849399.534   -16851929.31249 -13105182.10149  20849397.8754   20849403.9344
 96  2 12 18 39 59.9890000  0  8 29 27 28 22 19 18 14 31
  17467364.254   -18547255.87649 -14439969.12749  17467363.8934   17467368.5264
  21398186.650   -10940261.87549  -8085177.27249  21398185.8844   21398192.0714
  20533159.265   -24970918.360 9 -19420444.442 9  20533157.989    20533163.109
  20073523.972    -5665098.22249  -4406586.39149  20073520.8684   20073526.3014
  18616021.375   -32043026.73349 -24625428.88049  18616021.2474   18616027.5454
  17267265.793   -29842442.96049 -23233998.52749  17267264.5814   17267269.5734
  19845323.988    -2370873.76949  -1844572.32349  19845323.3264   19845329.9774
  20815477.907   -17030182.49549 -13244080.69349  20815477.2094   20815483.4954
 96  2 12 18 40 29.9890000  0  8 29 27 28 22 19 18 14 31
  17455244.360   -18610946.60749 -14489598.26649  17455243.9174   17455248.4834
  21365958.668   -11109615.66949  -8217141.21449  21365958.9784   21365965.2444
  20505934.580   -25113978.126 9 -19531919.475 9  20505934.201    20505940.222
  20075050.113    -5657071.88449  -4400332.13949  20075048.1014   20075054.1034
  18588646.449   -32186885.14249 -24737526.32849  18588646.1484   18588651.7884
  17243094.811   -29969459.05649 -23332972.10949  17243093.8554   17243098.8694
  19848693.169    -2353167.70749  -1830775.45049  19848693.1644   19848699.0694
  20781570.832   -17208363.91249 -13382923.35349  20781570.0514   20781577.6264
 96  2 12 18 40 59.9890000  0  8 29 27 28 22 19 18 14 31
  17443198.811   -18674246.13449 -14538922.58149  17443198.4264   17443202.9964
  21333745.048   -11278909.61149  -8349058.53549  21333744.6074   21333749.8074
  20478779.343   -25256681.700 9 -19643116.954 9  20478778.315    20478784.767
  20076615.700    -5648837.57249  -4393915.83849  20076614.6694   20076620.8954
  18561309.649   -32330541.54649 -24849466.36949  18561309.4744   18561314.9344
  17218994.347   -30096110.32449 -23431661.41449  17218993.3174   17218998.0534
  19852095.664    -2335288.73749  -1816843.84249  19852094.7454   19852101.6484
  20747678.910   -17386472.05449 -13521708.92049  20747677.2554   20747684.3574
 96  2 12 18 41 29.9890000  0  8 29 27 28 22 19 18 14 31
  17431225.079   -18737167.32149 -14587952.09449  17431224.8194   17431229.6624
  21301539.483   -11448146.61449  -8480931.46949  21301538.4224   21301545.8974
  20451689.664   -25399030.781 9 -19754038.218 9  20451690.048    20451696.502
  20078222.634    -5640395.57449  -4387337.68949  20078221.8254   20078227.2614
  18534013.453   -32473983.23349 -24961239.09149  18534013.4844   18534019.2394
  17194963.644   -30222392.82549 -23530063.36349  17194962.4334   17194967.5284
  19855531.082    -2317238.50449  -1802778.78849  19855529.6934   19855536.5504
  20713802.313   -17564492.23749 -13660425.93949  20713801.2844   20713808.3344
 96  2 12 18 41 59.9890000  0  8 29 27 28 22 19 18 14 31
  17419321.962   -18799718.31849 -14636693.15249  17419321.7734   17419326.5124
  21269341.765   -11617341.02649  -8612771.20749  21269341.8144   21269347.7024
  20424671.575   -25541030.062 9 -19864686.920 9  20424668.490    20424674.749
  20079868.487    -5631749.82949  -4380600.78649  20079866.5144   20079873.6374
  18506757.842   -32617212.89349 -25072846.61149  18506757.3934   18506763.4314
  17171003.779   -30348302.78049 -23628175.01649  17171002.7654   17171007.5594
  19858995.597    -2299031.25949  -1788591.38649  19858994.7484   19859001.6184
  20679943.232   -17742420.74249 -13799071.51149  20679942.3314   20679949.7384
 96  2 12 18 42 29.9890000  0  8 29 27 28 22 19 18 14 31
  17407487.794   -18861908.27549 -14685152.87449  17407487.5634   17407492.2694
  21237154.877   -11786494.33349  -8744578.93149  21237153.4624   21237159.6534
  20397715.649   -25682677.010 9 -19975061.067 9  20397713.803    20397720.377
  20081555.759    -5622876.45549  -4373686.51249  20081555.2794   20081562.3374
  18479539.000   -32760247.33149 -25184301.99949  18479538.7774   18479544.8474
  17147115.560   -30473834.90049 -23725992.25849  17147114.4974   17147119.5354
  19862489.381    -2280665.93149  -1774280.79449  19862489.7074   19862496.2944
  20646100.425   -17920269.40149 -13937654.87249  20646098.8704   20646106.0664
 96  2 12 18 42 59.9890000  0  8 29 27 28 22 19 18 14 31
  17395721.883   -18923738.06049 -14733331.94749  17395721.7834   17395726.5514
  21204979.102   -11955577.78949  -8876332.24249  21204977.8734   21204984.7554
  20370828.902   -25823964.453 9 -20085155.075 9  20370828.040    20370833.611
  20083295.248    -5613744.95949  -4366571.09849  20083293.1304   20083299.7154
  18452356.557   -32903093.18749 -25295610.43849  18452356.3944   18452361.7124
  17123302.151   -30598973.98049 -23823503.23349  17123301.2244   17123306.2554
  19866019.433    -2262127.20549  -1759835.10649  19866017.7974   19866023.9704
  20612271.434   -18098029.39849 -14076169.13549  20612272.0614   20612279.9684
 96  2 12 18 43 29.9890000  0  8 29 27 28 22 19 18 14 31
  17384028.110   -18985190.40849 -14781216.90049  17384027.7264   17384032.4194
  21172820.461   -12124569.78849  -9008014.32649  21172818.9764   21172827.0324
  20344012.186   -25964880.034 9 -20194959.332 9  20344012.503    20344017.760
  20085082.476    -5604348.81649  -4359249.45249  20085081.2104   20085087.5134
  18425210.882   -33045743.85249 -25406766.78549  18425210.7144   18425216.2134
  17099564.100   -30723721.77949 -23920709.31349  17099562.8254   17099567.7264
  19869580.092    -2243413.57849  -1745253.12749  19869578.5764   19869584.9044
  20578466.891   -18275682.63749 -14214600.20749  20578465.2944   20578473.6044
 96  2 12 18 43 59.9890000  0  8 29 27 28 22 19 18 14 31
  17372408.896   -19046250.90949 -14828796.50449  17372408.3984   17372412.9644
  21140679.096   -12293460.93349  -9139617.77749  21140680.9474   21140687.2344
  20317270.922   -26105423.265 9 -20304473.467 9  20317268.202    20317273.515
  20086915.756    -5594708.50549  -4351737.54649  20086915.1074   20086921.4864
  18398101.159   -33188208.63949 -25517778.27949  18398100.6864   18398106.2284
  17075897.440   -30848088.51649 -24017618.45949  17075896.5554   17075901.4634
  19873171.814    -2224535.52349  -1730543.01849  19873171.2914   19873177.8554
  20544677.147   -18453243.71749 -14352959.47149  20544677.1214   20544683.8734
 96  2 12 18 44 29.9890000  0  8 29 27 28 22 19 18 14 31
  17360865.582   -19106909.45149 -14876062.91449  17360865.5164   17360870.1824
  21108563.265   -12462256.30649  -9271146.61749  21108560.7824   21108567.5334
  20290596.053   -26245589.819 9 -20413694.080 9  20290595.071    20290600.534
  20088795.286    -5584831.09949  -4344040.88849  20088795.7204   20088801.8114
  18371026.706   -33330482.48649 -25628640.99549  18371026.7294   18371032.6374
  17052304.401   -30972071.87649 -24114228.87249  17052303.5094   17052308.3124
  19876795.578    -2205491.00149  -1715703.19149  19876794.6744   19876801.7244
  20510905.452   -18630713.61649 -14491247.68549  20510905.3514   20510912.2354
 96  2 12 18 44 59.9890000  0  8 29 27 28 22 19 18 14 31
  17349397.532   -19167174.24249 -14923022.50549  17349397.6514   17349402.2944
  21076453.343   -12630979.80949  -9402619.46649  21076452.9364   21076459.9764
  20263994.318   -26385389.537 9 -20522628.865 9  20263991.714    20263997.779
  20090713.831    -5574754.74549  -4336189.20649  20090712.2014   20090719.4654
  18343989.945   -33472564.16349 -25739353.97549  18343989.8594   18343995.2944
  17028782.968   -31095677.05149 -24210544.59849  17028781.9574   17028787.1154
  19880445.708    -2186307.22449  -1700754.85149  19880445.1664   19880452.1784
  20477153.773   -18808085.92149 -14629459.87149  20477152.7904   20477160.0124
 96  2 12 18 45 29.9880000  0  8 29 27 28 22 19 18 14 31
  17338005.006   -19227041.43549 -14969672.27949  17338005.0294   17338009.6834
  21044355.576   -12799653.80549  -9534053.75049  21044355.3374   21044361.0434
  20237460.838   -26524820.822 9 -20631276.562 9  20237459.294    20237464.844
  20092662.034    -5564513.88949  -4328209.34649  20092661.4294   20092668.3864
  18316990.997   -33614442.13249 -25849908.21449  18316991.0914   18316996.7674
  17005331.108   -31218916.29749 -24306575.18349  17005330.3974   17005335.2844
  19884118.825    -2167005.65649  -1685714.73649  19884118.5584   19884125.2704
  20443418.104   -18985361.80649 -14767596.94249  20443418.5864   20443425.1554
 96  2 12 18 45 59.9880000  0  8 29 27 28 22 19 18 14 31
  17326689.275   -19286507.33249 -15016009.35149  17326688.9514   17326693.7164
  21012266.245   -12968289.76549  -9665458.37949  21012264.7354   21012271.1014
  20210997.610   -26663881.667 9 -20739635.604 9  20210996.635    20211002.658
  20094646.225    -5554096.01949  -4320091.55349  20094643.3884   20094651.3224
  18290031.067   -33756119.07949 -25960305.81749  18290030.5874   18290036.6594
  16981951.024   -31341783.22849 -24402315.65849  16981949.5814   16981954.6494
  19887817.961    -2147569.63449  -1670569.84449  19887817.4614   19887823.8804
  20409703.892   -19162544.72049 -14905661.57849  20409701.6484   20409707.8894
 96  2 12 18 46 29.9880000  0  8 29 27 28 22 19 18 14 31
  17315449.221   -19345574.25249 -15062035.52649  17315449.0714   17315453.6724
  20980182.177   -13136885.41949  -9796831.59249  20980182.5674   20980189.0054
  20184608.314   -26802560.663 9 -20847697.102 9  20184606.576    20184612.952
  20096664.073    -5543484.41149  -4311822.80449  20096662.0184   20096669.5134
  18263110.011   -33897589.08649 -26070542.17249  18263109.7864   18263115.3774
  16958644.302   -31464258.16049 -24497750.67249  16958643.3734   16958648.2964
  19891542.909    -2127998.18249  -1655319.43349  19891541.6544   19891548.3344
  20376006.793   -19339621.09649 -15043643.19849  20376005.3934   20376011.9014
 96  2 12 18 46 59.9880000  0  8 29 27 28 22 19 18 14 31
  17304286.139   -19404237.65749 -15107747.27749  17304285.8584   17304290.5804
  20948111.681   -13305422.22949  -9928158.94749  20948111.3604   20948117.3004
  20158290.801   -26940850.823 9 -20955455.609 9  20158290.544    20158297.010
  20098722.168    -5532671.57049  -4303397.26349  20098720.6604   20098727.2674
  18236227.795   -34038859.17149 -26180622.73949  18236226.8884   18236232.6514
  16935412.240   -31586344.01949 -24592882.51649  16935411.3064   16935416.1934
  19895292.932    -2108292.44149  -1639964.37149  19895291.9104   19895298.2844
  20342329.810   -19516588.66149 -15181540.04749  20342329.2154   20342336.0194
 96  2 12 18 47 29.9880000  0  8 29 27 28 22 19 18 14 31
  17293197.938   -19462508.44449 -15153153.09349  17293197.3444   17293201.9984
  20916053.499   -13473886.21149 -10059429.55849  20916053.5384   20916059.3834
  20132049.596   -27078757.904 9 -21062915.627 9  20132047.979    20132053.760
  20100816.852    -5521655.33249  -4294813.21249  20100817.1694   20100822.9774
  18209380.745   -34179939.83649 -26290555.70549  18209380.2944   18209385.9304
  16912249.929   -31708061.98949 -24687727.68749  16912249.2484   16912254.0984
  19899066.733    -2088455.50849  -1624507.08649  19899066.8264   19899073.0734
  20308673.766   -19693451.21749 -15319355.05849  20308673.5934   20308680.5314
 96  2 12 18 47 59.9880000  0  8 29 27 28 22 19 18 14 31
  17282182.774   -19520394.08549 -15198258.79449  17282182.1334   17282186.7084
  20884011.923   -13642270.20849 -10190637.82749  20884010.9634   20884017.2844
  20105880.388   -27216280.390 9 -21170075.988 9  20105879.065    20105884.394
  20102955.013    -5510431.88149  -4286067.70049  20102952.7014   20102958.8744
  18182568.374   -34320840.21649 -26400348.19449  18182568.3014   18182573.6744
  16889159.967   -31829402.16349 -24782278.47849  16889158.9924   16889163.8144
  19902866.935    -2068490.71149  -1608950.18549  19902866.0794   19902872.4064
  20275040.604   -19870205.43949 -15457085.66049  20275038.4584   20275044.7274
 96  2 12 18 48 29.9880000  0  8 29 27 28 22 19 18 14 31
  17271240.611   -19577892.53849 -15243062.79149  17271240.1724   17271244.7994
  20851984.071   -13810573.13749 -10321782.92849  20851983.7344   20851989.1804
  20079784.251   -27353414.775 9 -21276933.945 9  20079782.469    20079788.599
  20105128.704    -5499011.59949  -4277168.83249  20105126.0354   20105132.1214
  18155789.557   -34461565.69949 -26510004.40249  18155788.7774   18155794.0784
  16866140.592   -31950369.10949 -24876538.44049  16866139.5974   16866144.5854
  19906690.006    -2048408.17349  -1593301.52749  19906688.0454   19906693.9854
  20241425.842   -20046847.61949 -15594728.95549  20241424.6234   20241432.0484
 96  2 12 18 48 59.9880000  0  8 29 27 28 22 19 18 14 31
  17260372.585   -19635006.14949 -15287566.90849  17260372.0854   17260376.8154
  20819974.185   -13978790.49749 -10452861.35749  20819973.9544   20819979.2474
  20053762.747   -27490155.666 9 -21383485.278 9  20053761.564    20053767.325
  20107336.871    -5487402.48749  -4268122.80449  20107334.9244   20107341.7184
  18129044.362   -34602110.82849 -26619520.07849  18129043.8404   18129049.3394
  16843191.076   -32070967.55649 -24970511.25349  16843190.3354   16843195.4264
  19910532.586    -2028210.44949  -1577563.08949  19910530.7274   19910537.7564
  20207836.136   -20223357.42249 -15732269.08849  20207835.4624   20207843.0424
 96  2 12 18 49 29.9880000  0  8 29 27 28 22 19 18 14 31
  17249577.199   -19691734.67249 -15331770.97149  17249576.8994   17249581.8624
  20787974.991   -14146942.36649 -10583888.75749  20787975.4304   20787981.5754
  20027816.263   -27626504.527 9 -21489731.128 9  20027815.408    20027821.409
  20109581.041    -5475612.61649  -4258935.93749  20109578.5394   20109585.5304
  18102333.448   -34742474.94149 -26728894.70749  18102333.4894   18102339.1044
  16820313.112   -32191194.13649 -25064194.30849  16820312.1134   16820317.2114
  19914394.024    -2007908.19049  -1561743.21449  19914394.5404   19914400.8994
  20174273.567   -20399732.20449 -15869703.99749  20174272.1854   20174279.8774
 96  2 12 18 49 59.9880000  0  8 29 27 28 22 19 18 14 31
  17238856.509   -19748073.55649 -15375671.43449  17238855.6424   17238860.7924
  20755985.229   -14315055.17149 -10714885.69949  20755984.1354   20755990.3324
  20001943.826   -27762465.305 9 -21595674.573 9  20001942.979    20001948.898
  20111855.544    -5463656.19149  -4249619.28749  20111854.6524   20111860.1354
  18075653.430   -34882680.49449 -26838145.78949  18075653.2914   18075658.4524
  16797505.706   -32311049.06749 -25157587.76049  16797504.2814   16797509.4264
  19918274.979    -1987519.89749  -1545856.28849  19918273.8444   19918280.7254
  20140733.433   -20575984.67449 -16007043.57949  20140733.4484   20140740.1224
 96  2 12 18 50 29.9880000  0  8 29 27 28 22 19 18 14 31
  17228210.539   -19804018.48049 -15419264.89549  17228209.9704   17228214.7984
  20724001.095   -14483123.43149 -10845847.92049  20724001.3124   20724008.7374
  19976146.314   -27898030.902 9 -21701310.095 9  19976145.497    19976151.599
  20114163.997    -5451531.43149  -4240171.46449  20114161.7394   20114168.0904
  18049004.321   -35022722.95449 -26947269.78449  18049003.8364   18049009.5124
  16774770.442   -32430523.06949 -25250684.38749  16774769.2774   16774774.4014
  19922172.470    -1967039.06249  -1529897.26149  19922171.3804   19922178.2454
  20107221.612   -20752094.93949 -16144272.30749  20107220.3684   20107227.9604
 96  2 12 18 50 59.9880000  0  8 29 27 28 22 19 18 14 31
  17217638.692   -19859573.49149 -15462554.51749  17217638.2654   17217643.0104
  20692028.707   -14651145.30649 -10976774.03649  20692028.3934   20692035.1824
  19950425.068   -28033196.058 9 -21806633.591 9  19950424.560    19950430.502
  20116503.700    -5439229.69749  -4230585.73049  20116502.4574   20116508.9524
  18022389.359   -35162586.07849 -27056254.03049  18022389.2324   18022394.8504
  16752111.408   -32549595.98449 -25343468.47949  16752110.5234   16752115.7544
  19926087.848    -1946461.64149  -1513862.96449  19926087.8664   19926093.3934
  20073735.626   -20928059.76249 -16281387.68749  20073735.6494   20073742.8114
 96  2 12 18 51 29.9880000  0  8 29 27 28 22 19 18 14 31
  17207139.886   -19914742.70149 -15505543.51949  17207139.9504   17207144.7094
  20660062.296   -14819134.16349 -11107674.42149  20660060.9444   20660067.5574
  19924779.473   -28167963.639 9 -21911647.287 9  19924779.218    19924785.160
  20118878.946    -5426754.72249  -4220865.01649  20118876.3834   20118882.1164
  17995807.983   -35302270.79949 -27165099.26649  17995807.7344   17995813.8134
  16729526.742   -32668279.68149 -25435949.28849  16729525.7194   16729530.6904
  19930022.528    -1925791.21449  -1497756.20149  19930021.1414   19930027.2894
  20040275.828   -21103891.26749 -16418399.17249  20040275.7774   20040282.8624
 96  2 12 18 51 59.9880000  0  8 29 27 28 22 19 18 14 31
  17196711.943   -19969541.93549 -15548244.22749  17196711.8514   17196716.7044
  20628100.316   -14987086.52449 -11238546.35349  20628099.6914   20628107.0654
  19899211.044   -28302329.981 9 -22016348.321 9  19899210.330    19899216.455
  20121285.887    -5414100.53249  -4211004.65049  20121283.7854   20121290.3484
  17969262.891   -35441766.92149 -27273797.54349  17969262.5334   17969268.2924
  16707015.773   -32786575.49949 -25528127.85249  16707014.8274   16707019.9394
  19933974.180    -1905017.35449  -1481568.83449  19933974.2624   19933980.8994
  20006843.965   -21279578.23249 -16555298.01549  20006844.0084   20006849.9814
 96  2 12 18 52 29.9880000  0  8 29 27 28 22 19 18 14 31
  17186352.943   -20023980.87849 -15590664.19349  17186352.6564   17186357.2454
  20596150.567   -15154986.22949 -11369377.24049  20596150.0614   20596157.2624
  19873719.863   -28436287.702 9 -22120730.943 9  19873718.797    19873725.065
  20123726.250    -5401268.37649  -4201005.59849  20123726.5414   20123732.6744
  17942758.242   -35581046.62949 -27382327.18849  17942758.2764   17942764.3104
  16684581.235   -32904469.64449 -25619993.42649  16684580.3194   16684585.4464
  19937952.026    -1884121.38749  -1465286.33649  19937950.0724   19937958.2384
  19973441.201   -21455115.68149 -16692080.33549  19973440.2674   19973446.4504
 96  2 12 18 52 59.9880000  0  8 29 27 28 22 19 18 14 31
  17176062.318   -20078057.59349 -15632801.89149  17176062.1254   17176066.9214
  20564208.767   -15322836.47149 -11500169.58949  20564209.1264   20564216.1664
  19848306.295   -28569841.768 9 -22224799.041 9  19848304.845    19848310.848
  20126202.168    -5388262.79949  -4190871.41649  20126201.5914   20126206.9014
  17916296.036   -35720110.55749 -27490688.68849  17916295.1864   17916301.1194
  16662219.214   -33021985.65249 -25711564.34749  16662217.6314   16662222.8844
  19941947.821    -1863113.73749  -1448916.81949  19941948.9554   19941955.3234
  19940063.909   -21630512.27549 -16828752.89249  19940062.9704   19940069.3764
 96  2 12 18 53 29.9880000  0  8 29 27 28 22 19 18 14 31
  17165842.443   -20131766.69149 -15674653.14549  17165841.8934   17165846.4054
  20532277.788   -15490636.33849 -11630922.70749  20532278.2564   20532284.3624
  19822966.125   -28702993.688 9 -22328553.770 9  19822966.684    19822972.678
  20128707.613    -5375092.12649  -4180608.57949  20128708.2654   20128712.9454
  17889871.044   -35858972.78949 -27598893.02749  17889870.8464   17889876.7504
  16639927.020   -33139130.55249 -25802846.09149  16639926.0114   16639930.9434
  19945968.130    -1841999.65849  -1432464.35749  19945966.2684   19945974.1104
  19906715.816   -21805762.78249 -16965311.59849  19906714.2794   19906720.7964
 96  2 12 18 53 59.9870000  0  8 29 27 28 22 19 18 14 31
  17155694.928   -20185090.38149 -15716204.08249  17155694.5384   17155699.3624
  20500362.041   -15658361.98149 -11761617.96649  20500360.0524   20500368.0304
  19797707.559   -28835738.245 9 -22431991.067 9  19797705.701    19797711.849
  20131244.289    -5361766.26749  -4170224.82349  20131242.5494   20131249.7804
  17863484.458   -35997639.12049 -27706944.71449  17863483.4064   17863489.1394
  16617710.439   -33255878.81749 -25893818.76849  16617709.4244   16617714.3684
  19950003.592    -1820783.74649  -1415932.53749  19950003.5984   19950010.4064
  19873396.007   -21980860.27649 -17101751.08149  19873393.9114   19873400.9414
 96  2 12 18 54 29.9870000  0  8 29 27 28 22 19 18 14 31
  17145627.045   -20237999.07249 -15757431.64749  17145626.3854   17145630.9984
  20468460.062   -15826004.20749 -11892248.22549  20468459.1974   20468466.1134
  19772522.449   -28968073.781 9 -22535109.652 9  19772522.631    19772529.490
  20133811.008    -5348281.83549  -4159717.51349  20133810.0934   20133816.0914
  17837132.714   -36136117.65849 -27814850.06549  17837132.1354   17837137.7454
  16595571.153   -33372221.99649 -25984475.79749  16595570.0704   16595574.9494
  19954060.508    -1799469.59249  -1399324.17549  19954059.4324   19954066.4794
  19840101.515   -22155814.58149 -17238078.97549  19840101.1064   19840108.0444
 96  2 12 18 54 59.9870000  0  8 29 27 28 22 19 18 14 31
  17135638.498   -20290485.42349 -15798330.10049  17135638.3694   17135643.1394
  20436573.789   -15993567.00049 -12022816.58449  20436573.5164   20436579.8654
  19747421.545   -29099992.751 9 -22637903.641 9  19747419.883    19747425.866
  20136407.111    -5334636.45549  -4149084.78549  20136405.6634   20136412.5424
  17810816.271   -36274409.99449 -27922610.32749  17810816.0384   17810821.3524
  16573510.558   -33488151.09249 -26074810.15949  16573509.6604   16573514.5364
  19958132.036    -1778071.25549  -1382650.21649  19958132.0314   19958138.6024
  19806840.277   -22330604.03349 -17374278.41649  19806839.6674   19806845.9984
 96  2 12 18 55 29.9870000  0  8 29 27 28 22 19 18 14 31
  17125730.321   -20342554.20949 -15838903.19349  17125730.0394   17125734.9824
  20404702.774   -16161056.03149 -12153327.47749  20404701.1924   20404707.9894
  19722396.946   -29231493.806 9 -22740371.963 9  19722395.774    19722401.945
  20139032.249    -5320844.93649  -4138338.18549  20139031.2594   20139037.3254
  17784533.919   -36412521.96249 -28030230.04349  17784533.8824   17784539.3344
  16551532.071   -33603650.59949 -26164809.78449  16551530.6534   16551535.7244
  19962219.445    -1756589.87049  -1365911.53249  19962219.5814   19962226.8514
  19773611.906   -22505230.19149 -17510350.62149  19773609.1734   19773616.3414
 96  2 12 18 55 59.9870000  0  8 29 27 28 22 19 18 14 31
  17115900.428   -20394208.69549 -15879153.45249  17115900.6124   17115905.6854
  20372842.054   -16328473.23549 -12283782.38049  20372843.3244   20372849.0344
  19697452.989   -29362578.181 9 -22842515.608 9  19697452.064    19697457.465
  20141682.353    -5306916.81149  -4127485.13649  20141680.5664   20141688.1494
  17758286.358   -36550457.72549 -28137712.45649  17758285.9464   17758291.4334
  16529633.489   -33718727.83949 -26254480.37049  16529632.2194   16529637.2294
  19966322.668    -1735031.15949  -1349112.60649  19966322.3174   19966329.5724
  19740409.380   -22679698.75649 -17646300.04149  19740408.7144   19740415.4134
 96  2 12 18 56 29.9870000  0  8 29 27 28 22 19 18 14 31
  17106144.917   -20445478.52149 -15919103.97949  17106144.3564   17106149.2854
  20340995.677   -16495832.35349 -12414192.03449  20340995.7124   20341002.5394
  19672586.496   -29493241.648 9 -22944331.284 9  19672586.840    19672592.872
  20144360.033    -5292854.31549  -4116527.39049  20144357.2384   20144364.0914
  17732071.850   -36688212.31649 -28245053.69049  17732071.6784   17732077.5274
  16507814.460   -33833385.37449 -26343823.91249  16507813.5244   16507818.6634
  19970438.891    -1713400.42349  -1332257.56249  19970439.1024   19970445.1304
  19707240.681   -22854002.89249 -17782121.34549  19707240.2694   19707246.8254
 96  2 12 18 56 59.9870000  0  8 29 27 28 22 19 18 14 31
  17096457.832   -20496385.37749 -15958771.67249  17096457.3454   17096462.1614
  20309156.806   -16663152.20349 -12544571.09349  20309156.1154   20309162.1634
  19647803.510   -29623488.425 9 -23045822.268 9  19647801.719    19647807.678
  20147059.046    -5278666.09049  -4105471.66649  20147057.4884   20147064.4184
  17705890.687   -36825795.19649 -28352261.12449  17705890.3194   17705896.4844
  16486073.891   -33947635.77049 -26432850.19949  16486072.5074   16486077.6794
  19974570.361    -1691692.80049  -1315342.60849  19974568.8554   19974575.7834
  19674103.342   -23028136.17649 -17917809.51949  19674103.3154   19674109.4194
 96  2 12 18 57 29.9870000  0  8 29 27 28 22 19 18 14 31
  17086841.495   -20546919.20549 -15998148.69649  17086840.8344   17086845.8464
  20277325.483   -16830416.14149 -12674906.58049  20277325.9224   20277333.0514
  19623097.359   -29753309.472 9 -23146981.511 9  19623097.551    19623103.374
  20149785.459    -5264338.37149  -4094307.24949  20149783.2374   20149789.9014
  17679742.578   -36963206.11949 -28459334.56749  17679742.0884   17679747.7254
  16464408.342   -34061486.62249 -26521565.15349  16464407.3364   16464412.5614
  19978713.227    -1669904.31349  -1298364.64549  19978715.8804   19978723.1164
  19640998.979   -23202103.66349 -18053368.52349  19640997.9194   19641004.5594
 96  2 12 18 57 59.9870000  0  8 29 27 28 22 19 18 14 31
  17077292.560   -20597097.09149 -16037248.36949  17077292.1514   17077297.2674
  20245504.043   -16997642.59249 -12805212.86949  20245503.8734   20245510.4474
  19598477.227   -29882708.655 9 -23247812.041 9  19598474.293    19598479.618
  20152537.930    -5249870.59649  -4083033.69449  20152535.7744   20152542.9394
  17653626.794   -37100448.42149 -28566276.61749  17653626.1594   17653631.9424
  16442819.008   -34174937.83949 -26609968.70749  16442818.4534   16442823.3744
  19982870.573    -1648060.51249  -1281343.57949  19982871.4814   19982878.6464
  19607927.132   -23375901.88149 -18188795.63249  19607925.7324   19607932.6514
 96  2 12 18 58 29.9870000  0  8 29 27 28 22 19 18 14 31
  17067812.178   -20646914.65449 -16076067.26349  17067812.4254   17067817.2254
  20213689.520   -17164832.66249 -12935490.83049  20213688.2974   20213694.7664
  19573934.018   -30011681.041 9 -23348309.999 9  19573931.665    19573937.015
  20155316.624    -5235263.74149  -4071651.76649  20155316.2244   20155322.8314
  17627545.419   -37237506.09549 -28673074.80649  17627544.5954   17627550.6224
  16421307.509   -34287983.81449 -26698056.49149  16421306.5274   16421311.5444
  19987038.113    -1626169.23149  -1264285.52249  19987037.8574   19987044.9894
  19574887.678   -23549512.71649 -18324076.73449  19574887.9734   19574894.5494
 96  2 12 18 58 59.9870000  0  8 29 27 28 22 19 18 14 31
  17058405.222   -20696347.05149 -16114586.02849  17058405.6464   17058410.6494
  20181882.473   -17331977.27549 -13065733.35349  20181882.0724   20181888.5804
  19549471.286   -30140223.790 9 -23448473.157 9  19549470.633    19549476.191
  20158123.300    -5220519.40249  -4060162.70649  20158122.7514   20158129.4984
  17601499.576   -37374375.46549 -28779726.25449  17601499.2204   17601504.9464
  16399871.421   -34400632.68449 -26785834.83749  16399870.3054   16399874.9314
  19991214.385    -1604226.07249  -1247187.02549  19991212.9324   19991220.9414
  19541888.281   -23722928.62349 -18459205.95949  19541888.5674   19541894.6154
 96  2 12 18 59 29.9870000  0  8 29 27 28 22 19 18 14 31
  17049074.567   -20745386.59549 -16152798.67449  17049074.0644   17049078.8134
  20150086.815   -17499069.74649 -13195935.23949  20150085.9204   20150091.6184
  19525095.844   -30268334.403 9 -23548299.604 9  19525091.977    19525097.782
  20160953.432    -5205649.83049  -4048576.05149  20160952.2564   20160959.3054
  17575490.126   -37511058.16249 -28886232.24749  17575489.4584   17575495.4044
  16378510.160   -34512886.83249 -26873305.61549  16378508.9284   16378513.6704
  19995392.414    -1582260.06249  -1230070.72649  19995394.3484   19995400.8014
  19508928.204   -23896142.13749 -18594177.47749  19508926.6944   19508933.0254
 96  2 12 18 59 59.9870000  0  8 29 27 28 22 19 18 14 31
  17039819.542   -20794020.34449 -16190695.11549  17039819.2664   17039824.1674
  20118300.289   -17666105.05649 -13326092.60049  20118299.8754   20118306.1374
  19500798.622   -30396004.615 9 -23647782.861 9  19500796.622    19500803.064
  20163803.551    -5190668.16749  -4036902.08449  20163803.2244   20163809.7434
  17549515.175   -37647552.54349 -28992591.49949  17549515.4584   17549521.2174
  16357226.160   -34624732.27549 -26960457.91549  16357225.4044   16357230.3554
  19999580.641    -1560267.31549  -1212933.59349  19999578.7094   19999585.4244
  19476009.736   -24069129.99849 -18728973.14849  19476008.2294   19476014.7274
 96  2 12 19  0 29.9870000  0  8 29 27 28 22 19 18 14 31
  17030644.645   -20842235.26049 -16228265.19749  17030644.0964   17030649.1944
  20086528.013   -17833068.50149 -13456193.95849  20086527.8794   20086533.8274
  19476584.142   -30523237.615 9 -23746925.444 9  19476584.708    19476591.069
  20166674.786    -5175585.14949  -4025149.13149  20166672.7674   20166679.8734
  17523574.663   -37783874.84349 -29098816.65949  17523574.2364   17523579.8174
  16336018.337   -34736182.95249 -27047302.60849  16336017.1154   16336022.0084
  20003772.409    -1538227.81549  -1195760.02249  20003772.3284   20003779.2504
  19443132.016   -24241905.92649 -18863603.69249  19443130.3234   19443136.5104
 96  2 12 19  0 59.9870000  0  8 29 27 28 22 19 18 14 31
  17021546.464   -20890044.31949 -16265519.02649  17021546.2704   17021551.2984
  20054769.614   -17999961.78049 -13586240.62449  20054768.5234   20054775.6324
  19452458.289   -30650031.215 9 -23845725.653 9  19452457.416    19452463.086
  20169566.335    -5160399.05449  -4013315.87549  20169563.1114   20169569.3214
  17497664.026   -37920036.40649 -29204916.56849  17497663.7744   17497669.6574
  16314886.036   -34847232.75949 -27133834.93649  16314885.1684   16314890.1754
  20007976.324    -1516141.16649  -1178549.73249  20007975.9944   20007982.8334
  19410291.153   -24414480.30049 -18998077.18849  19410290.7154   19410296.5744
 96  2 12 19  1 29.9870000  0  8 29 27 28 22 19 18 14 31
  17012522.987   -20937463.76849 -16302469.25349  17012522.6774   17012527.6714
  20023021.359   -18166798.13649 -13716242.96349  20023020.7394   20023027.0004
  19428413.124   -30776387.037 9 -23944184.741 9  19428412.430    19428418.119
  20172474.540    -5145110.74549  -4001402.96149  20172472.9874   20172478.8144
  17471781.813   -38056047.34849 -29310899.11349  17471781.7034   17471787.4274
  16293832.556   -34957869.98249 -27220045.77049  16293831.6224   16293836.6454
  20012183.813    -1494025.97649  -1161317.19849  20012183.9844   20012191.2964
  19377486.601   -24586864.40749 -19132402.42749  19377486.5574   19377492.7134
 96  2 12 19  1 59.9870000  0  8 29 27 28 22 19 18 14 31
  17003570.531   -20984510.07949 -16339128.72949  17003570.2374   17003575.0224
  19991282.269   -18333577.50649 -13846200.90749  19991282.7764   19991289.4964
  19404453.318   -30902303.429 9 -24042301.413 9  19404451.529    19404457.599
  20175402.504    -5129718.30449  -3989408.89149  20175401.1684   20175409.9324
  17445931.772   -38191893.14349 -29416752.97349  17445931.0044   17445936.7264
  16272862.354   -35068070.83249 -27305916.57449  16272861.0004   16272865.8544
  20016401.913    -1471864.79949  -1144048.82549  20016401.3974   20016408.5474
  19344717.729   -24759066.56549 -19266585.88149  19344717.9814   19344723.7474
 96  2 12 19  2 29.9870000  0  8 29 27 28 22 19 18 14 31
  16994684.591   -21031208.57949 -16375517.19249  16994683.3774   16994688.5264
  19959557.787   -18500298.92049 -13976113.67449  19959556.7164   19959563.6204
  19380574.481   -31027778.489 9 -24140074.187 9  19380573.900    19380580.416
  20178352.430    -5114221.42249  -3977333.42849  20178351.8114   20178357.2304
  17420116.491   -38327551.18749 -29522460.52849  17420115.9254   17420121.6994
  16251975.283   -35177831.47349 -27391444.35249  16251974.1704   16251979.1474
  20020627.867    -1449658.36149  -1126745.18449  20020627.1394   20020634.4474
  19311982.936   -24931094.10649 -19400633.28149  19311981.4704   19311988.0904
 96  2 12 19  2 59.9860000  0  8 29 27 28 22 19 18 14 31
  16985861.545   -21077569.20249 -16411642.37349  16985861.5964   16985866.7874
  19927843.911   -18666963.25649 -14105981.97949  19927842.7964   19927848.8074
  19356781.499   -31152806.816 9 -24237498.867 9  19356781.984    19356788.557
  20181321.527    -5098622.17249  -3965178.15149  20181318.6784   20181325.1704
  17394341.926   -38462996.18349 -29628002.07849  17394341.9404   17394347.5144
  16231170.718   -35287158.50749 -27476634.25549  16231169.9694   16231174.9494
  20024856.585    -1427434.06549  -1109427.63249  20024856.0884   20024863.4294
  19279282.524   -25102927.38549 -19534529.28049  19279282.3344   19279289.9624
 96  2 12 19  3 29.9860000  0  8 29 27 28 22 19 18 14 31
  16977105.407   -21123585.21349 -16447499.02049  16977105.2564   16977110.2364
  19896137.368   -18833581.15349 -14235814.09249  19896136.4654   19896142.5114
  19333076.336   -31277398.447 9 -24334583.273 9  19333073.331    19333079.500
  20184307.878    -5082917.73249  -3952940.89749  20184307.2674   20184314.6114
  17368605.517   -38598243.42749 -29733389.53049  17368604.9184   17368610.6654
  16210444.949   -35396075.16349 -27561504.38349  16210443.9064   16210448.8934
  20029088.948    -1405195.34349  -1092098.84649  20029088.2604   20029095.3744
  19246621.795   -25274571.67549 -19668278.01749  19246620.7604   19246626.8494
 96  2 12 19  3 59.9860000  0  8 29 27 28 22 19 18 14 31
  16968419.645   -21169231.61049 -16483067.67049  16968419.1194   16968423.9434
  19864443.098   -19000127.07049 -14365590.12449  19864443.6314   19864448.9644
  19309453.450   -31401533.473 9 -24431311.874 9  19309451.557    19309457.427
  20187321.631    -5067093.59349  -3940610.41649  20187319.3904   20187326.2044
  17342911.603   -38733266.98449 -29838602.68549  17342910.8244   17342916.9304
  16189798.275   -35504573.97549 -27646048.92549  16189797.2424   16189802.2354
  20033329.647    -1382921.31149  -1074742.55049  20033326.2274   20033333.8364
  19213997.822   -25446002.98949 -19801860.81549  19213997.5934   19214004.0364
 96  2 12 19  4 29.9860000  0  8 29 27 28 22 19 18 14 31
  16959809.785   -21214475.90149 -16518322.96849  16959809.3304   16959814.1564
  19832764.879   -19166605.83949 -14495313.85149  19832763.9834   19832769.5164
  19285917.893   -31525207.014 9 -24527680.861 9  19285916.828    19285922.827
  20190357.807    -5051133.82149  -3928174.24749  20190355.0334   20190363.8434
  17317256.672   -38868081.80049 -29943653.17749  17317256.3434   17317262.5694
  16169228.780   -35612668.62949 -27730278.52749  16169227.6244   16169232.5974
  20037572.504    -1360617.64549  -1057363.15849  20037571.2684   20037578.7954
  19181419.108   -25617211.66549 -19935270.12849  19181418.1774   19181424.6514
 96  2 12 19  4 59.9860000  0  8 29 27 28 22 19 18 14 31
  16951278.437   -21259306.75549 -16553256.12649  16951278.2444   16951282.9354
  19801093.096   -19333041.15749 -14625003.68649  19801092.4784   19801097.6574
  19262471.213   -31648430.730 9 -24623699.347 9  19262468.389    19262474.276
  20193418.415    -5035043.98549  -3915636.76849  20193416.8914   20193424.8274
  17291635.469   -39002726.57849 -30048571.17949  17291634.6764   17291640.0684
  16148732.696   -35720373.29349 -27814204.24949  16148732.2364   16148737.1244
  20041816.347    -1338310.71549  -1039981.21849  20041816.1344   20041823.1854
  19148880.736   -25788203.64649 -20068510.58449  19148878.7914   19148885.1434
 96  2 12 19  5 29.9860000  0  8 29 27 28 22 19 18 14 31
  16942827.450   -21303717.09249 -16587861.60449  16942827.1414   16942831.9824
  19769428.513   -19499437.55049 -14754663.21749  19769428.2074   19769433.9084
  19239108.374   -31771201.179 9 -24719364.635 9  19239105.767    19239111.484
  20196505.150    -5018826.52349  -3902999.84249  20196503.2404   20196511.1174
  17266043.601   -39137210.06349 -30153363.49949  17266042.8314   17266048.8314
  16128318.391   -35827653.74849 -27897799.41149  16128317.3624   16128322.2224
  20046061.568    -1315994.63649  -1022592.16349  20046063.0354   20046069.8964
  19116381.322   -25958983.56049 -20201585.80649  19116380.6914   19116387.7144
 96  2 12 19  5 59.9860000  0  8 29 27 28 22 19 18 14 31
  16934454.012   -21347721.15949 -16622150.50749  16934453.6114   16934458.5024
  19737771.667   -19665796.36849 -14884293.46049  19737771.2124   19737777.3914
  19215828.919   -31893522.046 9 -24814679.578 9  19215828.803    19215834.809
  20199612.087    -5002501.86849  -3890279.36449  20199609.9844   20199616.8224
  17240483.457   -39271528.27049 -30258027.03049  17240482.8464   17240489.1564
  16107987.332   -35934492.62349 -27981050.49449  16107986.2954   16107991.2784
  20050311.105    -1293681.30849  -1005205.24049  20050308.9084   20050317.1034
  19083921.755   -26129552.67949 -20334496.75849  19083922.0444   19083928.8664
 96  2 12 19  6 29.9860000  0  8 29 27 28 22 19 18 14 31
  16926155.757   -21391324.87649 -16656127.45249  16926156.1574   16926161.0184
  19706121.526   -19832121.09649 -15013897.13949  19706121.0424   19706126.5274
  19192637.476   -32015393.186 9 -24909644.080 9  19192637.533    19192643.755
  20202738.048    -4986082.61549  -3877485.17149  20202734.7824   20202742.0584
  17214954.548   -39405685.17549 -30362564.87249  17214953.8694   17214959.7754
  16087740.897   -36040888.33249 -28063956.24749  16087740.0674   16087744.9064
  20054552.809    -1271383.17449   -987830.13849  20054552.3944   20054559.6174
  19051506.808   -26299902.34949 -20467236.73349  19051505.6214   19051511.5584
 96  2 12 19  6 59.9860000  0  8 29 27 28 22 19 18 14 31
  16917931.488   -21434545.65749 -16689806.00749  16917931.1534   16917936.5724
  19674478.345   -19998396.90049 -15143462.67749  19674479.5734   19674485.9064
  19169534.553   -32136808.745 9 -25004253.582 9  19169532.741    19169538.791
  20205877.903    -4969583.02249  -3864628.37049  20205875.2354   20205881.5524
  17189457.287   -39539673.83649 -30466971.61149  17189456.7844   17189462.5294
  16067581.701   -36146825.87449 -28146504.99149  16067580.7264   16067585.6444
  20058793.485    -1249097.16249   -970464.50249  20058793.1904   20058800.3144
  19019134.192   -26470029.45149 -20599803.29149  19019131.7654   19019137.6584
 96  2 12 19  7 29.9860000  0  8 29 27 28 22 19 18 14 31
  16909777.762   -21477393.22249 -16723193.74149  16909777.5324   16909782.9524
  19642851.530   -20164608.04749 -15272977.85149  19642850.2184   19642856.2864
  19146516.889   -32257766.457 9 -25098506.326 9  19146515.490    19146521.281
  20209030.297    -4953013.34449  -3851716.94449  20209028.3004   20209034.1174
  17163993.585   -39673485.70849 -30571240.59449  17163993.2444   17163999.1164
  16047510.741   -36252300.66049 -28228693.14649  16047509.8454   16047514.7024
  20063036.836    -1226807.62849   -953096.10349  20063036.0104   20063042.3884
  18986802.936   -26639923.87049 -20732188.55149  18986802.4114   18986808.0554
 96  2 12 19  7 59.9860000  0  8 29 27 28 22 19 18 14 31
  16901693.798   -21519877.27149 -16756298.22549  16901693.4814   16901698.6044
  19611231.754   -20330763.65349 -15402449.73749  19611232.2844   19611237.8154
  19123582.566   -32378275.455 9 -25192409.420 9  19123583.618    19123589.087
  20212190.426    -4936396.72149  -3838768.93049  20212189.7014   20212196.4114
  17138560.351   -39807139.01349 -30675386.01949  17138559.8414   17138565.6704
  16027520.734   -36357346.97149 -28310547.42449  16027519.9374   16027524.9344
  20067275.225    -1204525.52249   -935733.47949  20067274.8564   20067282.0274
  18954517.784   -26809581.93149 -20864389.62149  18954517.6694   18954523.5704
 96  2 12 19  8 29.9860000  0  8 29 27 28 22 19 18 14 31
  16893679.411   -21561991.64649 -16789114.64149  16893679.4254   16893684.3614
  19579622.772   -20496875.18849 -15531887.26249  19579622.3034   19579629.1174
  19100737.185   -32498336.651 9 -25285963.566 9  19100736.563    19100741.904
  20215360.942    -4919734.79649  -3825785.63049  20215360.6934   20215366.0504
  17113155.051   -39940640.99749 -30779413.53449  17113155.1164   17113161.2504
  16007609.796   -36461980.65049 -28392080.16949  16007608.7814   16007613.8794
  20071514.249    -1182252.77249   -918378.15449  20071513.1404   20071520.8004
  18922278.178   -26979007.70149 -20996409.69349  18922277.2124   18922283.1724
 96  2 12 19  8 59.9860000  0  8 29 27 28 22 19 18 14 31
  16885734.952   -21603740.88549 -16821646.54549  16885734.5664   16885739.6154
  19548021.162   -20662940.63349 -15661288.88449  19548020.4354   19548027.5684
  19077975.903   -32617944.863 9 -25379164.734 9  19077975.838    19077981.244
  20218540.273    -4903035.43349  -3812773.15449  20218538.1414   20218544.3054
  17087781.335   -40073983.01849 -30883316.40249  17087781.0304   17087786.6044
  15987778.180   -36566196.40049 -28473287.25849  15987777.1854   15987782.1884
  20075755.670    -1159977.03549   -901020.51549  20075752.5934   20075759.2564
  18890082.953   -27148193.90049 -21128243.07849  18890081.8424   18890088.5254
 96  2 12 19  9 29.9860000  0  8 29 27 28 22 19 18 14 31
  16877859.796   -21645124.35149 -16853893.43349  16877859.6694   16877864.8404
  19516425.911   -20828972.57449 -15790664.39749  19516426.3624   19516432.4064
  19055304.519   -32737096.834 9 -25472010.383 9  19055301.776    19055307.780
  20221726.010    -4886298.37049  -3799731.30049  20221721.7914   20221730.4104
  17062440.777   -40207148.79349 -30987081.94249  17062440.3454   17062445.9674
  15968024.896   -36669998.81649 -28554172.27049  15968024.2684   15968029.1884
  20079991.843    -1137705.12949   -883665.84649  20079991.3164   20079998.4474
  18857934.974   -27317130.42249 -21259881.91849  18857934.1324   18857940.5714
 96  2 12 19  9 59.9860000  0  8 29 27 28 22 19 18 14 31
  16870054.504   -21686145.53649 -16885858.02549  16870053.9634   16870058.8604
  19484834.610   -20994984.19149 -15920024.06649  19484834.2334   19484841.1124
  19032716.692   -32855788.746 9 -25564497.539 9  19032715.477    19032721.711
  20224916.347    -4869521.92149  -3786658.80549  20224914.2304   20224922.9444
  17037134.621   -40340132.10249 -31090705.29649  17037134.5744   17037140.4214
  15948350.859   -36773389.78049 -28634736.67249  15948349.8054   15948354.8684
  20084224.675    -1115449.83649   -866324.13549  20084226.0564   20084233.3874
  18825831.992   -27485828.32349 -21391334.82949  18825831.4854   18825838.3644
 96  2 12 19 10 29.9860000  0  8 29 27 28 22 19 18 14 31
  16862314.837   -21726813.57849 -16917547.43849  16862314.7564   16862319.6644
  19453247.316   -21160975.28349 -16049367.74049  19453247.6004   19453254.3654
  19010217.328   -32974020.272 9 -25656625.956 9  19010216.834    19010222.853
  20228118.121    -4852702.13749  -3773552.53049  20228115.4664   20228121.5284
  17011864.301   -40472929.33949 -31194183.65449  17011864.1064   17011869.7884
  15928753.993   -36876370.42149 -28714981.33649  15928753.1034   15928758.0894
  20088458.349    -1093211.08049   -848995.30449  20088457.8894   20088464.9174
  18793775.422   -27654294.52749 -21522607.20149  18793773.9504   18793779.3284
 96  2 12 19 10 59.9860000  0  8 29 27 28 22 19 18 14 31
  16854640.876   -21767141.68849 -16948971.97549  16854640.5594   16854645.7084
  19421666.049   -21326937.07749 -16178688.58149  19421665.6424   19421672.9274
  18987806.540   -33091793.310 9 -25748397.104 9  18987805.171    18987811.175
  20231326.618    -4835839.78749  -3760413.05049  20231325.0164   20231331.2014
  16986627.687   -40605548.85649 -31297523.53249  16986627.3084   16986632.8024
  15909235.301   -36978943.95049 -28794908.76749  15909234.1714   15909239.1724
  20092684.809    -1071000.08749   -831688.11749  20092683.9604   20092691.9404
  18761761.511   -27822521.59349 -21653693.24349  18761761.1584   18761767.6384
 96  2 12 19 11 29.9860000  0  8 29 27 28 22 19 18 14 31
  16847030.649   -21807135.28849 -16980135.83549  16847030.2554   16847035.2274
  19390091.470   -21492863.31249 -16307981.73049  19390091.5254   19390097.6904
  18965481.167   -33209114.160 9 -25839815.901 9  18965479.473    18965485.718
  20234545.014    -4818925.22049  -3747232.96049  20234543.9424   20234550.2954
  16961421.779   -40738006.75849 -31400737.47249  16961421.4614   16961427.1014
  15889790.607   -37081123.31849 -28874529.06849  15889790.1454   15889795.1364
  20096903.600    -1048844.21749   -814423.87749  20096901.5094   20096908.4164
  18729793.673   -27990516.04349 -21784598.03649  18729793.1074   18729799.4324
 96  2 12 19 11 59.9850000  0  8 29 27 28 22 19 18 14 31
  16839485.807   -21846785.21549 -17011031.90049  16839485.0204   16839489.9964
  19358529.182   -21658723.93549 -16437223.75849  19358528.5834   19358535.5934
  18943244.004   -33325973.088 9 -25930874.764 9  18943241.833    18943247.752
  20237773.962    -4801953.55249  -3734008.31449  20237773.9584   20237781.0354
  16936245.811   -40870306.76449 -31503828.38449  16936245.7024   16936251.2014
  15870423.010   -37182902.08549 -28953837.21249  15870422.1764   15870427.0674
  20101106.305    -1026739.83649   -797199.76049  20101106.8744   20101114.4644
  18697872.541   -28158261.59549 -21915308.87649  18697871.9834   18697878.8654
 96  2 12 19 12 29.9850000  0  8 29 27 28 22 19 18 14 31
  16832005.650   -21886087.34149 -17041656.94849  16832006.0194   16832011.1534
  19326980.079   -21824517.56249 -16566413.57949  19326979.5504   19326985.9184
  18921093.267   -33442374.819 9 -26021577.377 9  18921091.690    18921097.672
  20241015.537    -4784923.90649  -3720738.46549  20241014.2974   20241020.8954
  16911097.560   -41002464.39049 -31606808.34149  16911097.0964   16911102.8584
  15851133.344   -37284268.04849 -29032823.68949  15851132.8484   15851137.8714
  20105304.009    -1004694.33649   -780021.52749  20105301.8804   20105310.0934
  18666001.072   -28325749.49749 -22045818.94449  18665999.6724   18666007.2684
 96  2 12 19 12 59.9850000  0  8 29 27 28 22 19 18 14 31
  16824595.050   -21925035.11249 -17072005.88749  16824594.8824   16824599.7724
  19295445.340   -21990234.54449 -16695543.67549  19295444.7424   19295451.2924
  18899031.508   -33558310.376 9 -26111916.736 9  18899029.285    18899035.687
  20244266.729    -4767834.42449  -3707422.01849  20244265.7784   20244272.6104
  16885977.810   -41134470.44849 -31709670.19949  16885977.1554   16885982.8694
  15831927.178   -37385197.16849 -29111469.77349  15831926.6884   15831931.9644
  20109484.107     -982710.11249   -762891.04449  20109485.9504   20109493.3534
  18634179.229   -28492974.02549 -22176123.78449  18634178.9704   18634185.1134
 96  2 12 19 13 29.9850000  0  8 29 27 28 22 19 18 14 31
  16817254.322   -21963612.07049 -17102065.87449  16817253.7664   16817258.9884
  19263922.273   -22155892.98349 -16824628.16849  19263921.4614   19263926.7684
  18877059.102   -33673774.113 9 -26201888.446 9  18877057.305    18877063.971
  20247533.401    -4750689.97549  -3694062.73249  20247527.5644   20247535.8554
  16860887.747   -41266319.13249 -31812409.43349  16860886.9544   16860892.9894
  15812806.229   -37485678.58749 -29189767.00149  15812805.6944   15812810.8404
  20113661.774     -960775.40049   -745799.14349  20113659.4744   20113667.7944
  18602406.420   -28659938.82649 -22306226.23749  18602405.8144   18602412.8464
 96  2 12 19 13 59.9850000  0  8 29 27 28 22 19 18 14 31
  16809986.770   -22001800.02149 -17131822.73649  16809986.8294   16809991.8804
  19232405.063   -22321517.43549 -16953686.16149  19232403.5704   19232410.3674
  18855176.779   -33788761.378 9 -26291488.886 9  18855176.720    18855182.396
  20250801.416    -4733503.38349  -3680670.61549  20250798.9914   20250805.8774
  16835827.858   -41398008.09749 -31915024.20349  16835827.4024   16835833.4704
  15793774.245   -37585695.30849 -29267702.12349  15793773.0544   15793778.2044
  20117826.701     -938874.28449   -728733.40949  20117827.6334   20117835.5304
  18570685.053   -28826641.57649 -22436124.51049  18570683.2284   18570690.8124
 96  2 12 19 14 29.9850000  0  8 29 27 28 22 19 18 14 31
  16802795.456   -22039592.73149 -17161271.62449  16802795.0714   16802800.3614
  19200891.328   -22487117.45449 -17082725.15249  19200891.2584   19200897.6744
  18833386.315   -33903272.851 9 -26380718.574 9  18833385.188    18833391.584
  20254081.290    -4716271.68149  -3667243.31349  20254077.2744   20254085.0404
  16810798.434   -41529537.65249 -32017514.76149  16810798.2884   16810804.1184
  15774829.749   -37685247.62349 -29345275.37449  15774828.8714   15774833.9684
  20121990.303     -917003.78049   -711691.54649  20121989.5934   20121997.1564
  18539009.907   -28993093.32149 -22565827.19849  18539009.1294   18539015.6414
 96  2 12 19 14 59.9850000  0  8 29 27 28 22 19 18 14 31
  16795679.069   -22076992.60749 -17190414.40449  16795678.1754   16795683.2144
  19169383.431   -22652691.69249 -17211744.04449  19169383.2944   19169389.6974
  18811685.627   -34017307.425 9 -26469576.666 9  18811685.526    18811691.495
  20257362.508    -4698996.10749  -3653781.86949  20257364.7594   20257371.0954
  16785800.734   -41660902.17549 -32119876.72049  16785800.3184   16785806.3364
  15755969.597   -37784358.10649 -29422504.33749  15755968.6494   15755973.7174
  20126144.799     -895160.24249   -694670.70149  20126145.8654   20126153.1044
  18507382.864   -29159291.68349 -22695332.44649  18507382.4034   18507388.7294
 96  2 12 19 15 29.9850000  0  8 29 27 28 22 19 18 14 31
  16788634.883   -22114003.89649 -17219254.38949  16788634.9584   16788640.2784
  19137881.334   -22818236.63249 -17340740.08249  19137881.2554   19137887.1604
  18790079.262   -34130862.840 9 -26558061.380 9  18790076.497    18790082.805
  20260662.800    -4681681.81549  -3640290.21649  20260661.4454   20260667.3804
  16760832.471   -41792109.08349 -32222115.85749  16760832.6584   16760838.3894
  15737192.803   -37883031.63049 -29499392.81549  15737192.0384   15737197.1314
  20130295.227     -873359.99649   -677683.58849  20130294.4964   20130302.2314
  18475807.647   -29325219.79449 -22824627.08949  18475807.1504   18475813.2034
 96  2 12 19 15 59.9850000  0  8 29 27 28 22 19 18 14 31
  16781662.746   -22150646.82349 -17247807.34549  16781662.3484   16781667.7454
  19106388.900   -22983733.08649 -17469698.35949  19106388.1004   19106393.9634
  18768559.738   -34243937.420 9 -26646171.427 9  18768558.876    18768565.254
  20263966.039    -4664322.80849  -3626763.74249  20263962.9154   20263970.1044
  16735894.391   -41923161.48049 -32324234.60449  16735894.1404   16735899.8564
  15718499.605   -37981264.65049 -29575938.04349  15718498.7894   15718504.1434
  20134432.553     -851612.02449   -660737.21549  20134432.9574   20134441.2044
  18444287.830   -29490865.58849 -22953701.75849  18444286.4934   18444292.1894
 96  2 12 19 16 29.9850000  0  8 29 27 28 22 19 18 14 31
  16774755.087   -22186946.09149 -17276092.51549  16774754.7734   16774759.9954
  19074908.224   -23149160.23949 -17598602.61349  19074907.9514   19074914.5654
  18747135.761   -34356527.130 9 -26733903.655 9  18747134.403    18747140.047
  20267279.888    -4646914.31749  -3613198.68749  20267277.4104   20267282.4484
  16710987.634   -42054050.61549 -32426226.12949  16710986.9724   16710992.6374
  15699890.422   -38079056.58449 -29652139.56749  15699889.7224   15699894.9724
  20138560.240     -829920.70549   -643834.96849  20138560.6654   20138569.8714
  18412822.050   -29656216.92249 -23082546.98049  18412821.7984   18412827.2944
 96  2 12 19 16 59.9850000  0  8 29 27 28 22 19 18 14 31
  16767910.559   -22222909.53049 -17304115.99949  16767911.1744   16767916.2884
  19043439.937   -23314526.89049 -17727459.72149  19043440.6784   19043446.4254
  18725799.318   -34468626.867 9 -26821254.091 9  18725802.168    18725808.385
  20270601.448    -4629469.28149  -3599605.20149  20270596.7844   20270602.9304
  16686111.251   -42184773.17849 -32528087.85949  16686111.2504   16686116.8194
  15681367.537   -38176395.60549 -29727988.16849  15681366.5884   15681372.1054
  20142682.675     -808280.43549   -626972.51949  20142678.9814   20142686.8704
  18381414.595   -29821261.74049 -23211153.34349  18381414.1024   18381420.0924
 96  2 12 19 17 29.9850000  0  7 29 27 28 19 18 14 31
  16761132.424   -22258536.46249 -17331877.25649  16761131.7304   16761136.7204
  19011979.342   -23479852.15449 -17856284.58549  19011979.5304   19011985.7904
  18704564.436   -34580242.117 9 -26908227.009 9  18704562.708    18704568.461
  16661266.875   -42315330.58149 -32629820.89749  16661266.7414   16661272.8194
  15662931.393   -38273278.32149 -29803481.20749  15662930.6744   15662935.7204
  20146788.166     -786693.76849   -610151.82649  20146788.0264   20146794.3484
  18350064.080   -29986009.33249 -23339528.09349  18350063.2604   18350069.3954
 96  2 12 19 17 59.9850000  0  7 29 27 28 19 18 14 31
  16754417.368   -22293822.20149 -17359372.66349  16754416.8514   16754421.9554
  18980528.629   -23645128.06049 -17985070.97649  18980528.2234   18980535.8394
  18683416.388   -34691370.455 9 -26994820.514 9  18683415.563    18683421.196
  16636458.226   -42445700.33449 -32731407.71049  16636458.1704   16636464.0394
  15644581.742   -38369708.99149 -29878622.00349  15644580.5284   15644585.5574
  20150887.925     -765155.27749   -593368.66949  20150886.4314   20150893.4184
  18318772.050   -30150456.78349 -23467668.96049  18318769.7724   18318776.9494
 96  2 12 19 18 29.9850000  0  7 29 27 28 19 18 14 31
  16747768.544   -22328758.05949 -17386595.44449  16747769.1604   16747774.2234
  18949086.298   -23810363.76449 -18113826.03749  18949085.3804   18949092.1634
  18662360.585   -34802021.004 9 -27081041.711 9  18662359.142    18662365.613
  16611684.337   -42575887.75049 -32832852.45249  16611684.3884   16611690.0164
  15626313.118   -38465708.56249 -29953426.87949  15626312.2234   15626317.4854
  20154968.664     -743687.27049   -576640.44249  20154971.0194   20154978.8044
  18287533.501   -30314615.47949 -23595584.81349  18287532.1044   18287538.0924
 96  2 12 19 18 59.9850000  0  7 29 27 28 19 18 14 31
  16741193.743   -22363313.53049 -17413521.82149  16741193.3574   16741198.2284
  18917649.956   -23975560.05949 -18242550.39149  18917649.4394   18917656.0764
  18641396.455   -34912186.508 9 -27166884.953 9  18641395.540    18641401.987
  16586945.581   -42705891.87749 -32934154.36749  16586945.6294   16586951.3514
  15608127.341   -38561272.32149 -30027892.16149  15608126.8864   15608132.2874
  20159041.753     -722303.76549   -559978.06449  20159041.1874   20159048.1904
  18256350.573   -30478475.89649 -23723268.24249  18256350.8204   18256357.1174
 96  2 12 19 19 29.9850000  0  6 29 27 28 19 18 31
  16734689.969   -22397487.42649 -17440150.86349  16734690.0474   16734695.2454
  18886224.332   -24140706.19549 -18371235.67049  18886223.9164   18886229.9594
  18620523.541   -35021868.066 9 -27252351.109 9  18620524.204    18620530.118
  16562241.733   -42835713.48349 -33035314.06149  16562241.1254   16562246.9034
  15590025.187   -38656404.29349 -30102020.98949  15590024.1324   15590029.4394
  18225227.049   -30642036.85449 -23850718.33549  18225226.2774   18225232.2974
 96  2 12 19 19 59.9850000  0  6 29 27 28 19 18 31
  16728259.733   -22431282.06549 -17466484.36549  16728259.5694   16728264.5064
  18854809.417   -24305795.21849 -18499876.43549  18854808.5914   18854815.0364
  18599745.218   -35131064.661 9 -27337439.358 9  18599744.550    18599750.506
  16537571.207   -42965359.39649 -33136336.84549  16537570.6024   16537576.4884
  15572005.120   -38751098.25349 -30175808.50349  15572004.5634   15572009.8544
  18194159.349   -30805301.96349 -23977937.85949  18194157.2734   18194164.2794
 96  2 12 19 20 29.9840000  0  6 29 27 28 19 18 31
  16721903.233   -22464686.94649 -17492514.17049  16721902.5404   16721907.3264
  18823400.703   -24470846.59549 -18628487.87249  18823400.5344   18823406.5084
  18579059.070   -35239774.055 9 -27422147.981 9  18579057.689    18579063.412
  16512930.006   -43094846.81649 -33237236.12749  16512929.6054   16512935.2144
  15554070.637   -38845346.61849 -30249248.80649  15554069.6054   15554074.6444
  18163145.264   -30968276.33349 -24104930.85049  18163144.1214   18163151.5684
 96  2 12 19 20 59.9840000  0  6 29 27 28 19 18 31
  16715619.774   -22497705.43349 -17518242.89949  16715619.1424   16715624.3134
  18791996.096   -24635876.62749 -18757082.68249  18791996.4974   18792001.6524
  18558465.055   -35348000.365 9 -27506480.172 9  18558463.032    18558469.125
  16488320.035   -43224174.78849 -33338011.16649  16488319.6484   16488325.2354
  15536221.021   -38939146.04649 -30322339.28449  15536220.3144   15536225.4534
  18132185.791   -31130966.26949 -24231702.19449  18132186.3364   18132191.0004
 96  2 12 19 21 29.9840000  0  6 29 27 28 19 18 31
  16709406.957   -22530352.18849 -17543681.95749  16709406.8444   16709411.6884
  18760600.677   -24800863.73949 -18885644.02749  18760600.3334   18760606.5844
  18537962.439   -35455738.293 9 -27590431.802 9  18537960.971    18537967.492
  16463741.001   -43353333.41949 -33438654.24549  16463741.2764   16463747.2924
  15518456.014   -39032500.36549 -30395082.92249  15518455.4204   15518460.6904
  18101283.074   -31293361.35849 -24358243.77749  18101282.6704   18101288.5314
 96  2 12 19 21 59.9840000  0  6 29 27 28 19 18 31
  16703265.314   -22562630.35649 -17568833.80149  16703264.9044   16703269.9464
  18729212.869   -24965804.89049 -19014169.56849  18729212.2814   18729218.7244
  18517552.630   -35562982.627 9 -27673998.814 9  18517553.474    18517559.414
  16439195.929   -43482320.96549 -33539164.02149  16439196.0054   16439201.6444
  15500775.340   -39125414.33449 -30467483.43149  15500774.5034   15500779.7994
  18070438.885   -31455445.52349 -24484543.06349  18070439.2434   18070445.3004
 96  2 12 19 22 29.9840000  0  6 29 27 28 19 18 31
  16697191.442   -22594545.11949 -17593702.47449  16697191.5784   16697196.7154
  18697835.734   -25130692.03049 -19142653.02649  18697836.0344   18697841.8184
  18497240.848   -35669728.636 9 -27757177.525 9  18497239.794    18497246.420
  16414683.493   -43611135.79749 -33639539.21449  16414683.4364   16414689.3004
  15483177.349   -39217892.93049 -30539544.69149  15483176.5764   15483181.6774
  18039657.931   -31617199.58949 -24610585.14949  18039657.9264   18039664.2414
 96  2 12 19 22 59.9840000  0  6 29 27 28 19 18 31
  16691181.886   -22626128.44849 -17618312.89249  16691181.6914   16691186.3684
  18666470.243   -25295516.05249 -19271087.30549  18666470.7144   18666476.1214
  18477020.052   -35775982.295 9 -27839972.582 9  18477020.552    18477026.697
  16390201.667   -43739788.61449 -33739788.15949  16390201.5924   16390207.2504
  15465660.203   -39309944.58349 -30611273.26649  15465659.3094   15465664.6554
  18008942.773   -31778616.80149 -24736364.72549  18008942.1084   18008948.1314
 96  2 12 19 23 29.9840000  0  6 29 27 28 19 18 31
  16685234.193   -22657382.37849 -17642666.63249  16685233.9454   16685239.3804
  18635117.113   -25460279.28749 -19399474.19549  18635116.6304   18635122.6254
  18456897.465   -35881735.438 9 -27922377.626 9  18456896.582    18456902.461
  16365748.476   -43868291.36749 -33839920.16249  16365748.3514   16365754.3734
  15448225.736   -39401563.82649 -30682664.89649  15448224.9584   15448230.3364
  17978291.880   -31939687.04349 -24861873.92649  17978291.4764   17978297.0374
 96  2 12 19 23 59.9840000  0  6 29 27 28 19 18 31
  16679351.669   -22688292.10549 -17666752.16849  16679351.6304   16679357.2674
  18603771.285   -25625006.70149 -19527833.18549  18603769.7684   18603776.4424
  18436868.651   -35986990.737 9 -28004394.755 9  18436867.462    18436873.250
  16341321.968   -43996653.96549 -33939942.96449  16341321.8554   16341327.5514
  15430875.781   -39492739.12349 -30753710.59549  15430874.9474   15430880.3754
  17947705.116   -32100418.74049 -24987119.33049  17947703.8444   17947711.0134
 96  2 12 19 24 29.9840000  0  6 29 27 28 19 18 31
  16673538.296   -22718843.82049 -17690558.73149  16673538.1614   16673543.7184
  18572429.530   -25789704.60949 -19656169.18149  18572429.7624   18572435.3764
  18416934.941   -36091742.767 9 -28086019.718 9  18416933.733    18416939.664
  16316923.198   -44124870.16849 -34039851.68349  16316922.7324   16316928.5084
  15413614.580   -39583445.29049 -30824390.73649  15413614.0874   15413619.4234
  17917184.066   -32260812.19749 -25112101.18549  17917182.6974   17917187.9424
 96  2 12 19 24 59.9840000  0  6 29 27 28 19 18 31
  16667792.483   -22749039.22949 -17714087.65949  16667792.2524   16667797.8764
  18541091.878   -25954384.31249 -19784490.99949  18541091.7164   18541097.5374
  18397099.359   -36195989.300 9 -28167250.795 9  18397096.405    18397102.042
  16292553.689   -44252932.32849 -34139640.37349  16292553.1764   16292559.3134
  15396445.127   -39673669.90649 -30894695.64649  15396444.9884   15396450.4524
  17886724.106   -32420870.81449 -25236822.11649  17886724.5064   17886729.7084
 96  2 12 19 25 29.9840000  0  6 29 27 28 19 18 31
  16662116.278   -22778866.84449 -17737329.99649  16662116.3224   16662121.9304
  18509758.851   -26119045.63349 -19912798.48349  18509757.7784   18509764.0774
  18377356.855   -36299726.499 9 -28248084.981 9  18377355.971    18377361.461
  16268217.032   -44380820.46649 -34239293.46149  16268217.0694   16268223.0484
  15379368.871   -39763407.59049 -30964621.12749  15379368.4094   15379373.7974
  17856329.895   -32580597.57849 -25361284.47949  17856329.3444   17856335.2374
 96  2 12 19 25 59.9840000  0  6 29 27 28 19 18 31
  16656509.134   -22808337.67749 -17760294.31249  16656508.3004   16656513.4014
  18478430.435   -26283672.53449 -20041079.15149  18478430.2944   18478436.7604
  18357714.091   -36402958.014 9 -28328525.126 9  18357711.591    18357717.397
  16243915.213   -44508527.60449 -34338805.50749  16243915.2154   16243921.1244
  15362386.304   -39852653.61649 -31034163.49949  15362385.4514   15362390.9934
  17825998.324   -32739995.60149 -25485490.66949  17825996.4794   17826003.6154
 96  2 12 19 26 29.9840000  0  6 29 27 28 19 18 31
  16650960.560   -22837487.92949 -17783008.83249  16650961.2254   16650966.4684
  18447110.265   -26448262.83549 -20169331.29549  18447110.0844   18447116.2804
  18338162.829   -36505688.465 9 -28408574.847 9  18338162.512    18338168.251
  16219648.842   -44636050.35249 -34438173.87749  16219648.5324   16219654.2724
  15345494.811   -39941418.97549 -31103331.32549  15345494.0194   15345499.4234
  17795727.553   -32899064.25349 -25609440.20149  17795727.2024   17795733.1974
 96  2 12 19 26 59.9840000  0  6 29 27 28 19 18 31
  16645475.046   -22866322.94749 -17805477.71049  16645473.9834   16645479.3294
  18415799.788   -26612796.09649 -20297539.00349  18415799.8614   18415806.2404
  18318710.048   -36607912.798 9 -28488230.185 9  18318709.753    18318715.473
  16195417.741   -44763383.57249 -34537394.55649  16195417.6584   16195423.8524
  15328692.546   -40029717.00549 -31172134.99749  15328691.7684   15328697.0634
  17765522.546   -33057794.38049 -25733125.96049  17765521.8264   17765528.1144
 96  2 12 19 27 29.9840000  0  6 29 27 28 19 18 31
  16640049.406   -22894829.42049 -17827690.58749  16640049.7184   16640054.7834
  18384504.499   -26777258.69149 -20425691.63049  18384504.3274   18384510.3864
  18299354.959   -36709625.627 9 -28567486.940 9  18299354.330    18299360.200
  16171222.004   -44890535.66449 -34636474.10249  16171221.5024   16171227.3204
  15311979.889   -40117542.62349 -31240570.55849  15311978.9884   15311984.1464
  17735386.398   -33216159.20949 -25856527.07149  17735385.9264   17735391.7084
 96  2 12 19 27 59.9840000  0  7 29 27 28 19 18  2 31
  16634688.697   -22923005.43649 -17849645.96649  16634687.9254   16634693.3684
  18353221.339   -26941651.09249 -20553789.56849  18353221.5724   18353227.4304
  18280099.433   -36810826.299 9 -28646344.613 9  18280096.606    18280102.742
  16147058.143   -45017517.63349 -34735421.08349  16147057.7494   16147063.6964
  15295356.479   -40204897.70749 -31308639.47149  15295355.7494   15295361.0524
  20174871.133    -7978346.68559  -6173956.54459  20174866.2104   20174877.0674
  17705322.009   -33374148.92049 -25979635.89149  17705321.6284   17705327.1334
 96  2 12 19 28 29.9840000  0  7 29 27 28 19 18  2 31
  16629389.380   -22950849.01649 -17871342.29749  16629389.5104   16629394.5894
  18321948.906   -27105989.83249 -20681845.68849  18321948.2784   18321954.7344
  18260937.359   -36911513.810 9 -28724802.408 9  18260936.194    18260942.476
  16122925.759   -45144332.53449 -34834237.87149  16122925.2664   16122931.4004
  15278820.160   -40291800.73749 -31376356.12449  15278818.6954   15278824.1764
  20139280.858    -8165358.97649  -6319680.32549  20139279.4294   20139288.7044
  17675329.644   -33531760.72749 -26102450.22049  17675328.8244   17675334.6564
 96  2 12 19 28 59.9830000  0  7 29 27 28 19 18  2 31
  16624158.370   -22978337.50349 -17892761.93349  16624158.9964   16624164.1904
  18290687.768   -27270266.11449 -20809853.14549  18290687.7044   18290693.8694
  18241876.334   -37011685.016 9 -28802857.884 9  18241874.373    18241880.756
  16098823.561   -45270988.95149 -34932931.17749  16098823.3464   16098829.1224
  15262367.324   -40378258.93149 -31443726.15749  15262366.4494   15262371.7394
  20103705.569    -8352297.99249  -6465346.98049  20103706.1504   20103714.8634
  17645407.926   -33688995.64349 -26224970.86149  17645406.6574   17645414.2624
 96  2 12 19 29 29.9830000  0  7 29 27 28 19 18  2 31
  16618995.765   -23005469.39649 -17913903.71049  16618995.5534   16619000.6094
  18259434.555   -27434502.78149 -20937829.72349  18259434.4214   18259440.2694
  18222911.016   -37111347.740 9 -28880517.132 9  18222909.289    18222915.235
  16074749.404   -45397500.65849 -35031511.71249  16074749.3224   16074755.4664
  15245998.808   -40464275.21049 -31510751.84149  15245997.9024   15246003.2144
  20068141.041    -8539185.00549  -6610973.10349  20068141.9724   20068151.2134
  17615555.699   -33845875.46849 -26347214.80249  17615554.2274   17615560.3364
 96  2 12 19 29 59.9830000  0  7 29 27 28 19 18  2 31
  16613899.486   -23032247.54149 -17934769.83149  16613900.1684   16613905.4314
  18228188.379   -27598703.92449 -21065778.63749  18228188.0614   18228193.9314
  18204041.907   -37210501.457 9 -28957779.751 9  18204040.814    18204047.046
  16050704.667   -45523855.05349 -35129969.67349  16050704.8614   16050710.8144
  15229712.699   -40549859.73349 -31577441.08849  15229711.7314   15229717.0754
  20032591.817    -8726018.48259  -6756557.44059  20032588.7174   20032597.7474
  17585765.133   -34002424.63249 -26469201.08549  17585763.7214   17585769.9374
 96  2 12 19 30 29.9830000  0  7 29 27 28 19 18  2 31
  16608875.145   -23058655.35249 -17955347.37749  16608874.7014   16608879.6564
  18196948.489   -27762864.72749 -21193696.10349  18196949.2084   18196955.2314
  18185269.238   -37309143.101 9 -29034643.340 9  18185270.203    18185275.665
  16026690.986   -45650047.14349 -35228301.15749  16026690.9994   16026696.7934
  15213510.230   -40635001.10449 -31643785.02249  15213509.7364   15213515.4514
  19997048.774    -8912778.15949  -6902084.35649  19997049.8354   19997060.1534
  17556037.852   -34158637.54149 -26590925.35249  17556037.8214   17556043.5384
 96  2 12 19 30 59.9830000  0  7 29 27 28 19 18  2 31
  16603920.998   -23084687.88249 -17975632.49949  16603921.1624   16603926.3774
  18165719.707   -27926975.68549 -21321574.74749  18165719.6624   18165725.8584
  18166596.877   -37407280.689 9 -29111114.150 9  18166595.133    18166600.765
  16002708.155   -45776078.27249 -35326507.22249  16002708.2934   16002714.1704
  15197396.101   -40719681.62849 -31709769.86249  15197395.6054   15197401.0654
  19961527.804    -9099457.94949  -7047549.03349  19961525.9184   19961534.6354
  17526375.595   -34314511.44249 -26712385.46849  17526375.3244   17526382.4114
 96  2 12 19 31 29.9830000  0  7 29 27 28 19 18  2 31
  16599037.723   -23110352.98149 -17995631.30849  16599037.3594   16599042.6664
  18134499.707   -28091041.62149 -21449418.28949  18134500.4124   18134504.8054
  18148016.648   -37504915.310 9 -29187193.025 9  18148015.799    18148021.592
  15978756.867   -45901943.12249 -35424583.71949  15978756.6924   15978762.6074
  15181371.721   -40803889.66449 -31775386.52149  15181371.4224   15181377.0734
  19926018.219    -9286054.50849  -7192948.88249  19926017.7444   19926026.6534
  17496782.235   -34470027.43349 -26833566.67849  17496781.7734   17496788.8764
 96  2 12 19 31 59.9830000  0  7 29 27 28 19 18  2 31
  16594221.371   -23135657.01949 -18015348.78049  16594221.8354   16594227.0574
  18103288.500   -28255057.88949 -21577223.14449  18103287.6834   18103293.8924
  18129531.024   -37602054.323 9 -29262885.704 9  18129530.628    18129536.817
  15954837.136   -46027643.72349 -35522532.22649  15954836.7844   15954842.6444
  15165437.638   -40887626.24549 -31840635.81049  15165437.0074   15165442.3514
  19890527.213    -9472571.83249  -7338286.95049  19890524.5084   19890533.6024
  17467258.550   -34625173.61249 -26954459.74749  17467258.8534   17467265.4294
 96  2 12 19 32 29.9830000  0  7 29 27 28 19 18  2 31
  16589474.165   -23160607.58649 -18034790.81349  16589473.6484   16589479.2784
  18072091.057   -28419002.37049 -21704972.04249  18072090.8484   18072096.6014
  18111142.202   -37698693.504 9 -29338188.914 9  18111141.131    18111147.098
  15930949.594   -46153173.65049 -35620347.74849  15930949.2834   15930955.1624
  15149595.185   -40970878.04249 -31905507.34149  15149594.5604   15149599.9924
  19855045.510    -9659010.78249  -7483564.00349  19855046.6374   19855055.4684
  17437811.750   -34779924.35549 -27075044.69149  17437811.2184   17437817.1504
 96  2 12 19 32 59.9830000  0  7 29 27 28 19 18  2 31
  16584791.625   -23185213.84549 -18053964.56949  16584791.3944   16584797.0964
  18040907.183   -28582871.92749 -21832662.57149  18040906.8994   18040913.0634
  18092847.997   -37794824.454 9 -29413096.091 9  18092847.942    18092853.701
  15907094.749   -46278533.59349 -35718030.81549  15907094.2264   15907099.8154
  15133844.714   -41053647.84649 -31970003.30249  15133844.1564   15133849.5904
  19819582.352    -9845376.01849  -7628783.64049  19819582.2864   19819590.7994
  17408440.692   -34934273.93949 -27195317.04549  17408438.8604   17408445.6644
 96  2 12 19 33 29.9830000  0  7 29 27 28 19 18  2 31
  16580174.158   -23209479.93349 -18072873.24949  16580173.7024   16580179.2434
  18009737.432   -28746670.96449 -21960298.15349  18009737.0414   18009743.2874
  18074655.225   -37890433.839 9 -29487596.856 9  18074653.720    18074659.460
  15883270.761   -46403726.20049 -35815583.49149  15883271.0394   15883276.6684
  15118184.371   -41135944.49749 -32034130.57649  15118183.7274   15118188.9514
  19784135.150   -10031664.69249  -7773943.62049  19784132.6714   19784141.5574
  17379144.828   -35088217.29149 -27315272.85049  17379145.4364   17379150.7404
 96  2 12 19 33 59.9830000  0  7 29 27 28 19 18  2 31
  16575622.012   -23233396.04849 -18091509.21749  16575622.4754   16575627.9884
  17978583.797   -28910379.02349 -22087862.83549  17978584.3004   17978590.5404
  18056564.677   -37985500.842 9 -29561674.992 9  18056563.136    18056569.250
  15859483.663   -46528729.68449 -35912988.79649  15859483.5014   15859489.3284
  15102616.133   -41217755.94749 -32097879.76749  15102615.4454   15102620.8554
  19748705.239   -10217839.85449  -7919015.17249  19748704.1694   19748712.9104
  17349927.107   -35241760.61249 -27434916.93949  17349926.0024   17349932.2604
 96  2 12 19 34 29.9830000  0  7 29 27 28 19 18  2 31
  16571122.638   -23257045.66749 -18109937.52749  16571122.2884   16571127.9274
  17947430.546   -29074092.14149 -22215431.45349  17947430.9944   17947437.2704
  18038563.255   -38080094.846 9 -29635384.567 9  18038562.654    18038568.401
  15835718.039   -46653620.03249 -36010305.94249  15835717.7824   15835723.3934
  15087126.084   -41299159.07549 -32161310.78649  15087124.9184   15087130.3184
  19713286.520   -10403969.93349  -8064051.62849  19713285.1444   19713294.4224
  17320766.763   -35394987.38849 -27554314.37449  17320767.9804   17320773.8874
 96  2 12 19 34 59.9830000  0  7 29 27 28 19 18  2 31
  16566677.600   -23280400.96949 -18128136.50349  16566678.0734   16566683.3674
  17916277.481   -29237806.74249 -22343001.23749  17916276.7504   17916283.2104
  18020659.096   -38174189.093 9 -29708704.734 9  18020657.175    18020662.789
  15811978.256   -46778373.34649 -36107516.31649  15811977.9564   15811983.8984
  15071714.449   -41380143.65249 -32224415.66049  15071714.1524   15071719.6394
  19677880.023   -10590027.69749  -8209031.72849  19677879.1644   19677888.6034
  17291676.440   -35547876.15649 -27673448.44249  17291674.6524   17291680.3714
 96  2 12 19 35 29.9830000  0  7 29 27 28 19 18  2 31
  16562298.466   -23303416.76749 -18146070.92449  16562298.3634   16562303.5504
  17885133.602   -29401468.78049 -22470530.06449  17885133.1964   17885139.0144
  18002856.778   -38267731.395 9 -29781594.808 9  18002856.518    18002862.538
  15788277.305   -46902921.62049 -36204566.90849  15788277.1674   15788282.8214
  15056394.607   -41460652.35849 -32287149.72749  15056393.8184   15056399.1874
  19642500.734   -10775951.46549  -8353907.41449  19642499.2084   19642508.8854
  17262655.530   -35700370.70849 -27792275.33549  17262655.7014   17262661.4384
 96  2 12 19 35 59.9830000  0  7 29 27 28 19 18  2 31
  16557977.697   -23326123.49849 -18163764.51049  16557977.0884   16557982.6884
  17853992.879   -29565115.87949 -22598047.25049  17853992.4534   17853998.2384
  17985154.063   -38360758.882 9 -29854083.738 9  17985153.939    17985159.754
  15764609.747   -47027295.51449 -36301481.62349  15764609.5024   15764615.2024
  15041159.713   -41540711.27449 -32349533.30449  15041158.9404   15041164.2544
  19607139.183   -10961777.32049  -8498706.78749  19607138.4794   19607147.5724
  17233708.392   -35852493.81549 -27910812.78649  17233706.9804   17233713.4664
 96  2 12 19 36 29.9830000  0  7 29 27 28 19 18  2 31
  16553717.561   -23348510.11849 -18181208.67049  16553717.7114   16553722.6914
  17822853.519   -29728752.27449 -22725556.09749  17822852.7724   17822858.9344
  17967552.022   -38453265.074 9 -29926166.467 9  17967550.393    17967556.606
  15740974.550   -47151501.38749 -36398265.41349  15740974.0794   15740979.7994
  15026013.757   -41620304.80249 -32411554.24049  15026013.0984   15026018.3524
  19571794.521   -11147512.76949  -8643435.74149  19571794.3314   19571801.9804
  17204840.231   -36004195.79349 -28029022.09549  17204839.2044   17204845.4344
 96  2 12 19 36 59.9830000  0  7 29 27 28 19 18  2 31
  16549524.994   -23370543.50049 -18198377.57249  16549524.6984   16549529.9454
  17791724.099   -29892335.17649 -22853023.28449  17791724.2564   17791730.0114
  17950050.340   -38545223.420 9 -29997822.308 9  17950051.251    17950057.252
  15717375.823   -47275512.65349 -36494897.56649  15717375.7344   15717381.1234
  15010962.557   -41699398.51249 -32473185.71049  15010961.7644   15010967.3194
  19536472.619   -11333123.21749  -8788067.30349  19536473.4794   19536481.1514
  17176060.647   -36155434.95649 -28146870.78049  17176059.4314   17176065.7654
 96  2 12 19 37 29.9830000  0  7 29 27 28 19 18  2 31
  16545393.389   -23392256.48749 -18215296.83049  16545393.4684   16545398.4084
  17760598.720   -30055902.89549 -22980478.63649  17760598.5074   17760604.1904
  17932646.699   -38636679.603 9 -30069086.865 9  17932647.805    17932653.757
  15693803.530   -47399384.17349 -36591420.82549  15693803.2864   15693809.3774
  14996000.516   -41778026.38749 -32534454.19449  14995999.5554   14996004.8384
  19501171.647   -11518639.62549  -8932625.55049  19501169.7294   19501179.2864
  17147359.310   -36306257.36449 -28264394.70549  17147358.9694   17147364.4744
 96  2 12 19 37 59.9820000  0  8 29 27 28 16 19 18  2 31
  16541330.609   -23413604.67949 -18231931.82249  16541330.5494   16541336.0044
  17729480.142   -30219430.93249 -23107903.06449  17729479.9384   17729485.9144
  17915345.242   -38727606.671 9 -30139939.128 9  17915345.200    17915350.651
  19649625.370    -9485983.12659  -7346802.55659  19649624.5394   19649631.6134
  15670262.917   -47523092.52849 -36687816.94249  15670262.5984   15670268.2324
  14981129.180   -41856176.00549 -32595350.00649  14981128.2914   14981133.8064
  19465891.301   -11704036.51349  -9077090.62549  19465890.8134   19465899.1834
  17118743.105   -36456636.38249 -28381573.12249  17118742.0704   17118749.1704
 96  2 12 19 38 29.9820000  0  8 29 27 28 16 19 18  2 31
  16537337.655   -23434589.79549 -18248283.89149  16537337.3334   16537343.1514
  17698371.480   -30382906.70949 -23235286.76249  17698371.2304   17698377.0754
  17898142.153   -38818007.513 9 -30210381.341 9  17898142.273    17898148.316
  19618645.119    -9648791.55349  -7473666.27049  19618643.2914   19618650.3724
  15646752.890   -47646638.45349 -36784086.48649  15646752.7694   15646758.4484
  14966347.412   -41933853.27449 -32655877.75549  14966346.6074   14966352.0784
  19430632.514   -11889316.56449  -9221464.69249  19430633.1414   19430641.3664
  17090204.985   -36606598.96349 -28498427.04149  17090206.0284   17090211.7594
 96  2 12 19 38 59.9820000  0  8 29 27 28 16 19 18  2 31
  16533417.272   -23455190.85449 -18264336.71049  16533416.8464   16533422.7824
  17667280.062   -30546291.91549 -23362599.90349  17667279.8744   17667285.6544
  17881043.475   -38907863.707 9 -30280399.152 9  17881043.160    17881049.064
  19587733.579    -9811222.49949  -7600235.81249  19587733.8714   19587741.1674
  15623278.402   -47769997.11549 -36880210.11649  15623278.0914   15623283.6034
  14951656.890   -42011052.27449 -32716032.83149  14951656.1074   14951661.6054
  19395404.282   -12074449.64249  -9365724.25449  19395404.2664   19395411.0334
  17061746.923   -36756155.89549 -28614964.87049  17061745.4934   17061751.6744
 96  2 12 19 39 29.9820000  0  8 29 27 28 16 19 18  2 31
  16529570.662   -23475406.00249 -18280088.81949  16529570.1364   16529575.4514
  17636208.162   -30709580.96149 -23489838.10649  17636207.2834   17636213.5194
  17864048.962   -38997171.497 9 -30349989.624 9  17864048.513    17864054.447
  19556900.369    -9973259.44249  -7726498.33849  19556899.2634   19556907.0674
  15599839.137   -47893170.82349 -36976189.62849  15599839.1824   15599844.8804
  14937056.943   -42087774.92549 -32775816.72549  14937056.4494   14937062.0064
  19360201.051   -12259444.40949  -9509875.98749  19360199.0584   19360208.4854
  17033363.704   -36905307.97949 -28731187.22549  17033362.8464   17033369.3624
 96  2 12 19 39 59.9820000  0  8 29 27 28 16 19 18  2 31
  16525786.522   -23495289.15249 -18295582.22949  16525786.7074   16525792.1604
  17605145.788   -30872808.72749 -23617028.55649  17605146.1994   17605151.9874
  17847154.108   -39085970.837 9 -30419183.908 9  17847150.302    17847156.696
  19526134.052   -10134929.59349  -7852475.07249  19526134.1644   19526141.7944
  15576427.543   -48016197.20849 -37072054.33949  15576427.7564   15576433.4054
  14922542.536   -42164049.10249 -32835251.16649  14922542.0284   14922547.3514
  19325012.534   -12444354.62349  -9653961.80349  19325012.7904   19325021.8704
  17005052.512   -37054077.87249 -28847111.78049  17005053.3774   17005059.5954
 96  2 12 19 40 29.9820000  0  8 29 27 28 16 19 18  2 31
  16522064.626   -23514851.43849 -18310825.61349  16522064.2774   16522069.6644
  17574100.281   -31035952.81949 -23744153.79249  17574100.0844   17574107.5014
  17830352.881   -39174250.829 9 -30487973.503 9  17830351.468    17830357.379
  19495442.060   -10296221.06649  -7978156.75749  19495441.5854   19495448.0274
  15553045.550   -48139073.76849 -37167802.30849  15553045.1194   15553051.1884
  14908120.284   -42239837.78149 -32894307.29049  14908119.9784   14908125.3064
  19289846.527   -12629166.40049  -9797970.91849  19289844.0914   19289852.2734
  16976822.079   -37202433.87449 -28962713.81049  16976821.8094   16976827.3334
 96  2 12 19 40 59.9820000  0  8 29 27 28 16 19 18  2 31
  16518402.598   -23534088.77549 -18325815.78049  16518402.9974   16518408.9934
  17543067.744   -31199033.71349 -23871229.78949  17543067.1854   17543073.9854
  17813654.443   -39262012.786 9 -30556359.439 9  17813650.676    17813656.636
  19464819.412   -10457139.67449  -8103547.89449  19464820.1944   19464827.6314
  15529690.534   -48261802.77449 -37263435.29649  15529690.4954   15529696.2504
  14893792.048   -42315134.31849 -32952979.92049  14893791.3504   14893796.8644
  19254692.869   -12813884.72749  -9941907.24149  19254692.8644   19254701.2624
  16948673.825   -37350357.36549 -29077978.81749  16948672.9774   16948678.9654
 96  2 12 19 41 29.9820000  0  8 29 27 28 16 19 18  2 31
  16514804.010   -23553002.53749 -18340553.81749  16514804.1574   16514809.6674
  17512044.815   -31362061.93549 -23998264.74549  17512044.1964   17512050.3784
  17797049.909   -39349255.620 9 -30624340.870 9  17797048.903    17797054.886
  19434270.058   -10617679.51349  -8228643.87149  19434269.9444   19434277.3784
  15506366.464   -48384370.57249 -37358942.66649  15506366.4314   15506372.5754
  14879559.579   -42389925.35749 -33011258.66349  14879559.0194   14879564.4384
  19219557.388   -12998522.15649 -10085780.49049  19219557.3284   19219567.0294
  16920610.377   -37497834.90249 -29192896.33049  16920609.1514   16920615.2584
 96  2 12 19 41 59.9820000  0  8 29 27 28 16 19 18  2 31
  16511264.168   -23571600.84149 -18355046.03549  16511264.7404   16511270.0524
  17481027.331   -31525056.53749 -24125273.50249  17481026.9774   17481033.6414
  17780547.846   -39435983.454 9 -30691920.997 9  17780545.163    17780551.206
  19403792.492   -10777845.05949  -8353448.17549  19403792.4634   19403799.5334
  15483075.932   -48506765.75349 -37454315.52849  15483075.8134   15483081.3444
  14865423.113   -42464212.94349 -33069145.10149  14865422.2034   14865427.9374
  19184438.617   -13183071.87149 -10229585.39749  19184439.0384   19184448.4794
  16892629.878   -37644864.23349 -29307464.59149  16892630.1564   16892636.5774
 96  2 12 19 42 29.9820000  0  8 29 27 28 16 19 18  2 31
  16507783.935   -23589895.20549 -18369301.40949  16507783.7004   16507789.4264
  17450015.909   -31688025.97749 -24252262.64649  17450015.2304   17450022.0904
  17764140.168   -39522193.966 9 -30759098.023 9  17764140.013    17764146.018
  19373385.401   -10937637.82749  -8477962.00049  19373383.8244   19373391.5074
  15459818.116   -48628983.31749 -37549549.98349  15459818.3914   15459824.4794
  14851379.177   -42538014.77849 -33126653.03649  14851378.5764   14851384.2074
  19149341.883   -13367512.29649 -10373305.15649  19149341.2044   19149350.6754
  16864734.259   -37791462.69349 -29421697.10249  16864733.3724   16864739.7174
 96  2 12 19 42 59.9820000  0  8 29 27 28 16 19 18  2 31
  16504360.813   -23607882.41149 -18383317.45049  16504361.1654   16504366.6394
  17419005.325   -31850984.85049 -24379243.55849  17419005.2504   17419011.2574
  17747834.981   -39607886.716 9 -30825871.605 9  17747833.710    17747839.054
  19343049.800   -11097045.66749  -8602175.89749  19343048.9704   19343056.0714
  15436596.569   -48751014.52549 -37644639.23449  15436596.5694   15436602.3424
  14837423.242   -42611354.32449 -33183800.74249  14837422.6074   14837428.2194
  19114265.540   -13551845.08249 -10516941.02449  19114264.1454   19114272.6234
  16836917.186   -37937643.00349 -29535603.78349  16836915.4234   16836922.6654
 96  2 12 19 43 29.9820000  0  8 29 27 28 16 19 18  2 31
  16500992.857   -23625581.53749 -18397109.02249  16500992.7224   16500998.5864
  17387997.663   -32013929.17649 -24506213.14149  17387997.9184   17388004.3024
  17731625.783   -39693064.834 9 -30892244.176 9  17731624.708    17731630.422
  19312787.386   -11256076.68849  -8726096.17649  19312786.2414   19312794.1884
  15413409.890   -48872862.69849 -37739585.85849  15413409.7724   15413415.6204
  14823551.551   -42684249.39449 -33240602.10849  14823551.0574   14823556.4974
  19079208.353   -13736067.15549 -10660490.64349  19079207.6614   19079216.7094
  16809178.224   -38083403.12149 -29649183.05549  16809178.6914   16809184.7704
 96  2 12 19 43 59.9820000  0  8 29 27 28 16 19 18  2 31
  16497675.204   -23643012.12549 -18410691.33949  16497675.9004   16497681.4654
  17356996.266   -32176846.32349 -24633161.54849  17356995.6794   17357001.6104
  17715514.553   -39777729.914 9 -30958216.979 9  17715513.240    17715519.036
  19282594.075   -11414748.43349  -8849736.48549  19282591.8044   19282600.3724
  15390253.524   -48994549.93049 -37834407.07549  15390253.3004   15390259.4494
  14809763.308   -42756708.42249 -33297063.70049  14809762.7524   14809768.2214
  19044177.110   -13920158.48049 -10803938.37549  19044176.8874   19044185.8484
  16781522.314   -38228743.75249 -29762435.44449  16781521.5524   16781527.6464
 96  2 12 19 44 29.9820000  0  8 29 27 28 16 19 18  2 31
  16494415.704   -23660147.39349 -18424043.53149  16494415.5824   16494421.0304
  17326005.836   -32339701.99749 -24760062.05849  17326005.2764   17326011.0784
  17699500.362   -39861871.083 9 -31023781.534 9  17699501.726    17699507.589
  19252470.582   -11573046.95649  -8973085.96349  19252470.5024   19252476.5154
  15367126.704   -49116082.62549 -37929107.87349  15367126.4494   15367132.4624
  14796061.067   -42828711.28449 -33353169.84049  14796060.7394   14796066.3494
  19009172.523   -14104112.97949 -10947279.45949  19009171.3404   19009179.8164
  16753945.514   -38373653.92049 -29875352.40749  16753945.8114   16753952.4024
 96  2 12 19 44 59.9820000  0  8 29 27 28 16 19 18  2 31
  16491216.574   -23676957.81549 -18437142.60249  16491216.0214   16491222.1664
  17295029.690   -32502482.75249 -24886904.18349  17295029.5134   17295034.4944
  17683591.224   -39945483.593 9 -31088934.149 9  17683590.223    17683596.649
  19222417.572   -11730971.15149  -9096143.75349  19222417.3204   19222424.0554
  15344030.544   -49237453.11549 -38023682.27549  15344030.2554   15344036.3694
  14782451.050   -42900234.43949 -33408902.18549  14782450.4604   14782455.9674
  18974190.999   -14287940.47049 -11090521.60049  18974190.4864   18974198.4534
  16726456.266   -38518114.90249 -29987919.34749  16726456.0614   16726461.8944
 96  2 12 19 45 29.9820000  0  8 29 27 28 16 19 18  2 31
  16488079.069   -23693442.30649 -18449987.70449  16488079.4264   16488084.7064
  17264069.139   -32665180.73749 -25013681.82349  17264069.3474   17264075.0834
  17667781.442   -40028569.020 9 -31153676.051 9  17667779.866    17667786.227
  19192434.916   -11888531.38049  -9218917.94649  19192435.1654   19192441.4264
  15320964.495   -49358665.09149 -38118133.17049  15320964.6314   15320970.5504
  14768934.360   -42971262.97149 -33464249.11549  14768934.1574   14768939.9184
  18939234.079   -14471635.54149 -11233660.57749  18939234.1144   18939242.8124
  16699050.164   -38662134.62549 -30100142.45549  16699049.9514   16699055.9294
 96  2 12 19 45 59.9820000  0  8 29 27 28 16 19 18  2 31
  16485008.065   -23709585.64949 -18462566.97949  16485007.6214   16485013.6134
  17233123.710   -32827800.10249 -25140398.19749  17233123.4854   17233129.0944
  17652068.110   -40111127.514 9 -31218007.354 9  17652069.577    17652075.839
  19162526.215   -12045706.55449  -9341392.07849  19162524.8014   19162532.6194
  15297930.406   -49479711.56949 -38212455.09849  15297930.4374   15297936.0194
  14755514.476   -43041787.86049 -33519203.58949  14755513.8024   14755519.4514
  18904303.604   -14655199.51449 -11376697.38249  18904302.4184   18904311.2974
  16671726.519   -38805719.41849 -30212026.65049  16671726.0454   16671732.8334
 96  2 12 19 46 29.9810000  0  8 29 27 28 16 19 18  2 31
  16482004.499   -23725367.51449 -18474864.57849  16482004.2734   16482009.9514
  17202191.942   -32990346.57549 -25267057.77149  17202191.7034   17202197.5944
  17636464.400   -40193145.842 9 -31281917.753 9  17636462.133    17636468.267
  19132695.819   -12202461.88849  -9463539.05349  19132694.7514   19132702.7534
  15274934.181   -49600556.47749 -38306619.96249  15274934.1044   15274940.1174
  14742191.585   -43111798.20349 -33573757.11349  14742191.3194   14742197.1034
  18869396.580   -14838635.51149 -11519634.46649  18869396.2454   18869405.2614
  16644490.632   -38948845.89749 -30323553.71449  16644490.2814   16644496.4904
 96  2 12 19 46 59.9810000  0  8 29 27 28 16 19 18  2 31
  16479063.334   -23740824.31349 -18486908.87949  16479063.4404   16479069.0074
  17171269.835   -33152844.32749 -25393679.38149  17171269.6824   17171275.5744
  17620954.679   -40274631.646 9 -31345413.201 9  17620955.792    17620962.312
  19102946.229   -12358804.88849  -9585364.74449  19102945.1654   19102951.3464
  15251977.496   -49721197.25549 -38400625.76949  15251977.1434   15251982.6824
  14728960.598   -43181326.86949 -33627935.31149  14728960.1624   14728965.8824
  18834512.896   -15021951.61949 -11662478.14849  18834512.3244   18834520.1144
  16617339.336   -39091522.60549 -30434730.31949  16617339.9514   16617346.7254
 96  2 12 19 47 29.9810000  0  8 29 27 28 16 19 18  2 31
  16476182.669   -23755962.61049 -18498705.00049  16476182.7534   16476188.1804
  17140359.430   -33315278.10249 -25520251.14449  17140359.2774   17140365.5054
  17605553.080   -40355573.326 9 -31408484.660 9  17605553.296    17605559.400
  19073278.597   -12514708.62349  -9706848.14149  19073277.6864   19073284.3654
  15229062.695   -49841613.17949 -38494456.36349  15229062.9534   15229068.5904
  14715821.007   -43250377.66849 -33681741.14649  14715820.3054   14715826.0844
  18799655.184   -15205128.81749 -11805213.58549  18799654.1064   18799662.4774
  16590281.301   -39233722.02349 -30545535.01949  16590280.2834   16590286.3334
 96  2 12 19 47 59.9810000  0  8 29 27 28 16 19 18  2 31
  16473359.937   -23770796.81049 -18510264.15749  16473359.9494   16473365.4944
  17109459.692   -33477655.65549 -25646779.09149  17109459.6864   17109466.1974
  17590253.115   -40435975.099 9 -31471135.399 9  17590253.535    17590259.464
  19043695.596   -12670169.65849  -9827986.59149  19043694.7054   19043700.5984
  15206188.266   -49961820.49649 -38588124.40349  15206188.1734   15206193.7104
  14702770.380   -43318960.46849 -33735182.30349  14702769.7304   14702775.0744
  18764821.230   -15388176.55149 -11947848.11149  18764821.1174   18764830.6794
  16563314.840   -39375422.28949 -30655950.75549  16563315.5184   16563321.7484
 96  2 12 19 48 29.9810000  0  8 29 27 28 16 19 18  2 31
  16470589.290   -23785355.92949 -18521608.96649  16470589.1804   16470595.1564
  17078569.228   -33639986.92849 -25773270.97249  17078569.3194   17078576.1594
  17575053.135   -40515846.792 9 -31533373.094 9  17575054.328    17575060.197
  19014192.931   -12825206.56549  -9948794.56749  19014192.1234   19014198.6404
  15183348.069   -50081844.87749 -38681649.89949  15183348.3434   15183353.9314
  14689804.944   -43387091.89649 -33788271.74249  14689804.6554   14689810.2824
  18730012.731   -15571101.61749 -12090387.09049  18730012.0004   18730020.2184
  16536444.544   -39516632.25249 -30765984.46349  16536443.5264   16536450.3784
 96  2 12 19 48 59.9810000  0  8 29 27 28 16 19 18  2 31
  16467873.625   -23799627.54049 -18532729.74549  16467873.8634   16467879.4064
  17047692.054   -33802253.03649 -25899712.09349  17047691.3764   17047697.3824
  17559956.881   -40595182.620 9 -31595193.232 9  17559957.313    17559962.816
  18984769.661   -12979825.18449 -10069276.56749  18984769.2444   18984775.5724
  15160541.512   -50201695.40349 -38775039.92149  15160541.2174   15160547.0134
  14676929.111   -43454756.57449 -33840997.47149  14676928.6314   14676933.9614
  18695229.610   -15753887.02749 -12232817.23649  18695229.2594   18695236.9334
  16509666.957   -39657346.05349 -30875631.53749  16509666.8534   16509673.1794
 96  2 12 19 49 29.9810000  0  8 29 27 28 16 19 18  2 31
  16465221.462   -23813565.09049 -18543590.21649  16465221.1104   16465227.1064
  17016826.877   -33964447.49049 -26026097.37249  17016827.1114   17016833.0784
  17544965.754   -40673964.117 9 -31656581.431 9  17544965.869    17544971.278
  18955424.838   -13134022.29449 -10189430.14349  18955425.7734   18955433.2044
  15137768.815   -50321368.77949 -38868291.90849  15137768.3584   15137773.9184
  14664149.499   -43521916.14449 -33893329.61549  14664148.6144   14664153.8744
  18660476.915   -15936513.64549 -12375123.64649  18660476.2544   18660483.7104
  16482989.443   -39797546.21649 -30984878.38949  16482987.8564   16482994.4094
 96  2 12 19 49 59.9810000  0  8 29 27 28 16 19 18  2 31
  16462632.573   -23827166.58249 -18554188.83249  16462632.9564   16462638.4264
  16985972.711   -34126583.87349 -26152437.39349  16985973.3884   16985979.3604
  17530076.417   -40752197.656 9 -31717542.637 9  17530078.351    17530084.064
  18926161.827   -13287809.50749 -10309264.30449  18926161.2834   18926167.6794
  15115025.045   -50440887.51449 -38961423.38149  15115024.8944   15115030.2644
  14651464.809   -43588574.50449 -33945271.20149  14651464.0134   14651469.3814
  18625756.165   -16118973.42249 -12517300.05049  18625755.1134   18625763.5004
  16456403.370   -39937255.57649 -31093742.77549  16456402.0104   16456408.4274
 96  2 12 19 50 29.9810000  0  8 29 27 28 16 19 18  2 31
  16460109.729   -23840431.21649 -18564524.96049  16460108.9344   16460114.7874
  16955129.549   -34288668.63249 -26278737.19849  16955129.4574   16955135.9844
  17515292.340   -40829898.129 9 -31778088.472 9  17515292.574    17515298.285
  18896971.770   -13441209.05449 -10428796.39549  18896970.1924   18896977.1614
  15092312.716   -50560241.03249 -39054426.12349  15092312.4724   15092318.2164
  14638871.749   -43654749.62949 -33996836.24149  14638871.0424   14638876.7324
  18591063.976   -16301273.90949 -12659352.30549  18591064.0324   18591073.0544
  16429905.354   -40076502.98949 -31202247.21049  16429904.2814   16429910.0924
 96  2 12 19 50 59.9810000  0  8 29 27 28 16 19 18  2 31
  16457654.941   -23853327.82049 -18574574.31949  16457654.8514   16457660.3484
  16924301.565   -34450673.77849 -26404974.96449  16924300.7344   16924307.6484
  17500612.896   -40907042.727 9 -31838201.161 9  17500611.813    17500618.328
  18867858.222   -13594194.18649 -10548005.58449  18867858.2914   18867865.3494
  15069637.685   -50679398.78649 -39147276.32249  15069637.4694   15069643.1954
  14626377.209   -43720408.68149 -34047999.15049  14626376.8214   14626382.2824
  18556406.924   -16483397.15149 -12801266.46949  18556407.9594   18556416.1814
  16403501.621   -40215256.83249 -31310367.06049  16403500.6014   16403506.1434
 96  2 12 19 51 29.9810000  0  8 29 27 28 16 19 18  2 31
  16455260.692   -23865908.65649 -18584377.60049  16455260.5644   16455266.3394
  16893481.147   -34612633.59049 -26531177.40849  16893480.9244   16893486.7084
  17486028.471   -40983671.452 9 -31897911.870 9  17486029.423    17486036.461
  18838820.387   -13746787.41749 -10666909.38249  18838819.6264   18838827.3364
  15046992.741   -50798396.40749 -39240001.73649  15046992.7044   15046998.5744
  14613972.247   -43785598.10849 -34098796.11349  14613971.6324   14613977.1134
  18521780.933   -16665374.37049 -12943066.84649  18521777.9194   18521787.7374
  16377182.816   -40353557.65349 -31418133.88749  16377182.1234   16377187.8204
 96  2 12 19 51 59.9810000  0  8 29 27 28 16 19 18  2 31
  16452926.305   -23878174.65749 -18593935.56049  16452926.9394   16452932.2884
  16862678.407   -34774505.62649 -26657311.45549  16862678.0804   16862683.9064
  17471549.617   -41059770.455 9 -31957209.804 9  17471549.212    17471555.303
  18809862.713   -13898958.59649 -10785484.31749  18809862.7084   18809870.4124
  15024384.348   -50917206.07449 -39332580.69349  15024384.0334   15024389.8084
  14601659.848   -43850298.37849 -34149211.91649  14601659.5644   14601665.0524
  18487176.699   -16847202.12649 -13084750.73849  18487177.3014   18487186.2524
  16350953.965   -40491390.60149 -31525536.13749  16350953.6844   16350959.4934
 96  2 12 19 52 29.9810000  0  8 29 27 28 16 19 18  2 31
  16450650.225   -23890135.18949 -18603255.50549  16450650.7154   16450656.1154
  16831895.815   -34936269.14849 -26783360.94249  16831895.3594   16831900.9224
  17457170.847   -41135331.719 9 -32016088.716 9  17457170.364    17457176.382
  18780991.902   -14050686.74149 -10903714.02749  18780990.4364   18780998.2414
  15001812.557   -51035819.44849 -39425006.69049  15001812.7254   15001818.5724
  14589444.578   -43914491.52149 -34199232.55349  14589444.1394   14589449.4894
  18452601.711   -17028900.05049 -13226333.49849  18452602.1334   18452609.8334
  16324817.304   -40628742.58749 -31632563.61549  16324815.9684   16324821.9734
 96  2 12 19 52 59.9810000  0  8 29 27 28 16 19 18  2 31
  16448433.329   -23901790.38849 -18612337.53349  16448433.0794   16448438.8494
  16801135.199   -35097914.69749 -26909318.50849  16801135.0014   16801140.5894
  17442896.236   -41210341.392 9 -32074537.829 9  17442896.551    17442902.589
  18752206.591   -14201945.64349 -11021578.08749  18752206.6594   18752214.2774
  14979278.043   -51154240.11749 -39517282.52549  14979278.0084   14979283.6884
  14577328.309   -43978161.55149 -34248845.57249  14577327.8384   14577333.6264
  18418050.956   -17210458.90749 -13367807.87449  18418051.5994   18418060.3274
  16298774.450   -40765592.76049 -31739200.06049  16298774.5494   16298781.1164
 96  2 12 19 53 29.9810000  0  8 29 27 28 16 19 18  2 31
  16446267.764   -23913166.95349 -18621202.43849  16446268.0844   16446273.5554
  16770391.617   -35259472.79749 -27035207.92949  16770391.3434   16770396.8684
  17428721.805   -41284830.148 9 -32132581.023 9  17428721.919    17428727.675
  18723508.498   -14352759.67749 -11139095.48649  18723507.0504   18723515.7724
  14956775.992   -51272489.65149 -39609425.00649  14956775.6664   14956781.6494
  14565303.642   -44041352.43249 -34298085.23349  14565303.2024   14565308.9054
  18383527.793   -17391900.40649 -13509190.77749  18383524.8954   18383532.9904
  16272823.290   -40901972.77949 -31845470.14649  16272821.9914   16272827.9354
 96  2 12 19 53 59.9810000  0  8 29 27 28 16 19 18  2 31
  16444157.691   -23924252.94049 -18629840.90949  16444158.4664   16444164.7304
  16739664.825   -35420942.55349 -27161028.52349  16739664.8934   16739670.0984
  17414650.031   -41358785.961 9 -32190208.931 9  17414648.684    17414654.520
  18694895.626   -14503121.41049 -11256260.43849  18694895.4174   18694902.1764
  14934310.976   -51390544.53849 -39701415.81649  14934310.6794   14934316.2484
  14553371.721   -44104056.15249 -34346945.28549  14553370.9764   14553376.4944
  18349022.197   -17573222.17549 -13650480.40449  18349020.2844   18349028.7124
  16246962.346   -41037869.12549 -31951363.33949  16246961.4764   16246968.4104
 96  2 12 19 54 29.9810000  0  8 29 27 28 16 19 18  2 31
  16442103.362   -23935053.64249 -18638257.08449  16442103.4994   16442108.6704
  16708949.055   -35582357.41849 -27286806.33049  16708948.0394   16708953.8694
  17400677.722   -41432214.123 9 -32247425.674 9  17400675.595    17400681.531
  18666364.214   -14653048.73449 -11373086.90149  18666364.1354   18666371.7994
  14911881.150   -51508411.95449 -39793260.54649  14911881.2614   14911887.1354
  14541528.878   -44166289.19449 -34395438.57249  14541528.4974   14541534.0884
  18314538.748   -17754417.44249 -13791671.45749  18314538.7234   18314548.7824
  16221197.471   -41173268.53049 -32056869.31649  16221196.2674   16221202.6264
 96  2 12 19 54 59.9800000  0  8 29 27 28 16 19 18  2 31
  16440109.373   -23945528.65449 -18646419.47549  16440109.3704   16440115.6224
  16678245.183   -35743703.51249 -27412530.56049  16678245.2724   16678250.7404
  17386809.943   -41505083.884 9 -32304207.316 9  17386809.043    17386814.676
  18637920.879   -14802526.23149 -11489562.85349  18637920.2014   18637927.1824
  14889496.290   -51626046.55049 -39884923.86449  14889496.1404   14889502.0614
  14529780.587   -44228027.56049 -34443546.40649  14529779.9954   14529785.5754
  18280096.624   -17935424.78449 -13932716.08149  18280095.8664   18280104.6194
  16195533.129   -41308125.62949 -32161952.72049  16195533.4484   16195540.2664
 96  2 12 19 55 29.9800000  0  8 29 27 28 16 19 18  2 31
  16438176.009   -23955693.39949 -18654340.10949  16438175.6084   16438181.1124
  16647550.421   -35905007.76449 -27538222.17249  16647550.0654   16647556.2344
  17373044.799   -41577415.430 9 -32360569.558 9  17373044.519    17373050.364
  18609554.841   -14951591.73649 -11605717.76049  18609553.1034   18609561.5704
  14867150.632   -51743472.44249 -39976424.54749  14867150.7254   14867156.6114
  14518123.853   -44289282.62549 -34491277.63349  14518123.5984   14518129.1474
  18245683.578   -18116268.41649 -14073633.13549  18245681.3444   18245690.8214
  16169969.483   -41442466.54549 -32266633.90249  16169969.4664   16169975.4954
 96  2 12 19 55 59.9800000  0  8 29 27 28 16 19 18  2 31
  16436295.994   -23965571.79849 -18662037.61749  16436296.3404   16436301.5284
  16616863.088   -36066271.10249 -27663881.89249  16616862.6044   16616869.0534
  17359383.394   -41649214.639 9 -32416516.983 9  17359381.484    17359387.509
  18581264.736   -15100258.27349 -11721561.78849  18581263.1084   18581271.0984
  14844840.362   -51860715.95749 -40067783.12449  14844840.1484   14844846.1534
  14506560.877   -44350050.01949 -34538628.86249  14506559.9744   14506565.6884
  18211296.596   -18296959.15949 -14214431.03649  18211297.3484   18211306.4584
  16144501.840   -41576298.38749 -32370918.40149  16144501.6834   16144507.9734
 96  2 12 19 56 29.9800000  0  8 29 27 28 16 19 18  2 31
  16434470.562   -23975168.28749 -18669515.46149  16434470.0494   16434475.5554
  16586182.693   -36227498.05049 -27789513.26149  16586182.2404   16586188.5074
  17345817.825   -41720489.058 9 -32472055.497 9  17345818.205    17345824.579
  18553050.361   -15248521.93849 -11837091.87549  18553049.3894   18553057.3794
  14822558.526   -51977807.04349 -40159022.92649  14822558.3314   14822564.1734
  14495087.674   -44410339.67949 -34585607.82949  14495087.0254   14495092.8304
  18176943.079   -18477500.07749 -14355112.21649  18176942.0044   18176950.6504
  16119132.210   -41709621.33449 -32474806.36949  16119131.2894   16119137.3344
 96  2 12 19 56 59.9800000  0  8 29 27 28 16 19 18  2 31
  16432702.395   -23984452.29849 -18676749.79949  16432702.5404   16432708.9034
  16555518.205   -36388637.99849 -27915076.83649  16555518.7244   16555524.3474
  17332362.890   -41791210.917 9 -32527163.439 9  17332360.553    17332366.692
  18524921.533   -15396334.24249 -11952270.27049  18524921.9324   18524929.4544
  14800308.794   -52094728.75449 -40250130.74849  14800308.8074   14800314.6924
  14483711.695   -44470122.69149 -34632192.00549  14483710.9114   14483716.8354
  18142621.450   -18657861.05949 -14495653.16649  18142619.9744   18142629.3664
  16093860.852   -41842424.18749 -32578289.05649  16093859.8664   16093865.8504
 96  2 12 19 57 29.9800000  0  8 29 27 28 16 19 18  2 31
  16430987.829   -23993464.32349 -18683772.20749  16430987.9744   16430993.9694
  16524867.996   -36549704.22349 -28040582.96449  16524868.4894   16524874.4594
  17318999.199   -41861416.220 9 -32581868.874 9  17319000.956    17319007.062
  18496879.260   -15543704.67449 -12067104.35649  18496878.4884   18496884.9294
  14778082.139   -52211531.47249 -40341145.85149  14778082.1894   14778088.1104
  14472424.576   -44529435.39249 -34678409.70549  14472424.0404   14472429.9824
  18108328.223   -18838075.24549 -14636079.73749  18108326.9934   18108334.8504
  16068682.411   -41974739.20949 -32681391.63949  16068681.1734   16068687.0034
 96  2 12 19 57 59.9800000  0  8 29 27 28 16 19 18  2 31
  16429341.300   -24002119.72349 -18690516.71049  16429340.9964   16429347.3034
  16494245.016   -36710634.75349 -28165983.36049  16494244.7844   16494250.8554
  17305756.796   -41931032.958 9 -32636115.679 9  17305753.396    17305759.546
  18468937.744   -15690535.11249 -12181517.66849  18468936.5934   18468943.6184
  14755892.294   -52328141.64349 -40432010.91649  14755892.0434   14755897.8914
  14461238.698   -44588217.61549 -34724214.04849  14461238.2844   14461243.9704
  18074077.863   -19018064.18649 -14776330.80649  18074075.8004   18074083.9484
  16043613.522   -42106473.91249 -32784042.02349  16043613.2964   16043618.6254
 96  2 12 19 58 29.9800000  0  8 29 27 28 16 19 18  2 31
  16427757.955   -24010438.82149 -18696999.17249  16427758.2594   16427763.3614
  16463638.043   -36871472.62049 -28291311.54549  16463638.0704   16463643.6164
  17292611.886   -42000099.003 9 -32689933.383 9  17292610.755    17292616.876
  18441094.557   -15836858.98649 -12295536.27149  18441092.7504   18441100.1104
  14733735.270   -52444576.17849 -40522739.12049  14733735.1644   14733741.0264
  14450146.496   -44646508.94049 -34769635.87749  14450145.9814   14450151.3044
  18039862.947   -19197852.73949 -14916425.70449  18039863.0174   18039871.6654
  16018650.968   -42237648.23749 -32886255.74849  16018651.2664   16018656.8144
 96  2 12 19 58 59.9800000  0  8 29 27 28 16 19 18  2 31
  16426233.246   -24018455.41649 -18703245.90749  16426232.4864   16426239.0124
  16433046.229   -37032237.67549 -28416582.99749  16433045.2354   16433051.2374
  17279569.250   -42068640.143 9 -32743342.068 9  17279567.880    17279573.517
  18413338.085   -15982714.76449 -12409190.10549  18413336.8114   18413344.9624
  14711613.113   -52560828.74049 -40613325.53049  14711613.1484   14711619.0084
  14439143.900   -44704326.58049 -34814688.59549  14439143.5104   14439149.0984
  18005686.110   -19377456.42049 -15056376.53949  18005686.1554   18005693.8744
  15993791.330   -42368287.55749 -32988052.59649  15993791.2864   15993796.9104
 96  2 12 19 59 29.9800000  0  8 29 27 28 16 19 18  2 31
  16424771.731   -24026135.59549 -18709230.49649  16424771.3774   16424776.7014
  16402472.755   -37192898.56049 -28541773.28049  16402472.6964   16402478.0814
  17266628.176   -42136616.577 9 -32796310.712 9  17266632.265    17266638.292
  18385677.698   -16128066.63649 -12522451.30249  18385677.2994   18385685.3734
  14689536.851   -52676840.50749 -40703724.30449  14689536.8264   14689542.8134
  14428239.174   -44761634.34549 -34859344.00249  14428238.3284   14428244.0334
  17971549.635   -19556845.30049 -15196160.01649  17971549.1134   17971556.5384
  15969043.679   -42498344.82049 -33089395.89849  15969042.5584   15969047.5784
 96  2 12 19 59 59.9800000  0  8 29 27 28 16 19 18  2 31
  16423364.683   -24033524.12349 -18714987.81749  16423365.1274   16423371.0764
  16371910.203   -37353506.32649 -28666922.17449  16371909.7984   16371916.0984
  17253797.443   -42204070.182 9 -32848871.959 9  17253796.341    17253802.365
  18358104.690   -16272974.34249 -12635366.38549  18358103.0084   18358110.3644
  14667501.459   -52792638.35849 -40793956.39149  14667501.1664   14667506.9564
  14417421.019   -44818479.22149 -34903638.72049  14417420.8544   14417426.8124
  17937443.003   -19736079.08449 -15335822.62649  17937441.9554   17937450.0444
  15944393.609   -42627879.89249 -33190332.29049  15944392.6034   15944398.3394
 96  2 12 20  0 29.9800000  0  8 29 27 28 16 19 18  2 31
  16422013.351   -24040631.38849 -18720525.97149  16422012.7684   16422018.8474
  16341365.842   -37514020.05649 -28791997.78649  16341365.4454   16341371.5124
  17241066.220   -42270986.549 9 -32901014.573 9  17241062.098    17241068.434
  18330613.699   -16417434.50649 -12747932.72449  18330611.8964   18330619.8124
  14645511.748   -52908193.41749 -40883999.28449  14645511.9324   14645517.6544
  14406696.107   -44874841.08949 -34947557.07049  14406695.7584   14406701.3664
  17903367.036   -19915147.73449 -15475356.55749  17903366.3744   17903374.5884
  15919841.482   -42756903.75149 -33290870.33749  15919840.2504   15919845.8964
 96  2 12 20  0 59.9800000  0  8 29 27 28 16 19 18  2 31
  16420712.780   -24047462.45349 -18725848.92149  16420713.1174   16420718.6514
  16310839.765   -37674434.23749 -28916995.83949  16310839.9984   16310845.8714
  17228430.204   -42337366.659 9 -32952739.337 9  17228430.660    17228436.654
  18303211.817   -16561436.02349 -12860141.68149  18303210.1854   18303217.4764
  14623565.598   -53023523.10249 -40973866.56749  14623565.3334   14623571.2444
  14396062.919   -44930721.14049 -34991099.97749  14396062.0894   14396067.7524
  17869321.083   -20094060.00649 -15614768.63249  17869320.4924   17869329.2704
  15895382.357   -42885427.61849 -33391018.79349  15895382.5314   15895388.7624
 96  2 12 20  1 29.9800000  0  8 29 27 28 16 19 18  2 31
  16419471.468   -24053983.74349 -18730930.48849  16419471.8494   16419477.4084
  16280335.526   -37834734.27149 -29041904.94449  16280335.8254   16280341.4364
  17215906.056   -42403186.413 9 -33004027.445 9  17215905.439    17215911.237
  18275901.440   -16704945.23049 -12971967.01549  18275900.9724   18275909.4514
  14601661.791   -53138628.18549 -41063558.82849  14601661.5044   14601667.2714
  14385525.721   -44986094.28749 -35034247.89949  14385525.1124   14385530.7074
  17835308.360   -20272801.33749 -15754047.52349  17835307.2114   17835315.5374
  15871025.688   -43013425.24149 -33490757.19449  15871024.7394   15871031.2424
 96  2 12 20  1 59.9800000  0  8 29 27 28 16 19 18  2 31
  16418282.276   -24060235.45649 -18735802.00349  16418282.3994   16418288.5484
  16249843.311   -37994967.65949 -29166762.11749  16249843.6934   16249849.9594
  17203478.508   -42468488.481 9 -33054912.161 9  17203479.251    17203484.522
  18248677.980   -16848004.76249 -13083441.97949  18248677.2134   18248685.7784
  14579792.238   -53253552.08249 -41153109.90949  14579792.5304   14579797.9704
  14375078.606   -45040995.71649 -35077028.24549  14375077.6484   14375083.2554
  17801321.306   -20451401.45349 -15893216.35149  17801320.3814   17801328.7754
  15846763.296   -43140925.99249 -33590108.41649  15846763.0334   15846768.9344
 96  2 12 20  2 29.9800000  0  8 29 27 28 16 19 18  2 31
  16417152.426   -24066173.01149 -18740428.70749  16417152.1974   16417158.1444
  16219373.698   -38155090.79949 -29291533.38449  16219373.1064   16219378.8914
  17191158.421   -42533237.020 9 -33105365.570 9  17191157.823    17191163.746
  18221549.813   -16990572.21249 -13194533.49349  18221547.8774   18221555.0364
  14557963.905   -53368262.22149 -41242494.42449  14557963.8354   14557969.3394
  14364728.157   -45095383.63049 -35119408.43949  14364727.9544   14364733.5114
  17767368.618   -20629817.27749 -16032241.58249  17767368.8924   17767377.3444
  15822607.531   -43267863.97549 -33689021.13249  15822607.9734   15822613.8034
 96  2 12 20  2 59.9800000  0  8 29 27 28 16 19 18  2 31
  16416079.044   -24071813.51549 -18744823.94349  16416079.0744   16416085.4904
  16188912.971   -38315160.32149 -29416262.86249  16188913.4434   16188919.2994
  17178935.382   -42597472.006 9 -33155418.799 9  17178934.449    17178940.506
  18194504.977   -17132690.15449 -13305274.74549  18194503.9414   18194511.5734
  14536167.738   -53482802.83749 -41331746.84349  14536167.4564   14536172.9744
  14354470.539   -45149289.84749 -35161413.27549  14354469.9464   14354475.5624
  17733446.960   -20808080.33449 -16171147.77949  17733446.2284   17733455.1294
  15798555.540   -43394259.71149 -33787511.31349  15798555.5444   15798560.9604
 96  2 12 20  3 29.9790000  0  8 29 27 28 16 19 18  2 31
  16415069.875   -24077119.81549 -18748958.76349  16415069.8464   16415075.4784
  16158476.356   -38475109.19949 -29540898.32749  16158475.8304   16158481.7824
  17166819.939   -42661136.430 9 -33205027.418 9  17166819.563    17166825.458
  18167557.684   -17274302.28049 -13415621.86249  18167555.9804   18167563.3394
  14514419.484   -53597090.04749 -41420801.79649  14514419.3554   14514425.0894
  14344314.669   -45202657.47949 -35202998.44249  14344314.3874   14344319.9664
  17699567.577   -20986124.31349 -16309883.23449  17699566.0254   17699574.1394
  15774618.841   -43520046.79649 -33885527.22249  15774618.7924   15774624.8014
 96  2 12 20  3 59.9790000  0  8 29 27 28 16 19 18  2 31
  16414109.715   -24082161.90349 -18752887.69449  16414110.2134   16414115.2794
  16128050.725   -38634993.08749 -29665483.14149  16128050.8544   16128057.1784
  17154800.899   -42724299.951 9 -33254245.733 9  17154799.937    17154805.830
  18140689.817   -17415487.81749 -13525636.55949  18140689.6604   18140696.7884
  14492707.134   -53711187.63049 -41509709.00149  14492707.2734   14492712.7824
  14334248.276   -45255558.88849 -35244220.32149  14334247.6984   14334253.4264
  17665714.374   -21164018.73249 -16448502.20549  17665713.6884   17665721.0014
  15750786.186   -43645292.19549 -33983121.03949  15750785.3704   15750791.5744
 96  2 12 20  4 29.9790000  0  8 29 27 28 16 19 18  2 31
  16413205.095   -24086917.55549 -18756593.42949  16413205.3714   16413210.6714
  16097647.760   -38794764.93649 -29789980.65649  16097647.5114   16097653.3644
  17142883.515   -42786927.889 9 -33303046.701 9  17142881.966    17142888.391
  18113912.212   -17556214.06249 -13635293.36449  18113910.0614   18113916.6084
  14471036.717   -53825066.67949 -41598445.91049  14471036.6004   14471042.2944
  14324277.994   -45307951.95249 -35285046.08249  14324277.4954   14324283.1254
  17631899.675   -21341714.94249 -16586966.68349  17631899.2164   17631907.7044
  15727059.047   -43769978.77849 -34080279.40649  15727058.4184   15727064.0214
 96  2 12 20  4 59.9790000  0  8 29 27 28 16 19 18  2 31
  16412353.630   -24091396.14049 -18760083.27349  16412352.7324   16412358.0604
  16067266.539   -38954414.63849 -29914382.99449  16067266.7804   16067272.7144
  17131070.580   -42849002.917 9 -33351416.833 9  17131069.515    17131075.727
  18087224.156   -17696458.05449 -13744574.39649  18087223.8584   18087229.2774
  14449412.442   -53938705.28849 -41686995.47149  14449412.1204   14449417.7834
  14314406.730   -45359822.92049 -35325465.01949  14314406.6344   14314412.3194
  17598128.264   -21519184.87449 -16725254.85849  17598127.3324   17598135.2054
  15703438.787   -43894103.05249 -34176999.60649  15703438.5754   15703444.2724
 96  2 12 20  5 29.9790000  0  8 29 27 28 16 19 18  2 31
  16411548.170   -24095624.90949 -18763378.46249  16411548.0494   16411554.0084
  16036905.694   -39113961.11949 -30038704.89149  16036906.3124   16036912.5034
  17119362.537   -42910539.997 9 -33399367.783 9  17119359.538    17119365.683
  18060625.337   -17836230.51449 -13853487.99649  18060625.2364   18060631.4704
  14427828.561   -54052127.15749 -41775376.14449  14427828.6874   14427834.2434
  14304630.614   -45411197.76949 -35365497.37149  14304630.3694   14304636.1964
  17564395.323   -21696451.16849 -16863384.37649  17564394.7474   17564401.8824
  15679923.505   -44017676.37849 -34273290.51049  15679923.0734   15679928.9214
 96  2 12 20  5 59.9790000  0  8 29 27 28 16 19 18  2 31
  16410795.373   -24099580.64849 -18766460.90349  16410795.6644   16410800.8894
  16006564.143   -39273409.28949 -30162950.17249  16006563.8804   16006570.4204
  17107757.298   -42971532.864 9 -33446894.675 9  17107752.885    17107758.993
  18034121.506   -17975516.23649 -13962022.29549  18034119.4474   18034127.8844
  14406285.120   -54165338.86149 -41863593.04549  14406285.0394   14406290.7704
  14294950.286   -45462069.57449 -35405137.74449  14294949.8504   14294955.6074
  17530703.738   -21873503.70449 -17001347.29549  17530702.6164   17530710.6324
  15656512.912   -44140697.50449 -34369151.11349  15656512.7254   15656518.8594
 96  2 12 20  6 29.9790000  0  8 29 27 28 16 19 18  2 31
  16410093.450   -24103268.25449 -18769334.39449  16410094.1044   16410099.7284
  15976236.658   -39432783.15349 -30287137.56549  15976236.2444   15976242.2264
  17096248.274   -43031992.170 9 -33494005.800 9  17096247.923    17096254.089
  18007706.944   -18114314.33349 -14070176.64549  18007707.6124   18007715.0644
  14384778.755   -54278356.25949 -41951658.54549  14384778.5114   14384784.1204
  14285362.417   -45512455.26449 -35444399.32149  14285361.7124   14285367.3294
  17497049.281   -22050358.04149 -17139155.78249  17497049.0034   17497055.9904
  15633206.007   -44263178.49749 -34464590.83349  15633205.5664   15633211.6284
 96  2 12 20  6 59.9790000  0  8 29 27 28 16 19 18  2 31
  16409446.136   -24106671.70849 -18771986.48649  16409446.0934   16409452.0714
  15945920.631   -39592094.56549 -30411276.29849  15945920.6404   15945926.1544
  17084844.024   -43091922.389 9 -33540704.652 9  17084843.363    17084849.313
  17981390.741   -18252612.74549 -14177941.63949  17981390.3574   17981396.7524
  14363306.951   -54391191.47049 -42039582.08249  14363306.8054   14363312.2954
  14275862.759   -45562374.48849 -35483297.42549  14275862.5164   14275868.0794
  17463428.129   -22227033.85949 -17276825.15249  17463427.8864   17463435.3704
  15610003.988   -44385106.19749 -34559599.40749  15610003.5204   15610009.9134
 96  2 12 20  7 29.9790000  0  8 29 27 28 16 19 18  2 31
  16408857.570   -24109764.65249 -18774396.61749  16408857.8464   16408863.5684
  15915618.405   -39751334.88749 -30535359.62849  15915618.3564   15915624.5264
  17073540.107   -43151324.013 9 -33586991.601 9  17073539.600    17073545.676
  17955169.596   -18390405.72249 -14285312.77749  17955168.7964   17955176.1854
  14341867.562   -54503854.07649 -42127371.11849  14341867.6764   14341873.4634
  14266453.477   -45611822.19249 -35521828.11649  14266452.9624   14266458.7094
  17429841.644   -22403536.05049 -17414359.23849  17429840.5684   17429848.2574
  15586907.213   -44506483.74449 -34654179.28049  15586906.6474   15586912.4554
 96  2 12 20  7 59.9790000  0  8 29 27 28 16 19 18  2 31
  16408329.432   -24112544.81049 -18776563.02149  16408328.6374   16408334.8334
  15885331.523   -39910493.90649 -30659379.60849  15885331.3954   15885336.9484
  17062335.515   -43210197.515 9 -33632867.038 9  17062336.600    17062342.293
  17929046.040   -18527689.77349 -14392287.34949  17929043.7304   17929051.8194
  14320462.186   -54616342.13349 -42215024.14249  14320461.6764   14320467.6464
  14257133.208   -45660800.62649 -35559993.13849  14257132.7294   14257138.2624
  17396289.103   -22579849.27449 -17551746.06749  17396288.6724   17396297.0554
  15563913.357   -44627312.15149 -34748331.24949  15563913.4554   15563919.0324
 96  2 12 20  8 29.9790000  0  8 29 27 28 16 19 18  2 31
  16407855.728   -24115030.26849 -18778499.78249  16407855.9044   16407861.6384
  15855058.903   -40069578.99049 -30783341.98349  15855058.2604   15855064.0814
  17051232.375   -43268551.679 9 -33678337.795 9  17051232.097    17051237.683
  17903012.525   -18664486.29349 -14498882.00949  17903012.7774   17903020.1134
  14299087.141   -54728668.35849 -42302551.06649  14299087.1864   14299092.7354
  14247901.822   -45709314.53949 -35597796.19349  14247900.9524   14247906.4934
  17362772.323   -22755981.44249 -17688991.83349  17362772.2164   17362779.6354
  15541026.396   -44747585.79949 -34842050.93249  15541026.2824   15541031.8694
 96  2 12 20  8 59.9790000  0  8 29 27 28 16 19 18  2 31
  16407439.347   -24117219.21749 -18780205.49349  16407438.8544   16407445.5304
  15824805.034   -40228560.95549 -30907223.99249  15824805.2174   15824811.0154
  17040232.703   -43326369.614 9 -33723390.714 9  17040229.564    17040235.157
  17877077.023   -18800783.94949 -14605087.95949  17877076.7034   17877083.7564
  14277749.119   -54840799.86249 -42389926.25549  14277749.0974   14277754.8674
  14238764.217   -45757329.90649 -35635210.76949  14238763.8394   14238769.5394
  17329296.148   -22931903.25549 -17826073.66349  17329295.3864   17329303.5034
  15518249.732   -44867279.20549 -34935318.48949  15518249.2274   15518254.4604
 96  2 12 20  9 29.9790000  0  8 29 27 28 16 19 18  2 31
  16407076.507   -24119127.16249 -18781692.26149  16407076.1614   16407082.4314
  15794575.903   -40387419.20349 -31031009.61549  15794575.4694   15794581.3314
  17029329.687   -43383648.661 9 -33768023.727 9  17029329.930    17029335.543
  17851234.064   -18936590.42949 -14710911.17549  17851232.5014   17851239.3924
  14256453.535   -54952709.52649 -42477128.58849  14256453.4424   14256459.0364
  14229723.686   -45804838.41649 -35672230.40349  14229723.1674   14229728.9754
  17295862.353   -23107599.99549 -17962980.13149  17295861.9234   17295869.2804
  15495583.219   -44986385.93249 -35028128.88649  15495583.3624   15495589.3644
 96  2 12 20  9 59.9790000  0  8 29 27 28 16 19 18  2 31
  16406765.492   -24120760.71749 -18782965.20349  16406765.3184   16406771.3754
  15764370.286   -40546148.30749 -31154694.60949  15764369.8344   15764375.3844
  17018535.888   -43440383.069 9 -33812232.351 9  17018533.872    17018539.423
  17825482.717   -19071908.22949 -14816353.60149  17825483.3224   17825490.5214
  14235203.287   -55064378.64249 -42564143.47649  14235203.4904   14235209.2714
  14220781.095   -45851831.60749 -35708848.48349  14220780.8124   14220786.3074
  17262471.081   -23283069.57849 -18099709.59749  17262470.7174   17262478.7474
  15473033.866   -45104885.21149 -35120465.94249  15473033.9774   15473039.5064
 96  2 12 20 10 29.9790000  0  8 29 27 28 16 19 18  2 31
  16406497.514   -24122170.66449 -18784063.91349  16406496.5494   16406502.7874
  15734184.317   -40704775.90349 -31278300.49749  15734184.2624   15734189.9804
  17007837.797   -43496602.351 9 -33856039.571 9  17007835.405    17007841.217
  17799820.753   -19206758.49449 -14921431.70549  17799821.7774   17799828.2064
  14213995.303   -55175827.78249 -42650986.95449  14213995.2234   14214001.0604
  14211933.401   -45898327.01949 -35745078.68649  14211932.9014   14211938.5304
  17229114.832   -23458359.67549 -18236299.19949  17229114.4864   17229121.9654
  15450594.877   -45222811.16649 -35212356.25749  15450593.3414   15450598.8254
 96  2 12 20 10 59.9790000  0  8 29 27 28 16 19 18  2 31
  16406272.221   -24123356.43549 -18784987.94449  16406271.1654   16406277.4394
  15704019.604   -40863292.22849 -31401819.67849  15704019.5954   15704025.3404
  16997239.171   -43552303.152 9 -33899442.791 9  16997235.640    16997241.615
  17774252.832   -19341130.68849 -15026137.27749  17774251.6324   17774258.1674
  14192831.237   -55287047.49749 -42737651.65949  14192830.8354   14192836.5854
  14203180.640   -45944323.08049 -35780919.78749  14203180.1164   14203185.9554
  17195793.665   -23633467.99949 -18372747.15949  17195792.1154   17195799.4494
  15428262.013   -45340171.77649 -35303806.05349  15428260.4014   15428266.0824
 96  2 12 20 11 29.9780000  0  8 29 27 28 16 19 18  2 31
  16406091.209   -24124303.17249 -18785725.70749  16406091.1634   16406096.9394
  15673874.710   -41021702.49249 -31525256.21649  15673874.9414   15673880.6894
  16986737.856   -43607476.531 9 -33942435.049 9  16986736.624    16986742.189
  17748777.560   -19475004.61149 -15130454.61049  17748776.0564   17748782.9294
  14171710.916   -55398034.42149 -42824134.97149  14171710.8334   14171716.5324
  14194522.402   -45989818.78849 -35816371.01049  14194522.4234   14194528.3274
  17162506.318   -23808393.10449 -18509052.36949  17162504.8564   17162512.9324
  15406036.784   -45456961.50949 -35394811.02049  15406036.1164   15406042.1694
 96  2 12 20 11 59.9780000  0  8 29 27 28 16 19 18  2 31
  16405957.465   -24125007.64449 -18786274.70349  16405957.4034   16405962.4284
  15643745.280   -41180035.28849 -31648632.40049  15643745.3114   15643751.0794
  16976339.257   -43662125.819 9 -33985018.914 9  16976337.242    16976343.415
  17723396.400   -19608381.43849 -15234384.59049  17723396.1224   17723402.3664
  14150630.553   -55508813.96849 -42910456.69349  14150630.3084   14150635.9524
  14185960.757   -46034814.53249 -35851432.64849  14185960.0574   14185966.0794
  17129251.258   -23983145.78449 -18645223.21849  17129250.6804   17129258.6464
  15383920.506   -45573186.06149 -35485375.58749  15383919.1484   15383924.7464
 96  2 12 20 12 29.9780000  0  8 29 27 28 16 19 18  2 31
  16405869.120   -24125470.07149 -18786635.09349  16405868.7104   16405875.1504
  15613630.717   -41338284.82649 -31771943.69649  15613631.1634   15613637.3014
  16966040.810   -43716253.645 9 -34027196.453 9  16966037.167    16966042.920
  17698111.728   -19741253.20749 -15337921.01449  17698110.7924   17698117.5184
  14129587.875   -55619393.56949 -42996622.60949  14129587.6554   14129593.3064
  14177489.721   -46079329.96249 -35886120.01349  14177489.0954   14177494.9934
  17096033.447   -24157703.16149 -18781241.88349  17096033.5644   17096040.8754
  15361911.114   -45688842.31449 -35575497.33249  15361910.8214   15361916.5094
 96  2 12 20 12 59.9780000  0  8 29 27 28 16 19 18  2 31
  16405832.019   -24125665.49549 -18786787.41249  16405833.1754   16405838.6104
  15583534.813   -41496444.07549 -31895184.64449  15583534.7034   15583540.2854
  16955833.680   -43769865.186 9 -34068971.689 9  16955835.033    16955841.276
  17672923.238   -19873622.37849 -15441065.80949  17672922.2864   17672928.5994
  14108583.300   -55729771.69949 -43082631.53549  14108583.4904   14108589.0314
  14169105.606   -46123389.86549 -35920452.41849  14169105.1154   14169110.8164
  17062857.581   -24332045.23949 -18917092.79149  17062856.9264   17062865.2034
  15340011.882   -45803921.35949 -35665169.29649  15340011.4754   15340017.6294
 96  2 12 20 13 29.9780000  0  8 29 27 28 16 19 18  2 31
  16405844.213   -24125604.88549 -18786740.24049  16405843.7944   16405850.1904
  15553453.365   -41654521.56749 -32018361.88149  15553453.2974   15553459.5644
  16945729.850   -43822970.392 9 -34110352.399 9  16945729.073    16945735.846
  17647828.871   -20005494.15549 -15543823.03349  17647828.2894   17647834.0704
  14087615.833   -55839956.00649 -43168489.42749  14087615.9944   14087621.6654
  14160802.713   -46167022.12449 -35954451.59749  14160802.1574   14160807.7334
  17029721.890   -24506177.63749 -19052780.30649  17029720.7274   17029728.4434
  15318222.190   -45918419.18449 -35754388.37149  15318223.9114   15318229.2954
 96  2 12 20 13 59.9780000  0  8 29 27 28 16 19 18  2 31
  16405909.674   -24125255.86349 -18786468.32449  16405910.6374   16405916.1084
  15523400.769   -41812449.85449 -32141422.85649  15523400.4944   15523406.7314
  16935731.447   -43875527.640 9 -34151306.119 9  16935728.114    16935734.316
  17622836.767   -20136825.06749 -15646158.80049  17622836.3704   17622844.2404
  14066693.833   -55949902.65249 -43254162.13049  14066693.6504   14066699.1644
  14152586.511   -46210195.61749 -35988093.29249  14152586.2884   14152591.9204
  16996634.626   -24680047.60649 -19188263.35349  16996634.3214   16996642.0064
  15296555.758   -46032286.62549 -35843116.23749  15296555.0944   15296560.9124
 96  2 12 20 14 29.9780000  0  8 29 27 28 16 19 18  2 31
  16406027.935   -24124635.89649 -18785985.28449  16406028.4014   16406033.8114
  15493375.985   -41970231.21449 -32264369.34149  15493376.1174   15493381.6634
  16925827.987   -43927557.106 9 -34191848.585 9  16925827.556    16925833.444
  17597945.622   -20267631.91649 -15748086.22049  17597944.8094   17597952.7834
  14045815.108   -56059621.94849 -43339657.67649  14045814.7894   14045820.6154
  14144454.997   -46252928.62749 -36021391.74649  14144454.6424   14144460.2434
  16963593.526   -24853681.41749 -19323562.36549  16963593.1354   16963600.4184
  15275003.332   -46145547.06449 -35931371.11749  15275002.5674   15275008.5134
 96  2 12 20 14 59.9780000  0  8 29 27 28 16 19 18  2 31
  16406194.837   -24123761.50349 -18785303.99449  16406194.9594   16406200.7954
  15463374.235   -42127890.25849 -32387220.51949  15463374.1974   15463380.3004
  16916026.906   -43979071.530 9 -34231989.727 9  16916024.784    16916030.521
  17573150.801   -20397927.72849 -15849615.41249  17573150.1054   17573157.5314
  14024976.992   -56169124.49449 -43424984.32249  14024977.2554   14024982.9334
  14136409.620   -46295209.81349 -36054338.13349  14136409.1264   14136414.5734
  16930589.801   -25027119.20349 -19458708.65549  16930588.4644   16930596.5524
  15253562.402   -46258219.79149 -36019168.03949  15253561.5274   15253567.3444
 96  2 12 20 15 29.9780000  0  8 29 27 28 16 19 18  2 31
  16406408.939   -24122634.69849 -18784426.03449  16406409.3754   16406415.0874
  15433395.134   -42285431.17549 -32509979.65049  15433395.2864   15433401.4324
  16906321.329   -44030060.346 9 -34271721.316 9  16906322.376    16906327.565
  17548454.722   -20527709.85049 -15950744.33349  17548453.5034   17548461.0724
  14004181.317   -56278408.53549 -43510140.70849  14004181.1724   14004187.0304
  14128456.366   -46337003.97549 -36086905.02949  14128455.5574   14128461.0724
  16897620.256   -25200361.25849 -19593702.42149  16897620.9594   16897629.3744
  15232236.465   -46370293.06549 -36106497.85149  15232234.6724   15232240.5574
 96  2 12 20 15 59.9780000  0  8 29 27 28 16 19 18  2 31
  16406674.021   -24121241.59149 -18783340.55549  16406673.8264   16406679.7454
  15403439.267   -42442849.73449 -32632643.43849  15403438.9634   15403445.3374
  16896719.785   -44080521.336 9 -34311041.594 9  16896719.591    16896724.892
  17523853.392   -20656982.47949 -16051476.24649  17523853.4834   17523861.6594
  13983426.706   -56387474.70149 -43595127.31849  13983426.5594   13983432.2584
  14120602.973   -46378271.57949 -36119061.61249  14120602.7274   14120608.3664
  16864692.889   -25373404.08749 -19728540.94849  16864692.2474   16864700.7584
  15211022.414   -46481764.96249 -36193359.05649  15211022.2864   15211028.2704
 96  2 12 20 16 29.9780000  0  8 29 27 28 16 19 18  2 31
  16406989.695   -24119585.70949 -18782050.30249  16406989.5364   16406995.0874
  15373500.293   -42600180.41649 -32755238.74249  15373500.7174   15373506.0594
  16887215.119   -44130477.431 9 -34349968.439 9  16887213.252    16887218.892
  17499345.764   -20785778.18149 -16151836.52849  17499344.6204   17499351.7464
  13962709.668   -56496343.34049 -43679960.00549  13962709.5334   13962715.3294
  14112847.882   -46419025.90549 -36150818.23749  14112847.2584   14112853.1264
  16831797.383   -25546273.67049 -19863244.46449  16831796.5174   16831803.9864
  15189918.092   -46592662.35449 -36279772.59549  15189919.0414   15189924.9484
 96  2 12 20 16 59.9780000  0  8 29 27 28 16 19 18  2 31
  16407356.918   -24117655.23549 -18780546.09149  16407356.5284   16407362.6304
  15343578.894   -42757418.15849 -32877761.63049  15343578.9684   15343585.0264
  16877804.038   -44179922.720 9 -34388497.248 9  16877804.064    16877810.136
  17474930.069   -20914083.46049 -16251814.67049  17474929.1774   17474936.4954
  13942032.188   -56605003.74849 -43764630.43849  13942032.1234   13942037.9444
  14105190.530   -46459263.96449 -36182172.59049  14105190.1954   14105196.1434
  16798939.100   -25718941.35649 -19997790.66649  16798938.7874   16798947.1304
  15168926.908   -46702975.20749 -36365730.64549  15168927.1164   15168933.4144
 96  2 12 20 17 29.9780000  0  8 29 27 28 16 19 18  2 31
  16407778.444   -24115437.27849 -18778817.85449  16407778.6124   16407784.7174
  15313681.062   -42914535.66749 -33000190.83249  15313680.5614   15313686.2374
  16868494.973   -44228847.418 9 -34426620.399 9  16868493.557    16868500.020
  17450609.721   -21041888.49349 -16351403.01049  17450608.8254   17450616.1414
  13921397.515   -56713438.99949 -43849125.42149  13921397.5734   13921403.1414
  14097630.559   -46498994.11649 -36213131.15349  14097629.7034   14097635.3084
  16766127.498   -25891370.21149 -20132150.75249  16766127.0114   16766134.3784
  15148048.786   -46812691.76949 -36451224.04349  15148048.6824   15148054.7814
 96  2 12 20 17 59.9780000  0  8 29 27 28 16 19 18  2 31
  16408251.652   -24112952.54049 -18776881.72749  16408251.3714   16408257.3364
  15283801.025   -43071551.80749 -33122541.04649  15283801.4684   15283807.5094
  16859279.983   -44277277.704 9 -34464358.293 9  16859277.948    16859284.262
  17426381.948   -21169205.55149 -16450611.09649  17426381.1564   17426387.8424
  13900803.772   -56821661.92249 -43933454.95849  13900803.5874   13900809.2744
  14090158.842   -46538256.90249 -36243725.54149  14090158.6584   14090164.3494
  16733354.902   -26063588.95649 -20266347.14849  16733355.0184   16733362.3104
  15127279.269   -46921842.63849 -36536276.63949  15127278.3574   15127284.0854
 96  2 12 20 18 29.9780000  0  8 29 27 28 16 19 18  2 31
  16408775.897   -24110202.79549 -18774739.11549  16408775.3004   16408781.1594
  15253941.308   -43228465.29249 -33244811.26049  15253941.6994   15253947.5594
  16850156.614   -44325203.832 9 -34501703.315 9  16850157.689    16850163.923
  17402252.745   -21295999.23949 -16549411.37149  17402252.7674   17402260.2704
  13880254.434   -56929649.99749 -44017601.49349  13880254.0414   13880259.7444
  14082773.681   -46577067.09049 -36273967.25149  14082773.0134   14082778.9434
  16700626.527   -26235582.98049 -20400368.38949  16700625.3614   16700633.5114
  15106617.566   -47030415.60249 -36620878.91849  15106617.0734   15106623.2324
 96  2 12 20 18 59.9780000  0  8 29 27 28 16 19 18  2 31
  16409343.362   -24107217.08749 -18772412.63149  16409343.4004   16409349.0004
  15224099.394   -43385288.45849 -33367011.10449  15224099.1464   15224104.9494
  16841131.820   -44372628.984 9 -34538657.970 9  16841133.125    16841139.429
  17378226.766   -21422261.91349 -16647797.87449  17378226.0744   17378232.9804
  13859750.067   -57037401.02549 -44101563.31849  13859749.6834   13859755.1264
  14075473.775   -46615429.08049 -36303859.72549  14075473.1574   14075478.8974
  16667941.097   -26407348.51249 -20534211.61749  16667939.5904   16667947.4804
  15086066.403   -47138410.15449 -36705030.48849  15086067.0874   15086072.8834
 96  2 12 20 19 29.9780000  0  8 29 27 28 16 19 18  2 31
  16409951.144   -24104022.56249 -18769923.42949  16409951.3734   16409957.2804
  15194272.055   -43542032.07549 -33489148.95549  15194271.9714   15194277.6144
  16832201.978   -44419562.076 9 -34575229.196 9  16832202.466    16832208.300
  17354297.052   -21548016.09349 -16745788.13249  17354294.7754   17354302.8244
  13839288.836   -57144924.73349 -44185348.01049  13839288.5474   13839294.1974
  14068258.571   -46653342.43549 -36333402.62449  14068258.3364   14068264.2094
  16635291.581   -26578916.14449 -20667900.61949  16635291.1264   16635299.4414
  15065625.145   -47245832.95049 -36788736.53349  15065624.9344   15065630.2644
 96  2 12 20 19 59.9770000  0  8 29 27 28 16 19 18  2 31
  16410597.133   -24100631.16949 -18767280.82849  16410596.8144   16410602.2654
  15164458.980   -43698700.04349 -33611227.85949  15164459.0504   15164464.3584
  16823363.643   -44466001.953 9 -34611416.106 9  16823365.015    16823370.758
  17330466.136   -21673242.98349 -16843367.52549  17330466.5634   17330472.6364
  13818872.078   -57252213.53949 -44268949.66449  13818872.0084   13818877.7394
  14061131.934   -46690794.39649 -36362585.98349  14061131.6024   14061137.3514
  16602681.283   -26750288.54749 -20801437.49049  16602680.4744   16602687.4914
  15045294.233   -47352674.03749 -36871989.29249  15045293.7544   15045299.5694
 96  2 12 20 20 29.9770000  0  8 29 27 28 16 19 18  2 31
  16411288.356   -24096995.32149 -18764447.74449  16411288.4884   16411295.0814
  15134672.270   -43855230.20749 -33733199.38549  15134672.2284   15134677.7874
  16814634.329   -44511890.273 9 -34647173.218 9  16814633.144    16814638.426
  17306744.746   -21797902.71649 -16940504.96949  17306743.3444   17306750.0634
  13798509.485   -57359219.95349 -44352331.27849  13798509.5684   13798515.1834
  14054103.116   -46727730.35549 -36391367.26649  14054102.9444   14054108.6044
  16570120.019   -26921397.52449 -20934769.10249  16570118.8794   16570126.3884
  15025084.471   -47458875.76749 -36954743.86149  15025084.3934   15025089.9404
 96  2 12 20 20 59.9770000  0  8 29 27 28 16 19 18  2 31
  16412008.563   -24093204.27949 -18761493.70749  16412010.0894   16412016.1254
  15104898.609   -44011690.53949 -33855116.49049  15104898.3624   15104904.3524
  16805988.896   -44557316.671 9 -34682570.376 9  16805988.214    16805994.025
  17283110.100   -21922097.25949 -17037279.91749  17283110.6484   17283117.3294
  13778181.833   -57466041.73049 -44435569.01249  13778182.0154   13778187.8724
  14047156.616   -46764235.79349 -36419813.07449  14047156.2394   14047161.4764
  16537593.399   -27092329.81949 -21067963.03249  16537591.7194   16537598.9454
  15004981.068   -47564523.37249 -37037066.64249  15004980.1844   15004985.7414
 96  2 12 20 21 29.9770000  0  8 29 27 28 16 19 18  2 31
  16412765.705   -24089230.06749 -18758396.96549  16412766.3424   16412772.4154
  15075144.414   -44168050.48749 -33976955.37849  15075144.3834   15075149.8694
  16797433.152   -44602275.355 9 -34717603.095 9  16797433.044    16797438.746
  17259567.603   -22045816.60849 -17133684.59549  17259566.3754   17259573.4354
  13757887.186   -57572690.07349 -44518671.60949  13757887.4184   13757893.1964
  14040292.711   -46800306.07249 -36447919.78949  14040292.2914   14040298.0054
  16505098.916   -27263081.06349 -21201015.88349  16505098.9294   16505106.5424
  14984985.036   -47669596.58249 -37118941.84449  14984985.1934   14984991.4994
 96  2 12 20 21 59.9770000  0  8 29 27 28 16 19 18  2 31
  16413562.902   -24085035.91649 -18755128.83949  16413563.8974   16413571.3354
  15045412.473   -44324290.83249 -34098701.07249  15045412.5814   15045418.6554
  16788971.702   -44646749.255 9 -34752258.052 9  16788969.885    16788975.475
  17236120.911   -22169034.42449 -17229698.46849  17236118.9654   17236126.5504
  13737626.539   -57679163.67749 -44601638.03949  13737626.2174   13737631.7674
  14033511.201   -46835941.87449 -36475687.96149  14033511.0854   14033516.7024
  16472648.122   -27433615.39249 -21333899.72449  16472646.7164   16472655.1604
  14965104.592   -47774069.25549 -37200349.09749  14965104.7824   14965110.8634
 96  2 12 20 22 29.9770000  0  8 29 27 28 16 19 18  2 31
  16414407.415   -24080605.09849 -18751676.30749  16414407.0244   16414414.1894
  15015703.193   -44480412.83449 -34220354.55049  15015703.6084   15015709.6264
  16780599.785   -44690738.875 9 -34786535.654 9  16780598.693    16780604.835
  17212765.244   -22291766.25349 -17325333.63949  17212764.5614   17212771.6194
  13717394.029   -57785482.79649 -44684484.09449  13717394.3204   13717399.9824
  14026811.496   -46871149.72549 -36503122.66249  14026811.2364   14026817.0104
  16440237.510   -27603933.05949 -21466614.71249  16440236.7614   16440244.0524
  14945339.922   -47877941.85749 -37281288.77249  14945338.7914   14945344.7794
 96  2 12 20 22 59.9770000  0  8 29 27 28 16 19 18  2 31
  16415303.271   -24075901.86349 -18748011.49049  16415302.4364   16415309.0064
  14986020.768   -44636398.62249 -34341901.89649  14986020.9804   14986025.9814
  16772324.825   -44734219.151 9 -34820416.373 9  16772324.866    16772330.131
  17189509.434   -22413976.41149 -17420562.31949  17189508.5504   17189515.8234
  13697195.144   -57891627.67849 -44767194.38149  13697195.5124   13697201.2094
  14020200.452   -46905890.37249 -36530193.31249  14020199.8164   14020205.6824
  16407871.030   -27774016.38949 -21599147.12849  16407871.2454   16407877.8544
  14925692.503   -47981183.31949 -37361736.65649  14925692.2504   14925698.2554
 96  2 12 20 23 29.9770000  0  8 29 27 28 16 19 18  2 31
  16416241.845   -24070961.27849 -18744161.72749  16416241.8754   16416249.7484
  14956355.962   -44792286.90249 -34463373.25949  14956355.7944   14956361.6634
  16764141.654   -44777224.812 9 -34853927.259 9  16764141.061    16764146.495
  17166345.102   -22535700.03549 -17515411.89449  17166346.1224   17166353.4344
  13677026.527   -57997618.83449 -44849784.88649  13677026.0854   13677031.8474
  14013673.257   -46940190.44849 -36556920.65549  14013673.1974   14013678.9694
  16375543.697   -27943896.76349 -21731521.38349  16375543.4984   16375550.3104
  14906159.900   -48083826.32149 -37441718.19749  14906159.9624   14906165.6044
 96  2 12 20 23 59.9770000  0  8 29 27 28 16 19 18  2 31
  16417218.948   -24065832.47449 -18740165.30349  16417218.7804   16417225.6644
  14926700.933   -44948126.04349 -34584806.33049  14926700.6804   14926706.3294
  16756041.112   -44819790.985 9 -34887095.688 9  16756041.094    16756046.993
  17143267.613   -22656973.44649 -17609910.64849  17143267.7824   17143275.0604
  13656885.847   -58103458.09849 -44932257.03049  13656885.7934   13656891.3654
  14007225.169   -46974077.78849 -36583326.38249  14007224.6034   14007230.4414
  16343248.695   -28113612.80949 -21863767.60949  16343247.4614   16343254.9564
  14886732.686   -48185917.49249 -37521269.75249  14886732.4204   14886738.2214
 96  2 12 20 24 29.9770000  0  8 29 27 28 16 19 18  2 31
  16418234.550   -24060496.14649 -18736007.18149  16418234.2824   16418241.0654
  14897063.606   -45103868.85649 -34706164.34449  14897064.0464   14897069.2924
  16748032.288   -44861884.524 9 -34919895.840 9  16748030.826    16748036.932
  17120284.126   -22777755.22349 -17704026.31049  17120283.7304   17120291.4224
  13636786.595   -58209077.18449 -45014557.60849  13636786.7884   13636792.5274
  14000863.994   -47007506.86849 -36609375.03149  14000863.2974   14000868.9844
  16310989.539   -28283135.75649 -21995863.36949  16310988.7954   16310996.2054
  14867419.249   -48287418.78149 -37600361.65249  14867417.1324   14867423.3964
 96  2 12 20 24 59.9770000  0  8 29 27 28 16 19 18  2 31
  16419296.352   -24054917.62449 -18731660.34549  16419295.9414   16419302.4604
  14867458.333   -45259448.70449 -34827395.37549  14867457.9644   14867463.7664
  16740121.463   -44903457.029 9 -34952289.994 9  16740119.808    16740125.765
  17097406.805   -22897978.12949 -17797706.49249  17097405.4424   17097414.0134
  13616744.664   -58314400.31149 -45096627.57149  13616744.7844   13616750.2334
  13994599.168   -47040427.39449 -36635027.41949  13994598.6874   13994604.3074
  16278776.747   -28452409.77149 -22127765.15549  16278776.7514   16278783.9134
  14848224.385   -48388274.65549 -37678950.63349  14848225.5174   14848231.2384
 96  2 12 20 25 29.9770000  0  8 29 27 28 16 19 18  2 31
  16420392.472   -24049155.08049 -18727170.10849  16420393.4814   16420400.5724
  14837872.816   -45414920.84849 -34948542.47249  14837872.6864   14837878.2994
  16732298.912   -44944568.081 9 -34984324.571 9  16732296.718    16732302.747
  17074626.409   -23017690.84149 -17890989.12049  17074625.9574   17074633.3914
  13596750.962   -58419469.24349 -45178499.45649  13596750.6994   13596756.2764
  13988416.879   -47072915.90249 -36660343.13349  13988416.5714   13988422.3154
  16246600.866   -28621494.73249 -22259519.62649  16246600.5694   16246608.0544
  14829140.701   -48488555.26349 -37757091.35049  14829142.3194   14829148.5544
 96  2 12 20 25 59.9770000  0  8 29 27 28 16 19 18  2 31
  16421523.191   -24043210.67049 -18722538.15249  16421523.7694   16421530.1844
  14808308.210   -45570283.45149 -35069604.21949  14808307.9944   14808313.8874
  16724562.557   -44985219.178 9 -35016000.733 9  16724561.174    16724567.268
  17051944.042   -23136885.37749 -17983867.97649  17051943.5354   17051950.8374
  13576803.832   -58524289.57149 -45260177.62749  13576803.9844   13576809.7264
  13982312.530   -47104994.50549 -36685339.44349  13982312.1584   13982317.9804
  16214463.147   -28790383.62949 -22391121.32349  16214462.5664   16214469.1884
  14810170.701   -48588260.14449 -37834783.45449  14810169.5394   14810175.4094
 96  2 12 20 26 29.9770000  0  8 29 27 28 16 19 18  2 31
  16422686.779   -24037105.30649 -18717780.78249  16422686.0204   16422691.9674
  14778762.424   -45725546.92649 -35190588.71649  14778762.5044   14778767.8954
  16716909.827   -45025424.993 9 -35047329.928 9  16716910.021    16716916.441
  17029358.699   -23255574.12249 -18076352.69549  17029358.4794   17029364.2454
  13556897.732   -58628900.54649 -45341692.66649  13556897.4084   13556902.8804
  13976282.583   -47136680.91049 -36710030.16749  13976282.6064   13976287.8954
  16182361.865   -28959076.61949 -22522570.36149  16182361.4304   16182368.4564
  14791303.634   -48687404.08449 -37912038.45449  14791303.2624   14791308.8394
 96  2 12 20 26 59.9770000  0  8 29 27 28 16 19 18  2 31
  16423892.679   -24030763.00749 -18712838.79149  16423892.8054   16423898.5234
  14749247.441   -45880647.72949 -35311446.45649  14749247.9514   14749253.2614
  16709360.080   -45065108.152 9 -35078251.865 9  16709359.025    16709364.730
  17006884.171   -23373682.00849 -18168384.80849  17006882.8974   17006889.5854
  13537042.780   -58733237.34749 -45422994.05449  13537042.4524   13537048.2334
  13970343.133   -47167894.58549 -36734352.51849  13970342.5234   13970348.2564
  16150310.980   -29127500.12749 -22653809.41349  16150310.5324   16150319.2314
  14772554.740   -48785922.55949 -37988806.06849  14772555.2264   14772560.8814
 96  2 12 20 27 29.9770000  0  8 29 27 28 16 19 18  2 31
  16425133.816   -24024240.27449 -18707756.21249  16425133.4494   16425139.8804
  14719753.820   -46035638.73649 -35432218.64649  14719754.0504   14719759.4524
  16701897.583   -45104322.815 9 -35108808.751 9  16701896.614    16701902.507
  16984506.014   -23491275.43349 -18260016.04349  16984505.2054   16984511.6054
  13517228.504   -58837360.95549 -45504129.32949  13517228.5614   13517234.2794
  13964483.756   -47198681.80749 -36758342.57549  13964483.9344   13964489.6554
  16118302.957   -29295703.31949 -22784876.80249  16118303.3374   16118310.1294
  14753917.553   -48883865.88549 -38065125.51949  14753917.4824   14753923.3054
 96  2 12 20 27 59.9770000  0  8 29 27 28 16 19 18  2 31
  16426406.602   -24017555.80649 -18702547.59049  16426406.0914   16426412.4844
  14690280.090   -46190525.91649 -35552909.92249  14690279.8174   14690285.4654
  16694523.124   -45143080.991 9 -35139009.931 9  16694520.911    16694526.875
  16962221.920   -23608379.55449 -18351265.99249  16962220.9994   16962228.0314
  13497451.202   -58941293.44749 -45585115.68249  13497451.0694   13497456.6724
  13958708.287   -47229037.27549 -36781996.20449  13958707.6814   13958713.1724
  16086336.113   -29463691.20049 -22915776.40649  16086335.9814   16086343.5774
  14735392.243   -48981227.52849 -38140991.70049  14735390.3824   14735396.0004
 96  2 12 20 28 29.9760000  0  8 29 27 28 16 19 18  2 31
  16427712.182   -24010692.68649 -18697199.77749  16427712.3364   16427718.0984
  14660830.671   -46345282.85749 -35673499.71449  14660830.5554   14660835.9534
  16687237.814   -45181362.174 9 -35168839.432 9  16687236.458    16687242.072
  16940035.272   -23724966.69249 -18442113.10449  16940035.0634   16940042.1164
  13477714.447   -59045009.38849 -45665933.28749  13477714.5244   13477720.0124
  13953021.622   -47258918.34149 -36805280.16549  13953021.3624   13953026.9124
  16054414.440   -29631443.01549 -23046492.05649  16054414.4784   16054421.2674
  14716979.751   -49077977.70449 -38216381.41949  14716979.5024   14716984.5864
 96  2 12 20 28 59.9760000  0  8 29 27 28 16 19 18  2 31
  16429054.001   -24003634.12449 -18691699.66549  16429055.1734   16429061.1564
  14631405.491   -46499912.11949 -35793990.01649  14631405.6654   14631411.2414
  16680044.537   -45219167.416 9 -35198298.069 9  16680041.685    16680047.983
  16917946.389   -23841042.20949 -18532561.55149  16917946.8654   16917953.8034
  13458021.571   -59148497.56449 -45746573.41449  13458021.5244   13458027.0964
  13947426.005   -47288323.59849 -36828193.36049  13947425.6214   13947431.3224
  16022534.561   -29798972.46649 -23177034.43649  16022533.9604   16022541.3574
  14698685.214   -49174111.12349 -38291290.53949  14698685.3594   14698691.6574
 96  2 12 20 29 29.9760000  0  8 29 27 28 16 19 18  2 31
  16430434.181   -23996391.12049 -18686055.84149  16430434.0834   16430440.0194
  14602001.406   -46654434.48349 -35914397.02049  14602001.0124   14602006.5424
  16672933.661   -45256523.440 9 -35227406.688 9  16672933.486    16672939.139
  16895952.057   -23956626.17849 -18622626.98449  16895952.0944   16895958.8314
  13438366.349   -59251784.35549 -45827056.62149  13438366.4594   13438371.9824
  13941914.875   -47317283.29949 -36850759.38449  13941915.0014   13941920.5084
  15990694.916   -29966295.60949 -23307416.07149  15990693.5634   15990700.7434
  14680508.245   -49269641.96149 -38365730.12449  14680506.8034   14680512.3694
 96  2 12 20 29 59.9760000  0  9 29 27 28 16 12 19 18  2 31
  16431853.998   -23988927.04649 -18680239.74649  16431853.7814   16431860.8174
  14572618.260   -46808842.39649 -36034714.84849  14572617.8294   14572623.9614
  16665916.693   -45293403.708 9 -35256144.591 9  16665915.323    16665921.472
  16874056.269   -24071686.70049 -18712284.52849  16874055.9464   16874063.9514
  17262375.582    -9629985.96219  -7471207.57919  17262375.352    17262384.590
  13418754.750   -59354843.76649 -45907362.64249  13418754.7814   13418760.4564
  13936492.459   -47345779.21049 -36872963.98849  13936492.2754   13936497.9634
  15958896.647   -30133391.38549 -23437620.51849  15958895.9214   15958903.1884
  14662445.247   -49364552.56449 -38439686.40349  14662445.9684   14662451.3414
 96  2 12 20 30 29.9760000  0  9 29 27 28 16 12 19 18  2 31
  16433311.515   -23981268.64949 -18674272.24549  16433311.3774   16433317.9254
  14543249.929   -46963173.35149 -36154972.70549  14543249.6934   14543255.2854
  16658983.271   -45329838.047 9 -35284535.006 9  16658981.975    16658987.962
  16852258.357   -24186245.57149 -18801551.18349  16852257.0344   16852263.9164
  17230472.029    -9797628.359 9  -7601838.022 9  17230473.432    17230482.627
  13399181.647   -59457702.52849 -45987512.31849  13399181.4324   13399187.0404
  13931150.961   -47373850.65649 -36894837.83349  13931150.6244   13931156.1004
  15927136.564   -30300292.25349 -23567673.12249  15927136.0554   15927142.9664
  14644493.464   -49458886.27449 -38513193.16349  14644494.3004   14644500.0504
 96  2 12 20 30 59.9760000  0  9 29 27 28 16 12 19 18  2 31
  16434807.233   -23973402.96649 -18668143.23249  16434808.2924   16434814.0834
  14513898.444   -47117415.23349 -36275161.16349  14513898.4234   14513904.2234
  16652138.221   -45365821.847 9 -35312574.360 9  16652134.758    16652140.214
  16830554.418   -24300295.86349 -18890421.54049  16830554.3584   16830561.2874
  17198596.469    -9965143.894 9  -7732369.604 9  17198596.459    17198604.948
  13379647.862   -59560354.33349 -46067500.72949  13379647.7344   13379653.3534
  13925888.575   -47401502.48549 -36916384.72649  13925888.2974   13925894.1464
  15895415.157   -30466993.36849 -23697570.04949  15895413.8134   15895421.6594
  14626654.177   -49552647.47949 -38586253.82049  14626652.1014   14626658.1594
 96  2 12 20 31 29.9760000  0  9 29 27 28 16 12 19 18  2 31
  16436346.850   -23965321.06749 -18661845.72749  16436346.8224   16436352.6394
  14484568.068   -47271547.84849 -36395264.47049  14484568.0774   14484573.9434
  16645380.998   -45401340.314 9 -35340251.112 9  16645376.001    16645381.550
  16808951.006   -24413825.86449 -18978886.47249  16808950.2744   16808956.7254
  17166746.583   -10132516.073 9  -7862789.474 9  17166745.713    17166755.705
  13360155.624   -59662785.72349 -46147317.37949  13360155.4784   13360161.0914
  13920707.046   -47428735.01949 -36937604.89249  13920706.4034   13920711.9684
  15863734.776   -30633472.00149 -23827293.61749  15863734.0534   15863740.7164
  14608921.407   -49645823.67949 -38658858.62449  14608921.2024   14608927.3764
 96  2 12 20 31 59.9760000  0  9 29 27 28 16 12 19 18  2 31
  16437919.851   -23957053.62749 -18655403.63549  16437920.0904   16437925.9204
  14455259.851   -47425562.37049 -36515275.76249  14455260.0324   14455265.9244
  16638708.198   -45436401.159 9 -35367571.297 9  16638703.939    16638709.974
  16787444.049   -24526843.99749 -19066952.54349  16787443.3294   16787449.9904
  17134920.634   -10299750.632 9  -7993102.076 9  17134922.888    17134931.177
  13340705.732   -59764997.65049 -46226963.02349  13340705.2874   13340710.9054
  13915600.972   -47455566.57149 -36958512.59949  13915600.7004   13915606.3454
  15832097.196   -30799728.16249 -23956843.83049  15832097.0314   15832104.5874
  14591301.671   -49738416.32249 -38731008.71549  14591301.6894   14591307.2564
 96  2 12 20 32 29.9760000  0  9 29 27 28 16 12 19 18  2 31
  16439527.105   -23948618.22549 -18648830.67249  16439524.8324   16439530.9554
  14425978.059   -47579439.76249 -36635180.19849  14425978.0654   14425983.9934
  16632120.394   -45471010.372 9 -35394539.548 9  16632117.889    16632123.857
  16766036.009   -24639346.15549 -19154616.55449  16766035.2694   16766041.6534
  17103126.229   -10466851.989 9  -8123310.874 9  17103124.882    17103133.787
  13321299.107   -59866979.07649 -46306429.05449  13321298.9254   13321304.3924
  13910569.956   -47482007.58149 -36979115.99749  13910569.0934   13910574.6464
  15800501.011   -30965764.90749 -24086223.07149  15800500.3604   15800507.7194
  14573796.771   -49830412.69849 -38802694.17849  14573794.9054   14573800.6194
 96  2 12 20 32 59.9760000  0  9 29 27 28 16 12 19 18  2 31
  16441167.112   -23939992.16749 -18642109.15249  16441167.0104   16441173.0544
  14396728.332   -47733148.42649 -36754953.16149  14396728.5734   14396734.3214
  16625621.771   -45505149.158 9 -35421141.244 9  16625621.849    16625627.493
  16744729.359   -24751313.84149 -19241864.10949  16744727.8574   16744735.1684
  17071353.155   -10633799.401 9  -8253399.765 9  17071355.636    17071364.970
  13301941.375   -59968702.86749 -46385694.33649  13301941.1834   13301946.6314
  13905617.245   -47508032.02349 -36999394.79349  13905616.5684   13905622.2134
  15768951.293   -31131561.56149 -24215415.23949  15768950.5884   15768958.2224
  14556409.738   -49921772.73449 -38873883.79649  14556410.0764   14556415.4334
 96  2 12 20 33 29.9760000  0  9 29 27 28 16 12 19 18  2 31
  16442836.102   -23931219.87849 -18635273.69849  16442835.6094   16442841.9334
  14367501.727   -47886736.27249 -36874631.97949  14367501.7734   14367507.4064
  16619207.663   -45538857.899 9 -35447407.848 9  16619207.541    16619212.794
  16723515.771   -24862790.89649 -19328729.34549  16723514.4064   16723520.6284
  17039610.922   -10800631.845 9  -8383399.048 9  17039608.956    17039617.757
  13282625.727   -60070209.78749 -46464790.62349  13282625.2434   13282630.7864
  13900737.712   -47533673.64549 -37019375.28549  13900737.3434   13900743.2054
  15737440.791   -31297148.81249 -24344444.21749  15737440.2434   15737447.5734
  14539143.768   -50012513.63849 -38944590.98949  14539142.4854   14539148.0864
 96  2 12 20 33 59.9760000  0  9 29 27 28 16 12 19 18  2 31
  16444544.676   -23922242.77349 -18628278.64049  16444544.9464   16444550.1464
  14338308.767   -48040149.70549 -36994174.89949  14338307.9574   14338314.0124
  16612886.697   -45572078.593 9 -35473294.150 9  16612886.029    16612891.652
  16702409.597   -24973699.82449 -19415151.88849  16702408.9584   16702416.3774
  17007893.953   -10967289.305 9  -8513262.003 9  17007894.750    17007903.765
  13263359.396   -60171454.70149 -46543682.75949  13263359.2964   13263364.6594
  13895947.550   -47558849.86249 -37038993.12549  13895946.6664   13895952.4684
  15705979.964   -31462479.35849 -24473273.16449  15705979.1174   15705986.4444
  14522005.758   -50102573.48349 -39014767.48649  14522004.8924   14522010.5194
 96  2 12 20 34 29.9760000  0  9 29 27 28 16 12 19 18  2 31
  16446287.122   -23913086.57149 -18621144.02649  16446286.4804   16446292.5774
  14309140.977   -48193424.43149 -37113609.73149  14309140.9254   14309146.5434
  16606652.411   -45604849.407 9 -35498829.905 9  16606650.198    16606655.289
  16681406.476   -25084073.40049 -19501157.27049  16681404.8174   16681413.4884
  16976207.453   -11133808.330 9  -8643017.052 9  16976206.662    16976216.230
  13244134.631   -60272479.93949 -46622403.71649  13244134.4384   13244139.8614
  13891239.720   -47583583.82149 -37058266.35549  13891239.6364   13891245.6434
  15674560.832   -31627586.71449 -24601928.18849  15674559.7224   15674567.0514
  14504987.509   -50192002.25649 -39084452.23649  14504987.3404   14504992.6244
 96  2 12 20 34 59.9760000  0  9 29 27 28 16 12 19 18  2 31
  16448066.018   -23903739.92149 -18613860.99649  16448065.9624   16448072.0264
  14279998.150   -48346570.81649 -37232944.56449  14279998.2074   14280003.8744
  16600498.575   -45637173.944 9 -35524017.899 9  16600498.803    16600504.215
  16660503.170   -25193921.57149 -19586753.27449  16660502.4454   16660510.0724
  16944544.181   -11300190.724 9  -8772665.614 9  16944544.505    16944554.638
  13224948.260   -60373308.23549 -46700971.21149  13224947.7184   13224953.1114
  13886619.315   -47607868.60249 -37077189.58649  13886618.4434   13886624.3134
  15643186.969   -31792457.84849 -24730399.15549  15643186.3544   15643193.1354
  14488088.317   -50280810.59849 -39153653.52849  14488087.5054   14488093.1884
 96  2 12 20 35 29.9760000  0  9 29 27 28 16 12 19 18  2 31
  16449876.435   -23894229.53649 -18606450.38549  16449875.0534   16449881.5334
  14250877.240   -48499603.29449 -37352190.63349  14250876.9784   14250882.5464
  16594432.003   -45669064.877 9 -35548868.026 9  16594430.636    16594436.355
  16639696.984   -25303254.12849 -19671947.47749  16639697.2394   16639704.1094
  16912907.162   -11466447.304 9  -8902216.171 9  16912907.271    16912917.186
  13205795.104   -60473955.70149 -46779397.80349  13205795.2144   13205800.4844
  13882079.482   -47631724.09449 -37095778.30349  13882079.0094   13882084.5414
  15611856.012   -31957102.16049 -24858693.36549  15611855.6944   15611862.7434
  14471299.552   -50369034.91549 -39222399.74149  14471299.2564   14471304.1064
 96  2 12 20 35 59.9760000  0  9 29 27 28 16 12 19 18  2 31
  16451716.684   -23884554.85449 -18598911.74349  16451716.5474   16451723.2154
  14221783.292   -48652495.26249 -37471327.21549  14221782.8854   14221787.9744
  16588446.661   -45700511.563 9 -35573371.983 9  16588445.549    16588451.649
  16618992.257   -25412061.55049 -19756732.50649  16618991.8804   16618999.0744
  16881297.963   -11632565.634 9  -9031659.011 9  16881296.637    16881306.069
  13186681.013   -60574403.93949 -46857669.15349  13186680.5084   13186685.6884
  13877622.818   -47655144.69449 -37114028.13549  13877622.3274   13877627.9024
  15580571.575   -32121506.68249 -24986800.73849  15580570.0354   15580577.4164
  14454620.450   -50456689.17549 -39290701.76549  14454619.3504   14454624.1864
 96  2 12 20 36 29.9760000  0  9 29 27 28 16 12 19 18  2 31
  16453598.216   -23874666.53349 -18591206.63049  16453597.9514   16453604.2784
  14192723.187   -48805203.76749 -37590320.83349  14192723.1974   14192728.6654
  16582556.425   -45731468.995 9 -35597494.699 9  16582555.231    16582560.583
  16598392.515   -25520318.64449 -19841088.70649  16598391.7604   16598398.0674
  16849718.777   -11798499.249 9  -9160957.940 9  16849719.693    16849728.515
  13167618.130   -60674580.53349 -46935728.83349  13167617.6424   13167622.9944
  13873254.665   -47678099.57949 -37131915.07549  13873254.4474   13873260.0244
  15549343.744   -32285603.41849 -25114668.27749  15549343.6024   15549351.4094
  14438058.057   -50543716.38949 -39358515.17549  14438058.2754   14438063.3644
 96  2 12 20 36 59.9750000  0  9 29 27 28 16 12 19 18  2 31
  16455512.470   -23864614.65049 -18583374.07849  16455510.9934   16455517.2054
  14163688.917   -48957781.52049 -37709212.57549  14163688.6534   14163693.7624
  16576748.812   -45761981.411 9 -35621270.637 9  16576748.816    16576754.349
  16577888.716   -25628067.60149 -19925048.94349  16577887.6014   16577894.3494
  16818173.026   -11964285.761 9  -9290142.254 9  16818173.025    16818180.918
  13148600.217   -60774518.48849 -47013602.55749  13148600.0104   13148605.2724
  13868965.762   -47700637.43549 -37149477.06149  13868965.2834   13868971.0164
  15518166.977   -32449442.51949 -25242335.05249  15518165.9694   15518172.7604
  14421613.802   -50630146.58449 -39425863.38149  14421611.4444   14421616.4574
 96  2 12 20 37 29.9750000  0  9 29 27 28 16 12 19 18  2 31
  16457467.532   -23854338.27549 -18575366.60749  16457465.9034   16457473.3614
  14134693.262   -49110154.01349 -37827944.36649  14134692.9304   14134698.6534
  16571043.943   -45791978.406 9 -35644644.949 9  16571040.453    16571045.755
  16557495.248   -25735236.05849 -20008556.84049  16557494.0024   16557500.1834
  16786666.029   -12129861.989 9  -9419162.682 9  16786665.001    16786673.222
  13129644.402   -60874131.23649 -47091222.87549  13129644.2454   13129649.8874
  13864769.271   -47722691.17749 -37166661.81449  13864768.7244   13864774.0944
  15487049.486   -32612966.90049 -25369756.59149  15487048.5554   15487055.0154
  14405291.539   -50715908.39549 -39492690.77949  14405291.1504   14405296.5984
 96  2 12 20 37 59.9750000  0  9 29 27 28 16 12 19 18  2 31
  16459458.928   -23843855.63649 -18567198.42449  16459460.8534   16459467.4384
  14105732.039   -49262346.72549 -37946536.07649  14105731.6014   14105737.1774
  16565423.145   -45821490.411 9 -35667641.329 9  16565424.885    16565430.284
  16537208.472   -25841847.78749 -20091630.93549  16537206.6444   16537212.8334
  16755190.479   -12295252.118 9  -9548038.086 9  16755191.275    16755200.980
  13110747.422   -60973437.09249 -47168604.05849  13110746.9614   13110752.1654
  13860658.688   -47744292.74549 -37183494.22049  13860658.2134   13860663.5004
  15455986.258   -32776201.94449 -25496952.66649  15455985.4274   15455991.9874
  14389099.573   -50801000.44749 -39558996.28549  14389098.4614   14389103.8774
 96  2 12 20 38 29.9750000  0  9 29 27 28 16 12 19 18  2 31
  16461485.329   -23833219.21549 -18558910.38449  16461484.8454   16461491.7084
  14076790.316   -49414437.17949 -38065048.10049  14076789.9214   14076795.2654
  16559890.036   -45850579.969 9 -35690308.504 9  16559888.640    16559894.831
  16517015.760   -25947953.99149 -20174311.09549  16517014.5174   16517021.9474
  16723741.714   -12460516.939 9  -9676815.818 9  16723741.904    16723751.922
  13091897.814   -61072489.64749 -47245787.86249  13091897.8504   13091903.1614
  13856622.089   -47765504.84149 -37200023.14849  13856621.8664   13856627.1994
  15424963.833   -32939224.52049 -25623983.19649  15424963.0054   15424970.4404
  14373023.480   -50885472.78649 -39624818.89449  14373023.8854   14373029.4184
 96  2 12 20 38 59.9750000  0  9 29 27 28 16 12 19 18  2 31
  16463538.434   -23822434.41549 -18550506.73649  16463537.6774   16463544.0574
  14047869.930   -49566412.10749 -38183470.09849  14047869.8244   14047875.3044
  16554432.923   -45879244.506 9 -35712644.516 9  16554434.155    16554440.162
  16496924.019   -26053529.29949 -20256577.58249  16496923.7684   16496932.0754
  16692319.649   -12625651.758 9  -9805492.266 9  16692318.618    16692327.479
  13073095.228   -61171299.56349 -47322782.59749  13073094.8834   13073100.4844
  13852662.336   -47786315.64249 -37216239.38549  13852661.5984   13852666.9564
  15393978.255   -33102052.29849 -25750861.92449  15393978.1794   15393985.0074
  14357067.805   -50969334.80549 -39690165.92849  14357066.3044   14357070.9264
 96  2 12 20 39 29.9750000  0  9 29 27 28 16 12 19 18  2 31
  16465629.855   -23811442.42149 -18541941.62049  16465629.5184   16465635.5214
  14018985.011   -49718207.28749 -38301752.03549  14018984.4194   14018989.6614
  16549071.119   -45907429.418 9 -35734606.762 9  16549071.220    16549076.676
  16476946.908   -26158518.92149 -20338387.67749  16476945.3884   16476951.9114
  16660929.457   -12790600.259 9  -9934023.559 9  16660930.106    16660938.855
  13054348.231   -61269815.07149 -47399547.93049  13054347.9924   13054353.5994
  13848788.539   -47806668.35549 -37232098.65749  13848788.3314   13848793.9914
  15363042.936   -33264621.01049 -25877538.79649  15363042.6964   15363048.9194
  14341233.794   -51052535.02549 -39754997.27149  14341233.2544   14341238.3184
 96  2 12 20 39 59.9750000  0  9 29 27 28 16 12 19 18  2 31
  16467745.844   -23800317.47049 -18533272.92249  16467746.3614   16467752.4354
  13990115.077   -49869916.16649 -38419966.71549  13990114.8264   13990120.3784
  16543788.022   -45935207.183 9 -35756251.714 9  16543784.117    16543790.905
  16457065.314   -26262991.14749 -20419794.63049  16457065.2534   16457072.3454
  16629562.566   -12955433.006 9 -10062464.604 9  16629563.352    16629572.405
  13035642.543   -61368115.42249 -47476145.60849  13035642.1004   13035647.4334
  13844990.207   -47826631.47649 -37247654.34449  13844989.5964   13844995.5084
  15332141.183   -33427010.79949 -26004076.24749  15332140.4674   15332147.0794
  14325512.524   -51135155.01949 -39819376.50149  14325511.5374   14325516.1244
 96  2 12 20 40 29.9750000  0  9 29 27 28 16 12 19 18  2 31
  16469894.943   -23789025.65049 -18524474.18149  16469895.1214   16469901.6154
  13961272.064   -50021488.91749 -38538075.33349  13961271.4554   13961276.8864
  16538584.374   -45962542.159 9 -35777551.678 9  16538582.644    16538589.317
  16437291.353   -26366905.10449 -20500766.55449  16437290.9184   16437298.9324
  16598226.795   -13120112.530 9 -10190786.232 9  16598226.184    16598235.316
  13016982.984   -61466171.08349 -47552552.62349  13016982.8914   13016988.3394
  13841273.948   -47846160.09349 -37262871.47249  13841273.2664   13841279.1834
  15301283.727   -33589170.29149 -26130434.25849  15301282.6984   15301289.1884
  14309904.080   -51217169.42149 -39883283.82449  14309904.7044   14309909.7204
 96  2 12 20 40 59.9750000  0  9 29 27 28 16 12 19 18  2 31
  16472077.122   -23777554.51949 -18515535.73949  16472077.7814   16472084.0834
  13932462.888   -50172878.17049 -38656040.95749  13932462.9004   13932468.8024
  16533469.118   -45989417.635 9 -35798493.566 9  16533468.609    16533475.230
  16417624.108   -26470258.80649 -20581301.93849  16417623.4094   16417631.5004
  16566921.180   -13284620.257 9 -10318973.986 9  16566921.460    16566929.877
  12998372.279   -61563971.27749 -47628760.57049  12998372.0154   12998377.6624
  13837643.501   -47865233.64049 -37277733.99749  13837643.5544   13837649.4914
  15270475.176   -33751061.30449 -26256583.05249  15270475.3874   15270482.3424
  14294417.865   -51298560.02549 -39946705.07149  14294416.4974   14294421.6804
 96  2 12 20 41 29.9750000  0  9 29 27 28 16 12 19 18  2 31
  16474293.119   -23765906.90249 -18506459.79149  16474294.3464   16474300.9114
  13903690.324   -50324080.01849 -38773860.56149  13903690.0644   13903695.5674
  16528440.298   -46015843.803 9 -35819085.328 9  16528439.496    16528446.098
  16398059.523   -26573072.76549 -20661416.73449  16398058.7444   16398066.8884
  16535647.964   -13448964.420 9 -10447034.286 9  16535647.804    16535655.934
  12979811.741   -61661506.79549 -47704762.27649  12979811.2334   12979817.1154
  13834098.191   -47883868.50849 -37292254.68849  13834097.5464   13834103.3894
  15239720.452   -33912679.36649 -26382519.17549  15239720.6024   15239727.2084
  14279046.494   -51379326.12849 -40009639.68949  14279046.4784   14279052.1564
 96  2 12 20 41 59.9750000  0  9 29 27 28 16 12 19 18  2 31
  16476539.917   -23754104.83849 -18497263.47749  16476540.9574   16476546.6244
  13874951.247   -50475104.46849 -38891541.92949  13874951.0574   13874956.8894
  16523493.833   -46041847.674 9 -35839348.059 9  16523491.947    16523498.302
  16378594.647   -26675365.69949 -20741125.54049  16378593.8904   16378600.8374
  16504399.743   -13613170.150 9 -10574986.730 9  16504399.536    16504408.497
  12961299.473   -61758788.47649 -47780566.18949  12961299.3654   12961305.2064
  13830629.766   -47902095.06249 -37306457.21749  13830629.1954   13830635.1514
  15209013.450   -34074048.66949 -26508261.44849  15209013.1884   15209020.1304
  14263794.421   -51459484.96049 -40072101.11649  14263793.6874   14263798.8244
 96  2 12 20 42 29.9750000  0  9 29 27 28 16 12 19 18  2 31
  16478821.686   -23742114.76249 -18487920.66049  16478822.5694   16478828.3904
  13846254.610   -50625907.49149 -39009050.75549  13846254.3424   13846259.7874
  16518630.290   -46067410.212 9 -35859266.863 9  16518627.283    16518633.007
  16359230.283   -26777122.30449 -20820416.41849  16359230.3054   16359237.8734
  16473182.847   -13777216.578 9 -10702815.015 9  16473182.065    16473191.417
  12942839.609   -61855794.89149 -47856155.60549  12942839.5054   12942845.3444
  13827241.665   -47919899.08449 -37320330.50249  13827241.4894   13827247.0334
  15178360.645   -34235136.63849 -26633784.50849  15178359.2014   15178366.2264
  14248660.688   -51539007.08949 -40134066.40749  14248660.2964   14248665.9684
 96  2 12 20 42 59.9750000  0  9 29 27 28 16 12 19 18  2 31
  16481134.495   -23729966.45249 -18478454.55449  16481133.9564   16481140.2424
  13817592.807   -50776524.82249 -39126414.88749  13817592.8694   13817598.3044
  16513843.993   -46092553.888 9 -35878859.301 9  16513842.380    16513848.675
  16339963.492   -26878373.22549 -20899313.25549  16339962.9584   16339969.3654
  16441992.105   -13941124.121 9 -10830535.072 9  16441991.340    16442001.314
  12924428.560   -61952546.46949 -47931546.44949  12924428.4694   12924434.0834
  13823927.245   -47937315.78149 -37333901.97549  13823927.0864   13823932.6754
  15147753.047   -34395973.30849 -26759111.75049  15147752.6944   15147760.1034
  14233645.893   -51617920.37849 -40195557.28849  14233644.1594   14233649.2484
 96  2 12 20 43 29.9750000  0  9 29 27 28 16 12 19 18  2 31
  16483479.166   -23717644.67149 -18468853.28749  16483479.4874   16483486.2854
  13788965.066   -50926965.56149 -39243641.41749  13788964.9864   13788970.4864
  16509139.568   -46117263.541 9 -35898113.538 9  16509140.352    16509146.525
  16320797.823   -26979085.43849 -20977790.30649  16320797.1964   16320803.0104
  16410830.376   -14104875.736 9 -10958133.630 9  16410830.536    16410840.232
  12906068.978   -62049027.57349 -48006726.53449  12906068.8194   12906074.2924
  13820688.314   -47954335.67949 -37347164.24249  13820688.2234   13820693.9294
  15117199.193   -34556538.06449 -26884227.10349  15117198.2584   15117205.8254
  14218747.973   -51696197.48449 -40256552.43949  14218748.5134   14218753.6214
 96  2 12 20 43 59.9750000  0  9 29 27 28 16 12 19 18  2 31
  16485852.273   -23705172.93649 -18459135.17049  16485852.7184   16485858.9524
  13760363.948   -51077265.83549 -39360758.49549  13760363.7224   13760369.1704
  16504517.633   -46141556.975 9 -35917043.472 9  16504517.458    16504523.686
  16301732.712   -27079277.43649 -21055862.00049  16301731.5354   16301737.3774
  16379696.003   -14268487.334 9 -11085623.114 9  16379695.793    16379705.314
  12887754.134   -62145270.49049 -48081721.01249  12887754.3034   12887759.9084
  13817521.359   -47970981.35749 -37360134.92649  13817520.6634   13817526.7144
  15086694.527   -34716841.56749 -27009138.88949  15086693.2934   15086700.6574
  14203970.493   -51773859.46749 -40317068.27749  14203970.1434   14203975.3524
 96  2 12 20 44 29.9750000  0  9 29 27 28 16 12 19 18  2 31
  16488252.947   -23692555.27749 -18449303.35449  16488254.0334   16488260.1074
  13731789.480   -51227422.71649 -39477763.83849  13731789.8064   13731795.4054
  16499977.111   -46165424.403 9 -35935641.451 9  16499975.773    16499981.794
  16282764.031   -27178955.39449 -21133533.12849  16282761.9534   16282767.5604
  16348591.004   -14431947.027 9 -11212994.221 9  16348590.994    16348599.535
  12869483.530   -62241286.78749 -48156538.90049  12869483.0544   12869488.4354
  13814426.829   -47987242.79649 -37372806.19149  13814426.4914   13814432.4454
  15056241.825   -34876868.60149 -27133835.24649  15056241.6624   15056248.8104
  14189311.784   -51850899.40649 -40377099.41049  14189310.2274   14189315.0884
 96  2 12 20 44 59.9740000  0  9 29 27 28 16 12 19 18  2 31
  16490674.674   -23679827.87549 -18439386.03649  16490675.9104   16490682.4954
  13703240.945   -51377450.94749 -39594668.94249  13703240.4044   13703245.8684
  16495513.723   -46188885.069 9 -35953922.465 9  16495510.964    16495518.072
  16263888.953   -27278137.75149 -21210818.07849  16263889.7174   16263895.1234
  16317513.360   -14595267.537 9 -11340256.875 9  16317512.744    16317521.192
  12851254.080   -62337079.72249 -48231182.74149  12851254.2384   12851259.8244
  13811403.563   -48003132.64149 -37385187.89649  13811402.7014   13811408.5384
  15025837.575   -35036639.83249 -27258332.26649  15025837.5924   15025844.6154
  14174767.051   -51927323.36949 -40436650.55649  14174767.0824   14174772.0274
 96  2 12 20 45 29.9740000  0  9 29 27 28 16 12 19 18  2 31
  16493123.536   -23666971.51449 -18429368.21249  16493122.5224   16493129.3024
  13674719.420   -51527330.31049 -39711458.03949  13674719.2804   13674724.5314
  16491125.554   -46211931.315 9 -35971880.578 9  16491125.251    16491131.625
  16245113.305   -27376810.84249 -21287706.20049  16245112.2284   16245117.9664
  16286461.065   -14758448.677 9 -11467410.933 9  16286460.400    16286468.590
  12833069.625   -62432642.23449 -48305647.03049  12833069.2014   12833074.5714
  13808455.213   -48018624.23749 -37397259.27349  13808454.7504   13808460.3164
  14995482.694   -35196162.43449 -27382635.56049  14995481.6884   14995488.5084
  14160345.818   -52003114.43649 -40495708.54549  14160344.1304   14160348.9654
 96  2 12 20 45 59.9740000  0  9 29 27 28 16 12 19 18  2 31
  16495593.194   -23653991.43349 -18419253.96849  16495592.3344   16495599.5734
  13646229.066   -51677047.11849 -39828120.47749  13646228.9464   13646234.6374
  16486819.112   -46234571.799 9 -35989522.556 9  16486817.212    16486823.019
  16226430.800   -27474982.57749 -21364203.66549  16226429.9214   16226437.2184
  16255435.364   -14921492.405 9 -11594457.920 9  16255434.616    16255442.267
  12814927.712   -62527980.37449 -48379936.48349  12814927.1184   12814932.6664
  13805584.215   -48033711.04949 -37409015.22749  13805583.7644   13805589.2814
  14965169.763   -35355454.96449 -27506759.57549  14965169.7434   14965176.2064
  14146034.939   -52078308.29249 -40554301.16749  14146035.5474   14146040.4734
 96  2 12 20 46 29.9740000  0  9 29 27 28 16 12 19 18  2 31
  16498087.949   -23640878.98349 -18409036.59149  16498087.1844   16498094.8544
  13617776.299   -51826570.95749 -39944632.54349  13617775.7114   13617781.1174
  16482588.054   -46256797.969 9 -36006841.678 9  16482588.422    16482594.375
  16207850.879   -27572623.83749 -21440287.77349  16207851.3094   16207858.1504
  16224437.170   -15084388.083 9 -11721389.587 9  16224436.380    16224443.766
  12796831.466   -62623072.40749 -48454034.16049  12796831.7144   12796837.0614
  13802794.161   -48048373.55549 -37420440.55649  13802793.4764   13802799.3664
  14934903.513   -35514511.09249 -27630699.37149  14934901.8784   14934909.3334
  14131844.488   -52152889.76949 -40612416.61149  14131842.9944   14131848.3104
 96  2 12 20 46 59.9740000  0  9 29 27 28 16 12 19 18  2 31
  16500606.517   -23627639.68649 -18398720.35949  16500606.9514   16500614.0844
  13589355.044   -51975925.28549 -40061012.52749  13589354.3674   13589359.8234
  16478433.477   -46278625.902 9 -36023850.494 9  16478434.758    16478439.674
  16189374.669   -27669722.76449 -21515949.29149  16189373.6264   16189381.0614
  16193463.281   -15247149.935 9 -11848216.955 9  16193462.898    16193471.566
  12778784.498   -62717913.54649 -48527936.33749  12778783.7494   12778789.4784
  13800082.894   -48062621.86449 -37431543.14549  13800082.1414   13800087.4724
  14904676.685   -35673350.83949 -27754470.55849  14904676.0714   14904682.4664
  14117762.850   -52226882.75449 -40670073.49749  14117762.1404   14117768.0184
 96  2 12 20 47 29.9740000  0  9 29 27 28 16 12 19 18  2 31
  16503156.754   -23614236.90849 -18388276.75949  16503157.8064   16503165.6224
  13560970.691   -52125084.29749 -40177240.31749  13560970.5954   13560975.9894
  16474359.920   -46300031.027 9 -36040529.828 9  16474360.499    16474366.803
  16171008.067   -27766240.74649 -21591158.13249  16171007.6594   16171014.5494
  16162520.972   -15409751.349 9 -11974919.271 9  16162520.539    16162530.028
  12760787.799   -62812484.07149 -48601627.64549  12760787.7814   12760793.2754
  13797453.758   -48076438.14149 -37442309.08749  13797453.2764   13797458.6784
  14874497.146   -35831941.86149 -27878047.93349  14874496.8534   14874504.0444
  14103796.623   -52300275.86549 -40727262.94449  14103796.1744   14103801.5854
 96  2 12 20 47 59.9740000  0  9 29 27 28 16 12 19 18  2 31
  16505735.436   -23600692.97449 -18377723.14549  16505735.4984   16505742.3164
  13532618.365   -52274075.19449 -40293337.11149  13532618.2974   13532624.0114
  16470367.602   -46321031.777 9 -36056894.102 9  16470364.946    16470370.042
  16152746.534   -27862201.49649 -21665932.76049  16152746.5864   16152753.1814
  16131605.201   -15572208.876 9 -12101509.456 9  16131606.091    16131615.758
  12742843.179   -62906786.54249 -48675110.08249  12742842.6884   12742848.1694
  13794898.389   -48089861.87749 -37452769.14149  13794898.6574   13794903.7144
  14844365.650   -35990288.06949 -28001434.54249  14844364.3024   14844371.5024
  14089942.901   -52373082.09849 -40783995.07749  14089941.4014   14089947.1914
 96  2 12 20 48 29.9740000  0  9 29 27 28 16 12 19 18  2 31
  16508342.734   -23586997.08949 -18367051.11849  16508341.7614   16508349.5334
  13504298.575   -52422896.57949 -40409301.81849  13504298.5364   13504304.0394
  16466445.112   -46341625.796 9 -36072941.447 9  16466445.860    16466450.465
  16134593.077   -27957607.52449 -21740275.14449  16134591.3014   16134598.3404
  16100719.409   -15734517.940 9 -12227983.981 9  16100719.294    16100728.706
  12724951.124   -63000806.04349 -48748372.02849  12724951.3304   12724956.8134
  13792418.020   -48102902.84949 -37462930.95649  13792417.1684   13792422.4754
  14814283.809   -36148370.34849 -28124615.50449  14814282.3784   14814289.2874
  14076205.574   -52445262.20349 -40840239.33349  14076206.3034   14076211.4944
 96  2 12 20 48 59.9740000  0  9 29 27 28 16 12 19 18  2 31
  16510975.745   -23573149.56449 -18356260.94049  16510975.5884   16510983.4294
  13476010.261   -52571554.01749 -40525138.76949  13476009.9754   13476015.2444
  16462604.461   -46361817.788 9 -36088675.496 9  16462603.410    16462609.091
  16116538.033   -28052483.39349 -21814204.40549  16116536.5454   16116543.3114
  16069860.593   -15896681.320 9 -12354344.977 9  16069860.895    16069869.644
  12707113.337   -63094546.24249 -48821416.33249  12707113.0994   12707118.6124
  13790006.928   -48115569.82949 -37472801.33549  13790006.8854   13790012.1644
  14784250.166   -36306195.75249 -28247596.30049  14784249.3154   14784255.6594
  14062589.410   -52516824.29249 -40896001.99749  14062588.0744   14062593.6684
 96  2 12 20 49 29.9740000  0  9 29 27 28 16 12 19 18  2 31
  16513638.856   -23559162.94349 -18345362.36349  16513638.1894   16513645.4484
  13447755.812   -52720031.52549 -40640835.51949  13447755.5344   13447761.2474
  16458838.215   -46381618.356 9 -36104104.547 9  16458836.107    16458840.188
  16098579.649   -28146848.41349 -21887735.60649  16098580.3464   16098586.6804
  16039028.662   -16058707.529 9 -12480599.099 9  16039028.299    16039037.039
  12689328.284   -63188008.96949 -48894244.42949  12689327.7584   12689333.3044
  13787664.663   -48127875.75949 -37482390.38449  13787664.7664   13787670.4034
  14754264.043   -36463772.87349 -28370383.61449  14754263.2484   14754270.5794
  14049090.647   -52587762.59849 -40951278.59749  14049089.0094   14049094.7494
 96  2 12 20 49 59.9740000  0  9 29 27 28 16 12 19 18  2 31
  16516327.410   -23545034.72949 -18334353.47949  16516326.8444   16516333.7684
  13419535.661   -52868329.99849 -40756392.76049  13419535.6394   13419540.7924
  16455144.905   -46401021.361 9 -36119223.748 9  16455143.867    16455148.734
  16080721.425   -28240700.81749 -21960867.34449  16080719.6294   16080725.2304
  16008224.024   -16220588.553 9 -12606740.115 9  16008224.092    16008231.807
  12671596.147   -63281188.34249 -48966851.73349  12671596.1414   12671601.6164
  13785395.689   -48139805.50149 -37491686.30349  13785394.6584   13785400.2624
  14724326.996   -36621093.06749 -28492970.73049  14724326.2724   14724332.8704
  14035710.765   -52658067.87049 -41006061.92049  14035710.6904   14035715.6684
